[[{"header":{"parameterUnit":"m.s-1","parameterCategory":1,"la1":31.0,"la2":29.5877,"lo1":-88.7671,"lo2":-86.6584,"dy":0.0162,"dx":0.0185,"nx":115,"ny":88,"refTime":"2026-03-27T00:00:00:Z","depth":0,"parameterNumber":2,"parameterNumberName":"U-component_of_WINDS"},"data":[0.0,0.0,0.0,0.0,0.0,0.0,0.0,0.0,0.0,0.0,0.0,0.0,0.0,0.0,0.0,0.0,0.0,0.0,0.0,0.0,0.0,0.0,0.0,0.0,0.0,0.0,0.0,0.0,0.0,0.0,0.0,0.0,0.0,0.0,0.0,0.0,0.0,0.0,0.0,0.0,0.0,0.0,0.0,0.0,0.0,0.0,0.0,0.0,0.0,0.0,0.0,0.0,0.0,0.0,0.0,0.0,0.0,0.0,0.0,0.0,0.0,0.0,0.0,0.0,0.0,0.0,0.0,0.0,0.0,0.0,0.0,0.0,0.0,0.0,0.0,0.0,0.0,0.0,0.0,0.0,0.0,0.0,0.0,0.0,0.0,0.0,0.0,0.0,0.0,0.0,0.0,0.0,0.0,0.0,0.0,0.0,0.0,0.0,0.0,0.0,0.0,0.0,0.0,0.0,0.0,0.0,0.0,0.0,0.0,0.0,0.0,0.0,0.0,0.0,0.0,0.0,0.0,0.0,0.0,0.0,0.0,0.0,0.0,0.0,0.0,0.0,0.0,0.0,0.0,0.0,0.0,0.0,0.0,0.0,0.0,0.0,0.0,0.0,0.0,0.0,0.0,0.0,0.0,0.0,0.0,0.0,0.0,0.0,0.0,0.0,0.0,0.0,0.0,0.0,0.0,0.0,0.0,0.0,0.0,0.0,0.0,0.0,0.0,0.0,0.0,0.0,0.0,0.0,0.0,0.0,0.0,0.0,0.0,0.0,0.0,0.0,0.0,0.0,0.0,0.0,0.0,0.0,0.0,0.0,0.0,0.0,0.0,0.0,0.0,0.0,0.0,0.0,0.0,0.0,0.0,0.0,0.0,0.0,0.0,0.0,0.0,0.0,0.0,0.0,0.0,0.0,0.0,0.0,0.0,0.0,0.0,0.0,0.0,0.0,0.0,0.0,0.0,0.0,0.0,0.0,0.0,0.0,0.0,0.0,0.0,0.0,0.0,0.0,0.0,0.0,0.0,0.0,0.0,0.0,0.0,0.0,0.0,0.0,0.0,0.0,0.0,0.0,0.0,0.0,0.0,0.0,0.0,0.0,0.0,0.0,0.0,0.0,0.0,0.0,0.0,0.0,0.0,0.0,0.0,0.0,0.0,0.0,0.0,0.0,0.0,0.0,0.0,0.0,0.0,0.0,0.0,0.0,0.0,0.0,0.0,0.0,0.0,0.0,0.0,0.0,0.0,0.0,0.0,0.0,0.0,0.0,0.0,0.0,0.0,0.0,0.0,0.0,0.0,0.0,0.0,0.0,0.0,0.0,0.0,0.0,0.0,0.0,0.0,0.0,0.0,0.0,0.0,0.0,0.0,0.0,0.0,0.0,0.0,0.0,0.0,0.0,0.0,0.0,0.0,0.0,0.0,0.0,0.0,0.0,0.0,0.0,0.0,0.0,0.0,0.0,0.0,0.0,0.0,0.0,0.0,0.0,0.0,0.0,0.0,0.0,0.0,0.0,0.0,0.0,0.0,0.0,0.0,0.0,0.0,0.0,0.0,0.0,0.0,0.0,0.0,0.0,0.0,0.0,0.0,0.0,0.0,0.0,0.0,0.0,0.0,0.0,0.0,0.0,0.0,0.0,0.0,0.0,0.0,0.0,0.0,0.0,0.0,0.0,0.0,0.0,0.0,0.0,0.0,0.0,0.0,0.0,0.0,0.0,0.0,0.0,0.0,0.0,0.0,0.0,0.0,0.0,0.0,0.0,0.0,0.0,0.0,0.0,0.0,0.0,0.0,0.0,0.0,0.0,0.0,0.0,0.0,0.0,0.0,0.0,0.0,0.0,0.0,0.0,0.0,0.0,0.0,0.0,0.0,0.0,0.0,0.0,0.0,0.0,0.0,0.0,0.0,0.0,0.0,0.0,0.0,0.0,0.0,0.0,0.0,0.0,0.0,0.0,0.0,0.0,0.0,0.0,0.0,0.0,0.0,0.0,0.0,0.0,0.0,0.0,0.0,0.0,0.0,0.0,0.0,0.0,0.0,0.0,0.0,0.0,0.0,0.0,0.0,0.0,0.0,0.0,0.0,0.0,0.0,0.0,0.0,0.0,0.0,0.0,0.0,0.0,0.0,0.0,0.0,0.0,0.0,0.0,0.0,0.0,0.0,0.0,0.0,0.0,0.0,0.0,0.0,0.0,0.0,0.0,0.0,0.0,0.0,0.0,0.0,0.0,0.0,0.0,0.0,0.0,0.0,0.0,0.0,0.0,0.0,0.0,0.0,0.0,0.0,0.0,0.0,0.0,0.0,0.0,0.0,0.0,0.0,0.0,0.0,0.0,0.0,0.0,0.0,0.0,0.0,0.0,0.0,0.0,0.0,0.0,0.0,0.0,0.0,0.0,0.0,0.0,0.0,0.0,0.0,0.0,0.0,0.0,0.0,0.0,0.0,0.0,0.0,0.0,0.0,0.0,0.0,0.0,0.0,0.0,0.0,0.0,0.0,0.0,0.0,0.0,0.0,0.0,0.0,0.0,0.0,0.0,0.0,0.0,0.0,0.0,0.0,0.0,0.0,0.0,0.0,0.0,0.0,0.0,0.0,0.0,0.0,0.0,0.0,0.0,0.0,0.0,0.0,0.0,0.0,0.0,0.0,0.0,0.0,0.0,0.0,0.0,0.0,0.0,0.0,0.0,0.0,0.0,0.0,0.0,0.0,0.0,0.0,0.0,0.0,0.0,0.0,0.0,0.0,0.0,0.0,0.0,0.0,0.0,0.0,0.0,0.0,0.0,0.0,0.0,0.0,0.0,0.0,0.0,0.0,0.0,0.0,0.0,0.0,0.0,0.0,0.0,0.0,0.0,0.0,0.0,0.0,0.0,0.0,0.0,0.0,0.0,0.0,0.0,0.0,0.0,0.0,0.0,0.0,0.0,0.0,0.0,0.0,0.0,0.0,0.0,0.0,0.0,0.0,0.0,0.0,0.0,0.0,0.0,0.0,0.0,0.0,0.0,0.0,0.0,0.0,0.0,0.0,0.0,0.0,0.0,0.0,0.0,0.0,0.0,0.0,0.0,0.0,0.0,0.0,0.0,0.0,0.0,0.0,0.0,0.0,0.0,0.0,0.0,0.0,0.0,0.0,0.0,0.0,0.0,0.0,0.0,0.0,0.0,0.0,0.0,0.0,0.0,0.0,0.0,0.0,0.0,0.0,0.0,0.0,0.0,0.0,0.0,0.0,0.0,0.0,0.0,0.0,0.0,0.0,0.0,0.0,0.0,0.0,0.0,0.0,0.0,0.0,0.0,0.0,0.0,0.0,0.0,0.0,0.0,0.0,0.0,0.0,0.0,0.0,0.0,0.0,0.0,0.0,0.0,0.0,0.0,0.0,0.0,0.0,0.0,0.0,0.0,0.0,0.0,0.0,0.0,0.0,0.0,0.0,0.0,0.0,0.0,0.0,0.0,0.0,0.0,0.0,0.0,0.0,0.0,0.0,0.0,0.0,0.0,0.0,0.0,0.0,0.0,0.0,0.0,0.0,0.0,0.0,0.0,0.0,0.0,0.0,0.0,0.0,0.0,0.0,0.0,0.0,0.0,0.0,0.0,0.0,0.0,0.0,0.0,0.0,0.0,0.0,0.0,0.0,0.0,0.0,0.0,0.0,0.0,0.0,0.0,0.0,0.0,0.0,0.0,0.0,0.0,0.0,0.0,0.0,0.0,0.0,0.0,0.0,0.0,0.0,0.0,0.0,0.0,0.0,0.0,0.0,0.0,0.0,0.0,0.0,0.0,0.0,0.0,0.0,0.0,0.0,0.0,0.0,0.0,0.0,0.0,0.0,0.0,0.0,0.0,0.0,0.0,0.0,0.0,0.0,0.0,0.0,0.0,0.0,0.0,0.0,0.0,0.0,0.0,0.0,0.0,0.0,0.0,0.0,0.0,0.0,0.0,0.0,0.0,0.0,0.0,0.0,0.0,0.0,0.0,0.0,0.0,0.0,0.0,0.0,0.0,0.0,0.0,0.0,0.0,0.0,0.0,0.0,0.0,0.0,0.0,0.0,0.0,0.0,0.0,0.0,0.0,0.0,0.0,0.0,0.0,0.0,0.0,0.0,0.0,0.0,0.0,0.0,0.0,0.0,0.0,0.0,0.0,0.0,0.0,0.0,0.0,0.0,0.0,0.0,0.0,0.0,0.0,0.0,0.0,0.0,0.0,0.0,0.0,0.0,0.0,0.0,0.0,0.0,0.0,0.0,0.0,0.0,0.0,0.0,0.0,5.2057,0.0,0.0,0.0,0.0,0.0,0.0,0.0,0.0,0.0,0.0,0.0,0.0,0.0,0.0,0.0,0.0,0.0,0.0,0.0,0.0,0.0,0.0,0.0,0.0,0.0,0.0,0.0,0.0,0.0,0.0,0.0,0.0,0.0,0.0,0.0,0.0,0.0,0.0,0.0,0.0,0.0,0.0,0.0,0.0,0.0,0.0,0.0,0.0,0.0,0.0,0.0,0.0,0.0,0.0,0.0,0.0,0.0,0.0,0.0,0.0,0.0,0.0,0.0,0.0,0.0,0.0,0.0,0.0,0.0,0.0,0.0,0.0,0.0,0.0,0.0,0.0,0.0,0.0,0.0,0.0,0.0,0.0,0.0,0.0,0.0,0.0,0.0,0.0,0.0,0.0,0.0,0.0,0.0,0.0,0.0,0.0,0.0,0.0,0.0,0.0,0.0,0.0,0.0,0.0,0.0,0.0,0.0,0.0,0.0,0.0,5.4107,5.4452,5.3348,5.2383,5.1582,0.0,0.0,0.0,0.0,0.0,0.0,0.0,0.0,0.0,0.0,0.0,0.0,0.0,0.0,0.0,0.0,0.0,0.0,0.0,0.0,0.0,0.0,0.0,0.0,0.0,0.0,0.0,0.0,0.0,0.0,0.0,0.0,0.0,0.0,0.0,0.0,0.0,0.0,0.0,0.0,0.0,0.0,0.0,0.0,0.0,0.0,0.0,0.0,0.0,0.0,0.0,0.0,0.0,0.0,0.0,0.0,0.0,0.0,0.0,0.0,0.0,0.0,0.0,0.0,0.0,0.0,0.0,0.0,0.0,0.0,0.0,0.0,0.0,0.0,0.0,0.0,0.0,0.0,0.0,0.0,0.0,0.0,0.0,0.0,0.0,0.0,0.0,0.0,0.0,0.0,0.0,0.0,0.0,0.0,0.0,0.0,0.0,0.0,0.0,0.0,0.0,0.0,0.0,0.0,0.0,0.0,0.0,0.0,0.0,0.0,0.0,0.0,5.3348,5.2134,5.0858,0.0,0.0,0.0,0.0,0.0,0.0,0.0,0.0,0.0,0.0,0.0,0.0,0.0,0.0,0.0,0.0,0.0,0.0,0.0,0.0,0.0,0.0,0.0,0.0,0.0,0.0,0.0,0.0,0.0,0.0,0.0,0.0,0.0,0.0,0.0,0.0,0.0,0.0,0.0,0.0,0.0,0.0,0.0,0.0,0.0,0.0,0.0,0.0,0.0,0.0,0.0,0.0,0.0,0.0,0.0,0.0,0.0,0.0,0.0,0.0,0.0,0.0,0.0,0.0,0.0,0.0,0.0,0.0,0.0,0.0,0.0,0.0,0.0,0.0,0.0,0.0,0.0,0.0,0.0,0.0,0.0,0.0,0.0,0.0,0.0,0.0,0.0,0.0,0.0,0.0,0.0,0.0,0.0,0.0,0.0,0.0,0.0,0.0,0.0,0.0,0.0,0.0,0.0,0.0,0.0,0.0,0.0,0.0,0.0,0.0,5.3728,5.4486,5.4348,0.0,5.0272,0.0,0.0,0.0,0.0,0.0,0.0,0.0,0.0,0.0,0.0,0.0,0.0,0.0,0.0,0.0,0.0,0.0,0.0,0.0,0.0,0.0,0.0,0.0,0.0,0.0,0.0,0.0,0.0,0.0,0.0,0.0,0.0,0.0,0.0,0.0,0.0,0.0,0.0,0.0,0.0,0.0,0.0,0.0,0.0,0.0,0.0,0.0,0.0,0.0,0.0,0.0,0.0,0.0,0.0,0.0,0.0,0.0,0.0,0.0,0.0,0.0,0.0,0.0,0.0,0.0,0.0,0.0,0.0,0.0,0.0,0.0,0.0,0.0,0.0,0.0,0.0,0.0,0.0,0.0,0.0,0.0,0.0,0.0,0.0,0.0,0.0,0.0,0.0,0.0,0.0,0.0,0.0,0.0,0.0,0.0,0.0,0.0,0.0,0.0,0.0,0.0,0.0,0.0,0.0,0.0,0.0,0.0,0.0,0.0,0.0,0.0,5.4486,5.277,5.1038,0.0,0.0,0.0,0.0,0.0,0.0,0.0,0.0,0.0,0.0,0.0,0.0,0.0,0.0,0.0,0.0,0.0,0.0,0.0,0.0,0.0,0.0,0.0,0.0,0.0,0.0,0.0,0.0,0.0,0.0,0.0,0.0,0.0,0.0,0.0,0.0,0.0,0.0,0.0,0.0,0.0,0.0,0.0,0.0,0.0,0.0,0.0,0.0,0.0,0.0,0.0,0.0,0.0,0.0,0.0,0.0,0.0,0.0,0.0,0.0,0.0,0.0,0.0,0.0,0.0,0.0,0.0,0.0,0.0,0.0,0.0,0.0,0.0,0.0,0.0,0.0,0.0,0.0,0.0,0.0,0.0,0.0,0.0,0.0,0.0,0.0,0.0,0.0,0.0,0.0,0.0,0.0,0.0,0.0,0.0,0.0,0.0,0.0,0.0,0.0,0.0,0.0,0.0,0.0,0.0,0.0,0.0,0.0,0.0,0.0,5.3073,0.0,5.3728,5.1969,5.0176,4.8534,0.0,0.0,0.0,0.0,0.0,0.0,0.0,0.0,0.0,0.0,0.0,0.0,0.0,0.0,0.0,0.0,0.0,0.0,0.0,0.0,0.0,0.0,0.0,0.0,0.0,0.0,0.0,0.0,0.0,0.0,0.0,0.0,0.0,0.0,0.0,0.0,0.0,0.0,0.0,0.0,0.0,0.0,0.0,0.0,0.0,0.0,0.0,0.0,0.0,0.0,0.0,0.0,0.0,0.0,0.0,0.0,0.0,0.0,0.0,0.0,0.0,0.0,0.0,0.0,0.0,0.0,0.0,0.0,0.0,0.0,0.0,0.0,0.0,0.0,0.0,0.0,0.0,0.0,0.0,0.0,0.0,0.0,0.0,0.0,0.0,0.0,0.0,0.0,0.0,0.0,0.0,0.0,0.0,0.0,0.0,0.0,0.0,0.0,0.0,0.0,0.0,0.0,0.0,0.0,0.0,0.0,0.0,0.0,0.0,5.2272,5.2272,5.2375,5.2892,5.1521,0.0,0.0,0.0,0.0,0.0,0.0,0.0,0.0,0.0,0.0,0.0,0.0,0.0,0.0,0.0,0.0,0.0,0.0,0.0,0.0,0.0,0.0,0.0,0.0,0.0,0.0,0.0,0.0,0.0,0.0,0.0,0.0,0.0,0.0,0.0,0.0,0.0,0.0,0.0,0.0,0.0,0.0,0.0,0.0,0.0,0.0,0.0,0.0,0.0,0.0,0.0,0.0,0.0,0.0,0.0,0.0,0.0,0.0,0.0,0.0,0.0,0.0,0.0,0.0,0.0,0.0,0.0,0.0,0.0,0.0,0.0,0.0,0.0,0.0,0.0,0.0,0.0,0.0,0.0,0.0,0.0,0.0,0.0,0.0,0.0,0.0,0.0,0.0,0.0,0.0,0.0,0.0,0.0,0.0,0.0,0.0,0.0,0.0,0.0,0.0,0.0,0.0,0.0,0.0,0.0,0.0,0.0,0.0,0.0,5.1486,5.1961,5.2437,5.2908,5.1341,4.9789,0.0,0.0,0.0,0.0,0.0,0.0,0.0,0.0,0.0,0.0,0.0,0.0,0.0,0.0,0.0,0.0,0.0,0.0,0.0,0.0,0.0,0.0,0.0,0.0,0.0,0.0,0.0,0.0,0.0,0.0,0.0,0.0,0.0,0.0,0.0,0.0,0.0,0.0,0.0,0.0,0.0,0.0,0.0,0.0,0.0,0.0,0.0,0.0,0.0,0.0,0.0,0.0,0.0,0.0,0.0,0.0,0.0,0.0,0.0,0.0,0.0,0.0,0.0,0.0,0.0,0.0,0.0,0.0,0.0,0.0,0.0,0.0,0.0,0.0,0.0,0.0,0.0,0.0,0.0,0.0,0.0,0.0,0.0,0.0,0.0,0.0,0.0,0.0,0.0,0.0,0.0,0.0,0.0,0.0,0.0,0.0,0.0,0.0,0.0,0.0,0.0,0.0,0.0,0.0,0.0,0.0,0.0,0.0,0.0,5.1099,0.0,5.2617,0.0,5.0659,4.9092,0.0,0.0,0.0,0.0,0.0,0.0,0.0,0.0,0.0,0.0,0.0,0.0,0.0,0.0,0.0,0.0,0.0,0.0,0.0,0.0,0.0,0.0,0.0,0.0,0.0,0.0,0.0,0.0,0.0,0.0,0.0,0.0,0.0,0.0,0.0,0.0,0.0,0.0,0.0,0.0,0.0,0.0,0.0,0.0,0.0,0.0,0.0,0.0,0.0,0.0,0.0,0.0,0.0,0.0,0.0,0.0,0.0,0.0,0.0,0.0,0.0,0.0,0.0,0.0,0.0,0.0,0.0,0.0,0.0,0.0,0.0,0.0,0.0,0.0,0.0,0.0,0.0,0.0,0.0,0.0,0.0,0.0,0.0,0.0,0.0,0.0,0.0,0.0,0.0,0.0,0.0,0.0,0.0,0.0,0.0,0.0,0.0,0.0,0.0,0.0,0.0,0.0,0.0,0.0,0.0,0.0,0.0,0.0,0.0,5.1072,5.2563,5.2659,5.1237,5.1072,4.9651,0.0,0.0,0.0,0.0,0.0,0.0,0.0,0.0,0.0,0.0,0.0,0.0,0.0,0.0,0.0,0.0,0.0,0.0,0.0,0.0,0.0,0.0,0.0,0.0,0.0,0.0,0.0,0.0,0.0,0.0,0.0,0.0,0.0,0.0,0.0,0.0,0.0,0.0,0.0,0.0,0.0,0.0,0.0,0.0,0.0,0.0,0.0,0.0,0.0,0.0,0.0,0.0,0.0,0.0,0.0,0.0,0.0,0.0,0.0,0.0,0.0,0.0,0.0,0.0,0.0,0.0,0.0,0.0,0.0,0.0,0.0,0.0,0.0,0.0,0.0,0.0,0.0,0.0,0.0,0.0,0.0,0.0,0.0,0.0,0.0,0.0,0.0,0.0,0.0,0.0,0.0,0.0,0.0,0.0,0.0,0.0,0.0,0.0,0.0,0.0,0.0,0.0,0.0,0.0,0.0,0.0,0.0,0.0,0.0,5.0383,5.1789,5.2858,5.3314,5.0893,4.9341,0.0,0.0,0.0,0.0,0.0,0.0,0.0,0.0,0.0,0.0,0.0,0.0,0.0,0.0,0.0,0.0,0.0,0.0,0.0,0.0,0.0,0.0,0.0,0.0,0.0,0.0,0.0,0.0,0.0,0.0,0.0,0.0,0.0,0.0,0.0,0.0,0.0,0.0,0.0,0.0,0.0,0.0,0.0,0.0,0.0,0.0,0.0,0.0,0.0,0.0,0.0,0.0,0.0,0.0,0.0,0.0,0.0,0.0,0.0,0.0,0.0,0.0,0.0,0.0,0.0,0.0,0.0,0.0,0.0,0.0,0.0,0.0,0.0,0.0,0.0,0.0,0.0,0.0,0.0,0.0,0.0,0.0,0.0,0.0,0.0,0.0,0.0,0.0,0.0,0.0,0.0,0.0,0.0,0.0,0.0,0.0,0.0,0.0,0.0,0.0,0.0,0.0,0.0,0.0,0.0,0.0,0.0,0.0,0.0,5.1321,5.272,5.3789,5.4486,5.1341,4.961,4.9479,0.0,0.0,0.0,0.0,0.0,0.0,0.0,0.0,0.0,0.0,0.0,0.0,0.0,0.0,0.0,0.0,0.0,0.0,0.0,0.0,0.0,0.0,0.0,0.0,0.0,0.0,0.0,0.0,0.0,0.0,0.0,0.0,0.0,0.0,0.0,0.0,0.0,0.0,0.0,0.0,0.0,0.0,0.0,0.0,0.0,0.0,0.0,0.0,0.0,0.0,0.0,0.0,0.0,0.0,0.0,0.0,0.0,0.0,0.0,0.0,0.0,0.0,0.0,0.0,0.0,0.0,0.0,0.0,0.0,0.0,0.0,0.0,0.0,0.0,0.0,0.0,0.0,0.0,0.0,0.0,0.0,0.0,0.0,0.0,0.0,0.0,0.0,0.0,0.0,0.0,0.0,0.0,0.0,0.0,0.0,0.0,0.0,0.0,0.0,0.0,0.0,0.0,0.0,0.0,0.0,0.0,0.0,0.0,5.3555,5.503,5.5478,5.4797,5.2486,5.0513,0.0,0.0,0.0,0.0,0.0,0.0,0.0,0.0,0.0,0.0,0.0,0.0,0.0,0.0,0.0,0.0,0.0,0.0,0.0,0.0,0.0,0.0,0.0,0.0,0.0,0.0,0.0,0.0,0.0,0.0,0.0,0.0,0.0,0.0,0.0,0.0,0.0,0.0,0.0,0.0,0.0,0.0,0.0,0.0,0.0,0.0,0.0,0.0,0.0,0.0,0.0,0.0,0.0,0.0,0.0,0.0,0.0,0.0,0.0,0.0,0.0,0.0,0.0,0.0,0.0,0.0,0.0,0.0,0.0,0.0,0.0,0.0,0.0,0.0,0.0,0.0,0.0,0.0,0.0,0.0,0.0,0.0,0.0,0.0,0.0,0.0,0.0,0.0,0.0,0.0,0.0,0.0,0.0,0.0,0.0,0.0,0.0,0.0,0.0,0.0,0.0,0.0,0.0,0.0,0.0,0.0,0.0,0.0,0.0,5.5805,5.7349,5.7995,5.7762,5.4563,5.2303,0.0,0.0,0.0,0.0,0.0,0.0,0.0,0.0,0.0,0.0,0.0,0.0,0.0,0.0,0.0,0.0,0.0,0.0,0.0,0.0,0.0,0.0,0.0,0.0,0.0,0.0,0.0,0.0,0.0,0.0,0.0,0.0,0.0,0.0,0.0,0.0,0.0,0.0,0.0,0.0,0.0,0.0,0.0,0.0,0.0,0.0,0.0,0.0,0.0,0.0,0.0,0.0,0.0,0.0,0.0,0.0,0.0,0.0,0.0,0.0,0.0,0.0,0.0,0.0,0.0,0.0,0.0,0.0,0.0,0.0,0.0,0.0,0.0,0.0,0.0,0.0,0.0,0.0,0.0,0.0,0.0,0.0,0.0,0.0,0.0,0.0,0.0,0.0,0.0,0.0,0.0,0.0,0.0,0.0,0.0,0.0,0.0,0.0,0.0,0.0,0.0,0.0,0.0,0.0,0.0,0.0,0.0,0.0,5.377,5.7185,5.8737,5.9668,5.997,5.628,5.3482,0.0,0.0,0.0,0.0,0.0,0.0,0.0,0.0,0.0,0.0,0.0,0.0,0.0,0.0,0.0,0.0,0.0,0.0,0.0,0.0,0.0,0.0,0.0,0.0,0.0,0.0,0.0,0.0,0.0,0.0,0.0,0.0,0.0,0.0,0.0,0.0,0.0,0.0,0.0,0.0,0.0,0.0,0.0,0.0,0.0,0.0,0.0,0.0,0.0,0.0,0.0,0.0,0.0,0.0,0.0,0.0,0.0,0.0,0.0,0.0,0.0,0.0,0.0,0.0,0.0,0.0,0.0,0.0,0.0,0.0,0.0,0.0,0.0,0.0,0.0,0.0,0.0,0.0,0.0,0.0,0.0,0.0,0.0,0.0,0.0,0.0,0.0,0.0,0.0,0.0,0.0,0.0,0.0,0.0,0.0,0.0,0.0,0.0,0.0,0.0,0.0,0.0,0.0,0.0,0.0,0.0,0.0,0.0,5.49,5.7943,5.9461,6.0496,6.1039,5.7608,5.4275,0.0,0.0,0.0,0.0,0.0,0.0,0.0,0.0,0.0,0.0,0.0,0.0,0.0,0.0,0.0,0.0,0.0,0.0,0.0,0.0,0.0,0.0,0.0,0.0,0.0,0.0,0.0,0.0,0.0,0.0,0.0,0.0,0.0,0.0,0.0,0.0,0.0,0.0,0.0,0.0,0.0,0.0,0.0,0.0,0.0,0.0,0.0,0.0,0.0,0.0,0.0,0.0,0.0,0.0,0.0,0.0,0.0,0.0,0.0,0.0,0.0,0.0,0.0,0.0,0.0,0.0,0.0,0.0,0.0,0.0,0.0,0.0,0.0,0.0,0.0,0.0,0.0,0.0,0.0,0.0,0.0,0.0,0.0,0.0,0.0,0.0,0.0,0.0,0.0,0.0,0.0,0.0,0.0,0.0,0.0,0.0,0.0,0.0,0.0,0.0,0.0,0.0,0.0,0.0,0.0,0.0,0.0,0.0,5.5142,5.8659,5.9702,6.0289,6.0392,5.7774,5.4849,0.0,0.0,0.0,0.0,0.0,0.0,0.0,0.0,0.0,0.0,0.0,0.0,0.0,0.0,0.0,0.0,0.0,0.0,0.0,0.0,0.0,0.0,0.0,0.0,0.0,0.0,0.0,0.0,0.0,0.0,0.0,0.0,0.0,0.0,0.0,0.0,0.0,0.0,0.0,0.0,0.0,0.0,0.0,0.0,0.0,0.0,0.0,0.0,4.7588,0.0,0.0,0.0,0.0,0.0,0.0,0.0,0.0,0.0,0.0,0.0,0.0,0.0,0.0,0.0,0.0,0.0,0.0,0.0,0.0,0.0,0.0,0.0,0.0,0.0,0.0,0.0,0.0,0.0,0.0,0.0,0.0,0.0,0.0,0.0,0.0,0.0,0.0,0.0,0.0,0.0,0.0,0.0,0.0,0.0,0.0,0.0,0.0,0.0,0.0,0.0,0.0,0.0,0.0,0.0,0.0,0.0,0.0,0.0,5.5935,5.89,5.9426,5.9806,6.0107,5.8144,5.5451,0.0,0.0,0.0,0.0,0.0,0.0,0.0,0.0,0.0,0.0,0.0,0.0,0.0,0.0,0.0,0.0,0.0,0.0,0.0,0.0,0.0,0.0,0.0,0.0,0.0,0.0,0.0,0.0,0.0,0.0,0.0,0.0,0.0,0.0,0.0,0.0,0.0,0.0,0.0,0.0,0.0,0.0,0.0,0.0,0.0,0.0,0.0,0.0,0.0,0.0,0.0,0.0,0.0,0.0,0.0,0.0,0.0,0.0,0.0,0.0,0.0,0.0,0.0,0.0,0.0,0.0,0.0,0.0,0.0,0.0,0.0,0.0,0.0,0.0,0.0,0.0,0.0,0.0,0.0,0.0,0.0,0.0,0.0,0.0,0.0,0.0,0.0,0.0,0.0,0.0,0.0,0.0,0.0,0.0,0.0,0.0,0.0,0.0,0.0,0.0,0.0,0.0,0.0,0.0,0.0,0.0,0.0,5.403,5.6478,5.8857,5.8995,5.9314,5.9978,5.8368,5.5759,0.0,0.0,0.0,0.0,0.0,0.0,0.0,0.0,0.0,0.0,0.0,0.0,0.0,0.0,0.0,0.0,0.0,0.0,0.0,0.0,0.0,0.0,0.0,0.0,0.0,0.0,0.0,0.0,0.0,0.0,0.0,0.0,0.0,0.0,0.0,0.0,0.0,0.0,0.0,4.4323,4.5946,0.0,0.0,0.0,0.0,0.0,0.0,0.0,0.0,4.8112,0.0,0.0,0.0,0.0,0.0,0.0,0.0,0.0,0.0,0.0,0.0,0.0,0.0,0.0,0.0,0.0,0.0,0.0,0.0,0.0,0.0,0.0,0.0,0.0,0.0,0.0,0.0,0.0,0.0,0.0,0.0,0.0,0.0,0.0,0.0,0.0,0.0,0.0,0.0,0.0,0.0,0.0,0.0,0.0,0.0,0.0,0.0,0.0,0.0,0.0,0.0,0.0,0.0,0.0,0.0,0.0,5.3858,5.3831,5.546,5.89,5.8995,5.9073,5.9168,5.7475,5.5054,5.2009,0.0,0.0,0.0,0.0,0.0,0.0,0.0,0.0,0.0,0.0,0.0,0.0,0.0,0.0,0.0,0.0,0.0,0.0,0.0,0.0,0.0,0.0,0.0,0.0,0.0,0.0,0.0,0.0,0.0,0.0,0.0,0.0,0.0,0.0,0.0,0.0,0.0,0.0,0.0,4.8604,4.9518,0.0,0.0,0.0,0.0,0.0,0.0,0.0,0.0,4.8266,0.0,0.0,0.0,0.0,0.0,0.0,0.0,0.0,0.0,0.0,0.0,0.0,0.0,0.0,0.0,0.0,0.0,0.0,0.0,0.0,0.0,0.0,0.0,0.0,0.0,0.0,0.0,0.0,0.0,0.0,0.0,0.0,0.0,0.0,0.0,0.0,0.0,0.0,0.0,0.0,0.0,0.0,0.0,0.0,0.0,0.0,0.0,0.0,0.0,0.0,0.0,0.0,0.0,0.0,0.0,5.3168,5.4521,5.6426,5.8892,5.8995,5.8995,5.8961,5.6951,5.4556,0.0,0.0,0.0,0.0,0.0,0.0,0.0,0.0,0.0,0.0,0.0,0.0,0.0,0.0,0.0,0.0,0.0,0.0,0.0,0.0,0.0,0.0,0.0,0.0,0.0,0.0,0.0,0.0,0.0,0.0,0.0,0.0,0.0,0.0,0.0,0.0,0.0,0.0,0.0,0.0,4.8902,4.962,5.1047,0.0,0.0,0.0,0.0,0.0,0.0,4.8266,4.7958,0.0,0.0,0.0,0.0,0.0,0.0,0.0,0.0,0.0,0.0,0.0,0.0,0.0,0.0,0.0,0.0,0.0,0.0,0.0,0.0,0.0,0.0,0.0,0.0,0.0,0.0,0.0,0.0,0.0,0.0,0.0,0.0,0.0,0.0,0.0,0.0,0.0,0.0,0.0,0.0,0.0,0.0,0.0,0.0,0.0,0.0,0.0,0.0,0.0,0.0,0.0,0.0,0.0,0.0,0.0,5.2203,5.4935,5.7219,5.8892,5.8995,5.8995,5.8961,5.664,5.4268,0.0,0.0,0.0,0.0,0.0,0.0,0.0,0.0,0.0,0.0,0.0,0.0,0.0,0.0,0.0,0.0,0.0,0.0,0.0,0.0,0.0,0.0,0.0,0.0,0.0,0.0,0.0,0.0,0.0,0.0,0.0,0.0,0.0,0.0,0.0,0.0,0.0,0.0,0.0,0.0,0.0,5.0102,5.1302,5.0194,0.0,0.0,0.0,0.0,4.8932,4.8902,0.0,0.0,0.0,0.0,0.0,0.0,0.0,0.0,0.0,0.0,0.0,0.0,0.0,0.0,0.0,0.0,0.0,0.0,0.0,0.0,0.0,0.0,0.0,0.0,0.0,0.0,0.0,0.0,0.0,0.0,0.0,0.0,0.0,0.0,0.0,0.0,0.0,0.0,0.0,0.0,0.0,0.0,0.0,0.0,0.0,0.0,0.0,0.0,0.0,0.0,0.0,0.0,0.0,0.0,0.0,0.0,5.2126,5.3892,5.6134,5.8823,5.8995,5.8995,5.8961,5.6666,5.4278,0.0,0.0,0.0,0.0,0.0,0.0,0.0,0.0,0.0,0.0,0.0,0.0,0.0,0.0,0.0,0.0,0.0,0.0,0.0,0.0,0.0,0.0,0.0,0.0,0.0,0.0,0.0,0.0,0.0,0.0,0.0,0.0,0.0,0.0,0.0,0.0,0.0,0.0,0.0,0.0,0.0,5.2564,5.1047,5.1117,5.0913,0.0,0.0,5.0359,5.0451,5.1887,0.0,0.0,0.0,0.0,0.0,0.0,0.0,0.0,0.0,0.0,0.0,0.0,0.0,0.0,0.0,0.0,0.0,0.0,0.0,0.0,0.0,0.0,0.0,0.0,0.0,0.0,0.0,0.0,0.0,0.0,0.0,0.0,0.0,0.0,0.0,0.0,0.0,0.0,0.0,0.0,0.0,0.0,0.0,0.0,0.0,0.0,0.0,0.0,0.0,0.0,0.0,0.0,0.0,0.0,0.0,5.0065,5.2195,5.459,5.6624,5.8314,5.8788,5.8788,5.8383,5.5526,5.3307,0.0,0.0,0.0,0.0,0.0,0.0,0.0,0.0,0.0,0.0,0.0,0.0,0.0,0.0,0.0,0.0,0.0,0.0,0.0,0.0,0.0,0.0,0.0,0.0,0.0,0.0,0.0,0.0,0.0,0.0,0.0,0.0,0.0,0.0,0.0,0.0,0.0,0.0,0.0,0.0,0.0,0.0,5.1825,5.2082,0.0,0.0,0.0,5.1262,5.1251,0.0,0.0,0.0,0.0,0.0,0.0,0.0,0.0,0.0,0.0,0.0,0.0,0.0,0.0,0.0,0.0,0.0,0.0,0.0,0.0,0.0,0.0,0.0,0.0,0.0,0.0,0.0,0.0,0.0,0.0,0.0,0.0,0.0,0.0,0.0,0.0,0.0,0.0,0.0,0.0,0.0,0.0,0.0,0.0,0.0,0.0,0.0,0.0,0.0,0.0,0.0,0.0,0.0,0.0,0.0,0.0,0.0,5.2237,5.5245,5.715,5.7874,5.8625,5.8659,5.7866,5.5055,0.0,0.0,0.0,0.0,0.0,0.0,0.0,0.0,0.0,0.0,0.0,0.0,0.0,0.0,0.0,0.0,0.0,0.0,0.0,0.0,0.0,0.0,0.0,0.0,0.0,0.0,0.0,0.0,0.0,0.0,0.0,0.0,0.0,0.0,0.0,0.0,0.0,0.0,0.0,0.0,0.0,0.0,5.1498,5.2348,5.3025,5.3445,0.0,0.0,5.2194,5.2194,5.3221,5.2821,0.0,0.0,0.0,0.0,0.0,0.0,0.0,0.0,0.0,0.0,0.0,0.0,0.0,0.0,0.0,0.0,0.0,0.0,0.0,0.0,0.0,0.0,0.0,0.0,0.0,0.0,0.0,0.0,0.0,0.0,0.0,0.0,0.0,0.0,0.0,0.0,0.0,0.0,0.0,0.0,0.0,0.0,0.0,0.0,0.0,0.0,0.0,0.0,0.0,0.0,0.0,0.0,0.0,0.0,0.0,5.2237,5.5245,5.715,5.79,5.8616,5.8659,5.79,5.6168,5.4125,0.0,0.0,0.0,0.0,0.0,0.0,0.0,0.0,0.0,0.0,0.0,0.0,0.0,0.0,0.0,0.0,0.0,0.0,0.0,0.0,0.0,0.0,0.0,0.0,0.0,0.0,0.0,0.0,0.0,0.0,0.0,0.0,0.0,0.0,0.0,0.0,0.0,0.0,0.0,0.0,0.0,5.2359,5.1825,5.3906,5.5506,0.0,0.0,5.3568,5.3568,5.5757,5.5677,5.0462,0.0,0.0,0.0,0.0,0.0,0.0,0.0,0.0,0.0,0.0,0.0,0.0,0.0,0.0,0.0,0.0,0.0,0.0,0.0,0.0,0.0,0.0,0.0,0.0,0.0,0.0,0.0,0.0,0.0,0.0,0.0,0.0,0.0,0.0,0.0,0.0,0.0,0.0,0.0,0.0,0.0,0.0,0.0,0.0,0.0,0.0,0.0,0.0,0.0,0.0,0.0,0.0,0.0,5.0728,5.2203,5.5219,5.715,5.79,5.8633,5.8659,5.79,5.6153,5.4138,0.0,0.0,0.0,0.0,0.0,0.0,0.0,0.0,0.0,0.0,0.0,0.0,0.0,0.0,0.0,0.0,0.0,0.0,0.0,0.0,0.0,0.0,0.0,0.0,0.0,0.0,0.0,0.0,4.0368,4.0869,4.1146,0.0,0.0,0.0,0.0,0.0,0.0,0.0,0.0,0.0,0.0,5.2429,5.3395,5.5161,0.0,0.0,5.5542,5.478,5.4368,5.521,5.4472,5.0369,4.9415,0.0,0.0,0.0,0.0,0.0,0.0,0.0,0.0,0.0,0.0,0.0,0.0,0.0,0.0,0.0,0.0,0.0,0.0,0.0,0.0,0.0,0.0,0.0,0.0,0.0,0.0,0.0,0.0,0.0,0.0,0.0,0.0,0.0,0.0,0.0,0.0,0.0,0.0,0.0,0.0,0.0,0.0,0.0,0.0,0.0,0.0,0.0,0.0,0.0,0.0,0.0,0.0,5.0728,5.2195,5.5245,5.715,5.79,5.8633,5.8556,5.759,5.6198,5.4321,0.0,0.0,0.0,0.0,0.0,0.0,0.0,0.0,0.0,0.0,0.0,0.0,0.0,0.0,0.0,0.0,0.0,0.0,0.0,0.0,0.0,0.0,0.0,0.0,0.0,0.0,0.0,0.0,4.1146,4.1524,4.13,0.0,0.0,0.0,0.0,0.0,0.0,0.0,0.0,0.0,0.0,5.2656,5.4449,5.5715,5.6385,5.6188,5.5388,5.4626,5.4153,5.4264,5.3414,5.0493,0.0,0.0,0.0,0.0,0.0,0.0,0.0,0.0,0.0,0.0,0.0,0.0,0.0,0.0,0.0,0.0,0.0,0.0,0.0,0.0,0.0,0.0,0.0,0.0,0.0,0.0,0.0,4.4656,0.0,0.0,4.4629,0.0,0.0,0.0,0.0,0.0,0.0,0.0,0.0,0.0,0.0,0.0,0.0,0.0,0.0,0.0,0.0,0.0,0.0,0.0,0.0,0.0,0.0,0.0,5.2195,5.5245,5.715,5.79,5.8625,5.8314,5.6943,5.6455,5.4842,5.1841,0.0,0.0,0.0,0.0,0.0,0.0,0.0,0.0,0.0,0.0,0.0,0.0,0.0,0.0,0.0,0.0,0.0,0.0,0.0,0.0,0.0,0.0,0.0,0.0,0.0,0.0,4.0575,4.1146,4.13,0.0,0.0,0.0,0.0,0.0,0.0,0.0,0.0,0.0,0.0,5.0502,5.3168,5.4491,5.5272,5.553,5.4922,5.3702,5.2821,5.281,5.3291,5.3014,0.0,0.0,0.0,0.0,0.0,0.0,0.0,0.0,0.0,0.0,0.0,0.0,0.0,0.0,0.0,0.0,0.0,0.0,0.0,0.0,0.0,0.0,0.0,0.0,0.0,0.0,0.0,4.5559,4.5998,0.0,0.0,0.0,0.0,0.0,0.0,0.0,0.0,0.0,0.0,0.0,4.852,4.8929,0.0,0.0,0.0,0.0,0.0,0.0,0.0,0.0,0.0,0.0,0.0,0.0,5.0728,5.2272,5.5219,5.7383,5.8582,5.8383,5.8038,5.7529,5.6341,5.3967,5.0244,0.0,0.0,0.0,0.0,0.0,0.0,0.0,0.0,0.0,0.0,0.0,0.0,0.0,0.0,0.0,0.0,0.0,0.0,0.0,0.0,0.0,0.0,0.0,0.0,0.0,4.13,0.0,0.0,0.0,0.0,0.0,0.0,0.0,0.0,0.0,0.0,0.0,4.5597,4.7373,5.0163,5.2533,5.3845,5.5007,5.5788,0.0,0.0,0.0,0.0,0.0,0.0,0.0,0.0,0.0,0.0,0.0,0.0,0.0,0.0,4.9461,4.5536,4.4585,4.4618,4.5254,0.0,0.0,0.0,0.0,0.0,0.0,0.0,0.0,0.0,0.0,0.0,0.0,0.0,0.0,4.623,0.0,4.6173,0.0,0.0,0.0,0.0,0.0,0.0,0.0,0.0,4.9438,5.0189,4.9948,5.0311,5.0037,0.0,4.9444,4.8754,0.0,0.0,0.0,0.0,0.0,0.0,0.0,0.0,5.0538,5.1892,5.4831,5.6969,5.8142,5.7771,5.7383,5.7073,5.5439,5.2979,4.9693,4.759,4.5125,0.0,0.0,0.0,0.0,0.0,0.0,0.0,0.0,0.0,0.0,0.0,0.0,0.0,0.0,0.0,0.0,0.0,0.0,0.0,0.0,0.0,0.0,0.0,4.1494,0.0,0.0,0.0,0.0,0.0,0.0,0.0,0.0,0.0,4.334,4.5033,4.6983,4.8778,5.0963,5.2718,5.3579,0.0,0.0,0.0,0.0,0.0,0.0,0.0,5.1656,5.0503,4.994,4.9592,4.9541,5.0087,5.0262,4.9342,0.0,0.0,4.687,4.5985,4.6019,4.692,4.723,4.7269,4.7038,4.7706,4.7906,0.0,0.0,0.0,0.0,0.0,0.0,0.0,0.0,4.6755,4.674,0.0,4.6731,0.0,0.0,0.0,0.0,0.0,4.6955,0.0,0.0,5.1732,5.2744,5.2052,5.1994,5.1994,5.1956,5.1328,5.0639,4.98,4.8624,0.0,0.0,0.0,0.0,0.0,0.0,5.0179,5.1222,5.4099,5.5996,5.6805,5.6771,5.6383,5.5558,5.3885,5.2137,5.0276,4.8815,4.6664,4.3742,4.2263,0.0,0.0,0.0,0.0,0.0,0.0,0.0,0.0,0.0,0.0,0.0,0.0,0.0,0.0,0.0,0.0,0.0,0.0,0.0,0.0,4.1586,0.0,0.0,0.0,0.0,0.0,0.0,0.0,0.0,0.0,0.0,4.4899,4.649,4.8625,5.1221,0.0,0.0,0.0,0.0,5.4029,5.2164,5.1825,5.1652,5.1005,5.1937,5.2443,5.1672,0.0,0.0,5.0211,4.9551,4.9046,4.7702,4.859,4.9768,5.1315,4.9672,4.8729,4.9873,4.8717,4.7803,4.8233,4.8903,4.9085,5.3248,0.0,0.0,0.0,0.0,4.9397,4.9645,5.0369,4.9209,4.8775,4.8863,4.8273,0.0,0.0,0.0,0.0,0.0,0.0,4.9104,5.0302,5.1617,5.2337,5.2634,5.2553,5.2245,5.1819,5.2169,5.149,4.9904,5.0603,4.9439,4.6508,0.0,0.0,0.0,0.0,5.0383,5.1817,5.4285,5.5996,5.6779,5.6245,5.5525,5.4631,5.4,5.3132,5.1911,5.0833,4.8875,4.5996,4.4114,0.0,0.0,0.0,0.0,0.0,0.0,0.0,0.0,0.0,0.0,0.0,0.0,0.0,0.0,0.0,0.0,0.0,0.0,0.0,4.0737,4.1278,4.1445,0.0,0.0,0.0,0.0,0.0,0.0,0.0,0.0,0.0,4.8122,4.8707,4.9384,0.0,0.0,5.2102,5.1621,5.3353,5.4479,5.3937,5.4226,0.0,0.0,5.3347,5.2962,5.232,5.2181,5.1657,5.0193,5.0209,5.0327,4.989,5.002,5.0311,5.0652,4.9829,4.9092,4.9346,4.9298,4.9279,4.9529,5.0186,5.0588,5.525,5.3604,5.2244,5.1354,5.0816,5.0342,5.0665,5.1422,5.0463,5.0085,5.0125,4.9638,4.8665,4.7365,4.6845,0.0,0.0,0.0,4.958,5.1257,5.16,5.2141,5.2797,5.2728,5.2513,5.2116,5.2666,5.2268,5.1096,5.1847,5.0984,4.8623,0.0,0.0,4.7284,4.9342,5.0918,5.2058,5.3962,5.5288,5.5866,5.5417,5.4815,5.4169,5.4037,5.3669,5.2956,5.2112,5.0407,4.7785,4.571,4.3298,0.0,0.0,0.0,0.0,0.0,0.0,0.0,0.0,0.0,0.0,0.0,3.8676,0.0,0.0,0.0,0.0,3.9761,4.0623,4.1291,4.1731,0.0,0.0,0.0,0.0,0.0,0.0,0.0,4.5247,4.7385,4.9251,5.0339,5.0944,5.1282,5.1282,5.2452,5.3025,5.2379,0.0,5.5426,5.5149,5.521,5.5123,5.4657,5.4371,5.3899,5.3018,5.1901,5.1008,5.0368,5.0422,5.0544,5.053,5.0404,5.0305,5.0305,4.9816,4.9474,4.9474,4.9749,4.9968,4.9995,5.1039,5.1725,5.6742,5.5615,5.2502,5.1182,5.1118,5.1108,5.1069,5.1016,5.0985,5.0924,5.0862,5.079,5.002,4.8676,4.7465,0.0,4.884,4.8871,4.9938,5.1775,5.1764,5.2102,5.2676,5.2718,5.2718,5.2709,5.2799,5.2919,5.2956,5.2482,5.193,5.1265,5.0686,4.9976,4.9312,5.0657,5.1579,5.1977,5.3264,5.409,5.4455,5.4455,5.4295,5.398,5.3972,5.3808,5.3501,5.2739,5.1295,4.9177,4.7086,4.4686,4.1904,0.0,0.0,0.0,0.0,0.0,0.0,0.0,0.0,0.0,0.0,0.0,0.0,0.0,0.0,0.0,4.0848,0.0,4.2542,4.2588,0.0,0.0,0.0,4.3128,4.4498,4.524,4.5933,4.6646,0.0,0.0,5.1764,5.3025,5.3845,5.3783,5.4884,5.5468,5.4787,5.5961,5.6693,5.5911,5.5395,5.4976,5.4793,5.495,5.4698,5.3444,5.1836,5.0654,5.0445,5.0221,5.0038,5.0038,4.9996,5.001,4.9996,4.997,4.9996,4.997,4.997,5.001,5.0175,5.1404,5.2221,5.6309,5.4942,5.414,5.3785,5.376,5.376,5.3781,5.3702,5.3199,5.2706,5.2194,5.1671,5.1005,5.0174,4.9877,5.0174,5.0963,5.0974,5.1517,5.2441,5.2471,5.2533,5.2687,5.2718,5.2718,5.2709,5.2725,5.2569,5.222,5.2656,5.2599,5.2081,5.2463,5.147,4.9174,5.0119,5.0976,5.1608,5.2743,5.364,5.4237,5.4167,5.4005,5.3783,5.3783,5.3676,5.3484,5.2739,5.1521,4.98,4.7807,4.558,4.3204,4.0201,0.0,0.0,0.0,0.0,0.0,0.0,0.0,0.0,0.0,3.8922,3.7623,0.0,3.9722,0.0,4.1498,4.2332,4.2523,4.2522,0.0,0.0,4.3677,4.3899,4.5733,4.6058,4.6842,4.8588,5.0321,5.1873,5.308,5.4379,5.5037,5.4553,5.518,5.5468,5.4891,5.6792,5.7894,5.6878,5.7223,5.7358,5.6018,5.5165,5.4175,5.2795,5.1798,5.0964,5.0233,5.0066,4.9996,4.9996,4.9996,4.9996,4.9996,4.9996,4.9996,4.9996,4.9996,5.0131,5.058,5.1415,5.1976,5.6439,5.5653,5.5653,5.5622,5.5592,5.4952,5.4706,5.4664,5.4306,5.3937,5.3549,5.2872,5.2225,5.1621,5.159,5.1805,5.2133,5.2133,5.2348,5.2687,5.2718,5.2718,5.2718,5.2718,5.2718,5.2718,5.2718,5.2772,5.2932,5.3031,5.3193,5.3335,5.3424,5.2503,5.0608,5.1348,5.2005,5.2459,5.3206,5.3713,5.3962,5.4054,5.3834,5.3314,5.324,5.2844,5.2152,5.1604,5.0485,4.8669,4.718,4.5417,4.3253,4.0768,3.8961,0.0,0.0,0.0,0.0,0.0,0.0,0.0,0.0,0.0,0.0,0.0,3.9816,4.045,4.1456,4.2367,4.3097,4.3174,4.3815,4.5387,4.4835,4.5029,4.683,4.6906,4.7672,4.9914,5.1432,5.2876,5.4386,5.5511,5.6065,5.5684,5.6207,5.6496,5.633,5.7943,5.8879,5.7882,5.7983,5.7582,5.5851,5.4513,5.3289,5.2128,5.1291,5.0574,5.0092,4.9996,4.9996,4.9996,4.9996,4.9996,4.9996,5.024,5.0417,5.0444,5.062,5.081,5.0878,5.151,5.2105,5.6785,5.6785,5.6785,5.6785,5.6705,5.5487,5.4952,5.4952,5.486,5.4799,5.4664,5.4091,5.3456,5.2841,5.2841,5.2779,5.2718,5.2718,5.2718,5.2718,5.2718,5.2718,5.2718,5.2718,5.2718,5.2718,5.2718,5.322,5.4144,5.3452,5.3616,5.4523,5.3856,5.3171,5.2536,5.3137,5.3534,5.3565,5.3936,5.3971,5.3725,5.3962,5.3693,5.2773,5.2534,5.1773,5.0422,5.0007,4.8917,4.7035,4.6144,4.4808,4.2948,4.1384,3.9929,0.0,3.7976,0.0,0.0,0.0,0.0,0.0,0.0,0.0,0.0,4.0266,4.0273,4.0783,4.1485,4.2511,4.3979,4.4149,4.4916,4.672,4.6163,4.6163,4.7526,4.768,4.8555,5.0844,5.2367,5.3869,5.5418,5.6324,5.681,5.6601,5.7186,5.7648,5.7863,5.8775,5.936,5.8867,5.8013,5.6796,5.5036,5.3683,5.2601,5.1637,5.0711,4.9996,4.986,4.986,4.9887,4.9887,5.0023,5.0131,5.0104,5.0607,5.0987,5.1014,5.1379,5.1582,5.141,5.2032,5.2825,5.6785,5.6785,5.6785,5.6785,5.6767,5.652,5.6385,5.6354,5.5776,5.521,5.4695,5.4583,5.4141,5.3537,5.3506,5.321,5.2718,5.2718,5.2718,5.2718,5.2718,5.2718,5.2718,5.2718,5.2718,5.2718,5.2718,5.322,5.4206,5.3452,5.3593,5.454,5.3864,5.3416,5.3272,0.0,0.0,0.0,5.3461,5.3783,5.3717,5.3767,5.3351,5.244,5.1782,0.0,5.0174,4.8968,4.8109,4.7596,4.5868,0.0,0.0,0.0,0.0,0.0,0.0,0.0,0.0,0.0,0.0,0.0,4.0645,4.0442,4.1257,4.2011,4.248,4.2619,4.3454,4.4225,4.4749,4.5025,4.5579,4.6652,4.6482,4.6535,4.7318,4.8054,4.9408,5.1537,5.2811,5.4068,5.5456,5.6324,5.657,5.617,5.7001,5.774,5.7771,5.8454,5.8916,5.8723,5.7541,5.6371,5.5026,5.3799,5.2679,5.1838,5.0758,4.9887,4.9412,4.9304,4.9304,4.9358,5.005,5.0715,5.0715,5.1216,5.1582,5.1609,5.1732,5.1907,5.2304,5.3279,5.4269,5.6785,0.0,5.6785,5.6785,0.0,5.6785,5.6785,5.6779,5.6385,5.585,5.518,5.521,5.481,5.4183,5.4183,5.3845,5.321,5.3199,5.3025,5.2718,5.2718,5.2718,5.2718,5.2718,5.2718,5.2718,5.2718,5.3388,5.4628,5.3624,5.378,5.5124,5.4059,5.3509,5.3509,5.3509,5.3348,5.3033,5.3455,5.3667,5.3592,5.3667,5.3132,5.193,0.0,0.0,0.0,0.0,0.0,0.0,0.0,0.0,0.0,0.0,0.0,4.1045,4.0388,4.0151,4.0441,4.0192,4.0676,4.2149,4.2156,4.2005,4.1815,4.2515,4.2929,4.2909,4.3655,4.4378,4.4989,4.5416,4.5979,4.6737,4.6602,4.6624,4.7092,4.7793,4.9054,5.0931,5.2419,5.385,5.5384,5.6303,5.6619,5.6324,5.6828,5.7321,5.7365,5.7792,5.7917,5.7064,5.5945,5.4714,5.3585,5.283,5.1865,5.0733,5.0213,4.9779,4.9195,4.9358,4.9562,4.9616,5.0308,5.0878,5.096,5.1379,5.188,5.2198,5.2459,5.2836,5.3403,5.4065,5.5069,5.6785,5.6785,5.6785,5.6785,5.6785,5.6785,5.6785,5.6785,0.0,0.0,0.0,5.5892,5.5426,5.4725,5.4829,5.4429,5.3733,5.3702,5.3425,5.2872,5.2748,5.2718,5.2718,5.2718,5.2718,5.2687,5.2866,5.3729,5.5217,5.4093,5.426,5.5449,5.4355,5.3611,5.3509,5.3509,5.3509,5.3484,5.3617,5.3626,5.3484,5.3617,5.2987,5.1467,5.1154,5.0007,4.7951,4.7054,4.5996,4.4759,4.3965,4.3354,4.2801,4.2654,4.2547,4.2429,4.2131,4.2076,4.2423,4.2049,4.2137,4.2961,4.3408,4.3229,4.2267,4.2603,4.2922,4.2975,4.3507,4.426,4.5161,4.5765,4.63,4.6859,4.6666,4.6628,4.7,4.7645,4.8802,5.0325,5.2107,5.3723,5.522,5.6213,5.6694,5.6628,5.6689,5.664,5.6519,5.6912,5.6838,5.5447,5.4517,5.3326,5.221,5.1601,5.081,4.9902,4.9779,4.9643,4.9331,4.9493,4.986,4.9941,5.0538,5.1054,5.1231,5.1678,5.2185,5.2854,5.3246,5.3768,5.463,5.4927,5.5786,5.6785,5.6785,5.6785,5.6785,5.6785,5.6785,5.6785,5.6785,5.6785,5.6736,5.6631,5.6644,5.5899,5.4737,5.5303,5.4884,5.3733,5.3702,5.366,5.3549,5.2964,5.2718,5.2718,5.2718,5.2718,5.2754,5.3456,5.4327,5.5195,5.5214,5.537,5.5568,5.4862,5.4126,5.3543,5.3509,5.3509,5.3509,5.3617,5.3626,5.3484,5.3617,5.2929,5.1317,5.0624,4.9225,4.7075,4.6274,4.5466,4.4642,4.3969,4.3562,4.3439,4.29,4.2365,4.1856,4.2672,4.2951,4.2308,4.2633,4.2863,4.2783,4.3129,4.3129,4.2669,4.2987,4.3427,4.3925,4.451,4.5169,4.5818,4.638,4.6751,4.686,4.6666,4.6725,4.7266,4.838,4.9481,5.0559,5.2833,5.4359,5.497,5.5992,5.6403,5.5998,5.6458,5.6372,5.5475,5.5799,5.6051,5.511,5.4367,5.3557,5.2299,5.1478,5.0828,5.0703,4.9806,4.9318,4.9141,4.9249,4.9562,4.9941,5.0918,5.1761,5.2306,5.2491,5.3063,5.3878,5.395,5.4272,5.5957,5.6442,5.6928,5.6785,5.6785,5.6785,5.6785,5.6785,5.6785,5.6785,5.6785,5.6785,5.6785,5.6785,5.6785,5.6447,5.5911,5.617,5.5757,5.478,5.4791,5.441,5.3691,5.3395,5.3056,5.2718,5.2718,5.2718,5.2785,5.3608,5.4454,5.5225,5.5439,5.5747,5.6204,5.5141,5.4439,5.4101,5.3687,5.3509,5.3518,5.3559,5.3559,5.3484,5.3559,5.3009,5.1818,5.1082,4.985,4.805,4.6909,4.5972,4.5214,4.4517,4.4138,4.4129,4.3514,4.3141,4.3165,4.2927,4.2923,4.3232,4.3234,4.3169,4.305,4.3375,4.3497,4.3336,4.3454,4.3755,4.4178,4.4899,4.5542,4.5984,4.6428,4.6705,4.6665,4.6547,4.6753,4.7376,4.8331,4.9293,5.0208,5.2082,5.3513,5.3727,5.4722,5.5533,5.5513,5.6518,5.6762,5.562,5.574,5.5298,5.3427,5.288,5.2449,5.1519,5.0834,5.0323,4.9996,4.9766,4.9453,4.9249,4.9304,4.9833,5.0376,5.1244,5.2242,5.3371,5.3658,5.4168,5.5026,5.5157,5.5523,5.6288,5.6937,5.7778,5.6785,5.6785,5.6785,5.6785,5.6785,5.6785,5.6785,5.6785,5.6785,5.6785,5.6785,5.6785,5.6705,5.657,5.6705,5.6385,5.5757,5.5696,5.5142,5.4195,5.3999,5.3568,5.2983,5.2933,5.286,5.2863,5.3772,5.4621,5.5266,5.5797,5.6291,5.6644,5.5513,5.4846,5.4846,5.4287,5.3983,5.3983,5.3983,5.3856,5.3509,5.3509,5.3103,5.2325,5.1742,5.0675,4.9066,4.7876,4.6842,4.5959,4.5355,4.4995,4.4822,4.4333,4.4108,4.4089,4.3237,4.2997,4.3771,4.3472,4.3293,4.3418,4.3721,4.3922,4.3996,4.4209,4.4338,4.4584,4.5298,4.5884,4.6128,4.6418,4.6601,4.6698,4.6712,4.7091,4.7824,4.849,4.9118,4.9872,5.141,5.2514,5.2594,5.3377,5.4414,5.5312,5.6436,5.6803,5.6234,5.5723,5.432,5.2475,5.1723,5.1704,5.0857,5.0465,5.0051,4.9412,4.9697,4.9806,4.9697,4.9941,5.0712,5.1496,5.2144,5.3258,5.467,5.4814,5.5152,5.5977,5.5945,5.5842,5.6249,5.7077,5.8017,5.6785,5.6785,5.6785,5.6785,5.6785,5.6785,5.6785,5.6785,5.6785,5.6785,5.6785,5.6785,5.6447,5.5954,5.652,5.6416,5.5757,5.5696,5.5634,5.5407,5.4903,5.4245,5.3641,5.361,5.3291,5.3006,5.438,5.52,5.5442,5.6868,5.7369,5.679,5.5978,5.5597,5.5564,5.553,5.5462,5.5496,5.5496,5.482,5.3577,5.3509,5.3112,5.2325,5.2216,5.1153,4.9014,4.8806,4.7996,4.6673,4.6416,4.6099,4.5566,4.5444,4.4763,4.3422,4.367,4.3788,4.3417,4.3088,4.3206,4.3707,4.404,4.4328,4.4633,4.5327,4.5705,4.5603,4.5979,4.6308,4.6476,4.6704,4.699,4.7227,4.7323,4.7879,4.9023,4.9474,4.9748,5.0364,5.1388,5.2124,5.1948,5.2797,5.3849,5.4833,5.5376,5.554,5.5171,5.502,5.4144,5.2448,5.206,5.1928,5.1334,5.1024,5.0527,5.0023,4.9969,5.0186,5.0484,5.0773,5.1425,5.3056,5.3916,5.4627,5.5934,5.6134,5.5777,5.6568,5.6363,5.5561,5.6458,5.7223,5.7832,5.6785,5.6785,5.6785,5.6785,5.6785,5.6785,5.6785,5.6785,5.6785,5.6785,5.6785,5.6785,5.6631,5.6366,5.6674,5.6644,5.6366,5.6366,5.6096,5.5727,5.5407,5.4945,5.4306,5.3887,5.3779,5.4085,5.4918,5.5575,5.6192,5.7322,5.7721,5.7417,5.6697,5.635,5.6316,5.5902,5.5699,5.5699,5.5699,5.5395,5.4828,5.4355,5.3752,5.2951,5.2089,5.0762,4.9018,4.8443,4.7685,4.6712,4.6603,4.6293,4.5625,4.5078,4.4464,4.3745,4.3615,4.3614,4.3582,4.3475,4.3759,4.4531,4.4851,4.5153,4.5449,4.6097,4.6414,4.6206,4.6323,4.6538,4.6717,4.7005,4.7292,4.7577,4.777,4.8341,4.9447,4.9419,4.954,5.0126,5.0767,5.1169,5.1225,5.2258,5.3563,5.4696,5.5269,5.5326,5.4651,5.4743,5.4246,5.2832,5.2447,5.1911,5.0983,5.0816,5.073,5.0607,5.0553,5.0743,5.1233,5.1068,5.1676,5.4116,5.4571,5.5651,5.782,5.7901,5.7675,5.7751,5.7027,5.6293,5.6725,5.7001,5.7198,5.6785,5.6785,5.6785,5.7013,5.7321,5.7167,5.7198,5.7309,5.7352,5.7352,5.734,5.7167,5.7075,5.7044,5.689,5.6785,5.6785,5.6785,5.6508,5.6046,5.6004,5.5622,5.4964,5.4503,5.4617,5.5252,5.5717,5.6366,5.7191,5.7603,5.79,5.7789,5.7349,5.7103,5.7045,5.6553,5.6274,5.6308,5.6283,5.6316,5.6188,5.5345,5.4376,5.3374,5.1903,5.0463,4.9153,4.8594,4.7936,4.7208,4.6996,4.6559,4.5846,4.4948,4.4276,4.3912,4.3618,4.3576,4.3877,4.3994,4.4422,4.5245,4.5573,4.5808,4.6142,4.6628,4.6756,4.6548,4.6657,4.6804,4.6786,4.7144,4.7511,4.7876,4.8233,4.8804,4.9707,4.9553,4.9577,5.0068,5.0347,5.0429,5.0788,5.2043,5.3444,5.4302,5.514,5.5495,5.446,5.4396,5.4005,5.2988,5.2504,5.1822,5.0828,5.0745,5.0934,5.0905,5.0865,5.1171,5.2027,5.1927,5.2504,5.5176,5.5208,5.5963,5.7942,5.8674,5.8476,5.8147,5.7481,5.6737,5.6785,5.6816,5.6816,5.6785,5.6816,5.6828,5.7537,5.8633,5.8017,5.811,5.8572,5.8664,5.8695,5.8541,5.8017,5.7771,5.7722,5.7136,5.6828,5.6785,5.6785,5.6767,5.6693,5.6693,5.6354,5.5696,5.5646,5.5782,5.6197,5.6808,5.7692,5.8643,5.8251,5.79,5.7891,5.7924,5.79,5.7848,5.7789,5.7789,5.7654,5.7654,5.7694,5.7493,5.6185,5.4711,5.3377,5.1936,5.0729,4.9925,4.9805,4.9386,4.8532,4.7847,4.7188,4.6461,4.5499,4.4484,4.3558,4.3621,4.3902,4.4226,4.4489,4.5035,4.5809,4.5986,4.6115,4.6449,4.6716,4.6784,4.6535,4.7037,4.7132,4.682,4.7335,4.7771,4.8219,4.8748,4.9471,5.0322,5.007,5.0138,5.0305,5.0275,5.0421,5.0881,5.2245,5.3043,5.3531,5.4151,5.4577,5.4313,5.3369,5.2932,5.2802,5.2158,5.1278,5.189,5.1649,5.1151,5.1236,5.1557,5.1609,5.2848,5.4008,5.518,5.6192,5.6683,5.7362,5.826,5.8385,5.7856,5.7506,5.7229,5.6828,5.7001,5.6847,5.6785,5.8091,5.806,5.7629,5.7956,5.8713,5.8541,5.8602,5.8818,5.8818,5.8818,5.8787,5.8528,5.8436,5.8387,5.7752,5.7186,5.6816,5.6785,5.6785,5.6785,5.6785,5.6631,5.6457,5.6517,5.6956,5.7505,5.7586,5.7834,5.8361,5.8939,5.9066,5.8761,5.9099,5.9099,5.8693,5.8592,5.8389,5.7934,5.79,5.7662,5.6986,5.5549,5.4199,5.316,5.2137,5.1236,5.0445,4.9988,4.9615,4.9292,4.8219,4.7198,4.6207,4.4765,4.3867,4.3685,4.3906,4.4343,4.5017,4.5367,4.584,4.6464,4.6417,4.6432,4.669,4.6705,4.6749,4.7064,4.7401,4.7577,4.7784,4.8314,4.8886,4.9105,4.9637,5.0116,5.0334,5.022,5.0052,5.0177,5.0365,5.0824,5.155,5.2311,5.2996,5.3392,5.3769,5.379,5.3529,5.3152,5.3053,5.286,5.2445,5.2156,5.2407,5.2351,5.2131,5.2365,5.2626,5.3193,5.4174,5.4752,5.5739,5.6522,5.7382,5.7738,5.821,5.8196,5.766,5.7863,5.7537,5.729,5.7371,5.7167,5.6952,5.8929,5.899,5.8418,5.8651,5.936,5.9206,5.9249,5.9421,5.9452,5.9452,5.9434,5.9236,5.9113,5.9033,5.8405,5.7894,5.7414,5.7044,5.6785,5.6785,5.6785,5.6785,5.6844,5.6961,5.7625,5.8583,5.858,5.8533,5.8638,5.9142,5.9099,5.8693,5.9394,5.9361,5.8819,5.909,5.8887,5.81,5.7864,5.7424,5.6513,5.504,5.3959,5.3313,5.2544,5.1702,5.076,5.0062,4.9657,4.9481,4.8311,4.7048,4.589,4.4626,4.3955,4.4115,4.4444,4.4956,4.5631,4.5982,4.6385,4.6833,4.6638,4.6655,4.6976,4.6899,4.7105,4.7553,4.8028,4.8314,4.8613,4.9323,4.9748,4.9666,5.0298,5.0851,5.092,5.1058,5.1252,5.1613,5.2084,5.2435,5.2615,5.2941,5.328,5.3595,5.3577,5.3387,5.3158,5.3103,5.332,5.3022,5.2805,5.2736,5.3125,5.3347,5.2926,5.3034,5.3797,5.447,5.5182,5.5698,5.6239,5.6963,5.7379,5.7636,5.7785,5.7869,5.811,5.8418,5.8264,5.7894,5.7752,5.7444,5.7167,5.9206,5.9667,5.9082,5.9514,6.0468,6.0037,6.0178,6.0578,6.0671,6.0591,6.0455,6.0055,5.9821,5.9667,5.9082,5.8775,5.8541,5.7537,5.697,5.6921,5.6828,5.6785,5.681,5.6934,5.7895,5.9491,5.9938,6.0024,5.9766,5.8939,5.8364,5.8195,5.8921,5.9066,5.8035,5.937,5.9385,5.8186,5.7773,5.7296,5.649,5.4869,5.3946,5.3795,5.3066,5.2068,5.0851,5.0185,4.9812,4.9477,4.8276,4.69,4.5735,4.5131,4.4953,4.4809,4.5245,4.5712,4.599,4.6312,4.6596,4.6796,4.668,4.6873,4.7294,4.743,4.7662,4.8246,4.8694,4.906,4.9224,4.9994,5.02,4.9457,5.0533,5.1429,5.1675,5.2579,5.3556,5.3861,5.4132,5.47,5.4453,5.4042,5.3872,5.364,5.3592,5.3565,5.3456,5.3212,5.3103,5.3323,5.3424,5.3526,5.4011,5.4427,5.3918,5.3687,5.4667,5.5509,5.6315,5.6936,5.7378,5.8014,5.7861,5.8089,5.7923,5.8017,5.8214,5.8448,5.8356,5.8418,5.8122,5.7814,5.7321,5.9883,6.0363,5.976,5.9975,6.0732,6.0578,6.0609,6.0794,6.0794,6.0794,6.0763,6.0578,6.0486,6.0332,5.9778,5.9483,5.9434,5.8572,5.7925,5.7494,5.7044,5.6828,5.6949,5.7472,5.8484,5.9848,6.1096,6.0825,5.9699,5.9911,5.9776,5.909,5.9936,6.0148,5.9404,6.0341,5.9963,5.8002,5.7731,5.6816,5.5028,5.4296,5.3718,5.3157,5.2833,5.2471,5.2071,5.1436,5.0808,5.0182,4.8725,4.711,4.561,4.5156,4.5172,4.5338,4.5822,4.6203,4.6339,4.6595,4.6745,4.6761,4.7073,4.7452,4.7698,4.808,4.8531,4.9036,4.9337,4.95,4.9867,5.0934,5.1003,4.9878,5.0574,5.1307,5.1474,5.2001,5.2533,5.3234,5.3792,5.3907,5.3811,5.3795,5.3956,5.3652,5.3577,5.3577,5.3565,5.3429,5.3347,5.3553,5.3887,5.446,5.5023,5.5718,5.5879,5.5666,5.6247,5.6594,5.737,5.8011,5.8531,5.8579,5.8435,5.8325,5.8171,5.8294,5.8572,5.8787,5.8972,5.8849,5.8541,5.8153,5.7709,6.0424,6.0732,6.0332,6.0393,6.0763,6.0794,6.0794,6.0794,6.0794,6.0794,6.0794,6.0794,6.0794,6.0701,6.0363,6.0178,6.0098,5.9483,5.8929,5.8418,5.7555,5.7186,5.7323,5.826,5.9283,6.0353,6.1739,6.1535,6.0003,6.0984,6.0917,5.9868,6.068,6.0714,5.9888,6.0318,5.972,5.7942,5.7507,5.6474,5.476,5.4051,5.3517,5.2838,5.2718,5.2718,5.2664,5.2032,5.1281,5.0354,4.8874,4.727,4.5915,4.5803,4.5826,4.5959,4.6211,4.6453,4.6534,4.6843,4.7045,4.6995,4.7644,4.8161,4.834,4.8763,4.9255,4.9651,4.9746,4.9894,5.0412,5.121,5.1488,5.1003,5.2194,5.2808,5.309,5.3701,5.4073,5.4586,5.4555,5.4344,5.4217,5.3879,5.3999,5.3682,5.3577,5.3577,5.3577,5.3577,5.3743,5.4119,5.4723,5.5356,5.6065,5.6849,5.7718,5.791,5.8099,5.8131,5.8389,5.8901,5.9381,5.8889,5.8664,5.8633,5.851,5.8929,5.9236,5.9421,5.9514,5.9544,5.9341,5.8664,5.8227,6.0794,6.0794,6.0794,6.0763,6.0794,6.0794,6.0794,6.0794,6.0794,6.0794,6.0794,6.0794,6.0794,6.0794,6.0701,6.0671,6.0671,6.0191,5.9852,5.9452,5.8602,5.7937,5.7861,5.8994,5.9968,6.0743,6.1857,6.1921,6.1095,6.1738,6.1569,6.025,6.0757,6.0521,5.9501,5.9625,5.9127,5.7437,5.7087,5.6268,5.4865,5.4225,5.3513,5.2872,5.2933,5.2902,5.2608,5.1926,5.1105,5.0167,4.8498,4.7325,4.6909,4.6873,4.6687,4.6548,4.6562,4.6683,4.6739,4.7253,4.7512,4.7513,4.8272,4.8872,4.9077,4.9378,4.9816,5.0138,5.0135,5.0323,5.0868,5.1504,5.1936,5.275,5.4155,5.5584,5.7139,5.7322,5.6688,5.6318,5.6179,5.5631,5.5035,5.4452,5.4017,5.3698,5.3604,5.3619,5.3727,5.3906,5.4309,5.4947,5.5722,5.6566,5.7349,5.8272,5.9063,5.9184,5.9372,5.9325,5.9275,5.9705,6.0006,5.9483,5.8941,5.891,5.9003,5.939,5.9606,5.9637,5.9852,6.0222,5.9914,5.9175,5.8738,6.0794,6.0794,6.0794,6.0794,6.0794,6.0794,6.0794,6.0794,6.0794,6.0794,6.0794,6.0794,6.0794,6.0794,6.0794,6.0794,6.0732,6.0609,6.056,6.0393,5.9698,5.8664,5.8329,5.9532,6.0226,6.0346,6.1769,6.2009,6.1366,6.1738,6.1211,6.0182,6.0917,6.0501,5.9178,5.9577,5.8402,5.6231,5.6236,5.5651,5.4374,5.4348,5.4103,5.3568,5.3845,5.3545,5.2744,5.1648,5.0369,4.8976,4.7798,4.6992,4.6746,4.6891,4.7068,4.7198,4.7359,4.755,4.7757,4.8109,4.8232,4.811,4.8981,4.9584,4.9488,4.9953,5.0473,5.0852,5.0845,5.0932,5.1551,5.2409,5.3613,5.5132,5.5476,5.5818,5.6793,5.6762,5.6406,5.6378,5.5776,5.5191,5.4703,5.4343,5.4011,5.3752,5.3673,5.393,5.4281,5.4318,5.4734,5.6098,5.7048,5.7897,5.8768,5.97,6.0285,6.0307,6.0359,6.0351,6.0303,6.0384,6.0517,6.0332,5.9606,5.9372,5.9452,5.9698,5.9791,5.9852,6.0209,6.0517,6.0116,5.9514,5.9236,6.0794,6.0794,6.0794,6.0794,6.0794,6.0794,6.0794,6.0794,6.0794,6.0794,6.0794,6.0794,6.0794,6.0794,6.0794,6.0794,6.0794,6.0794,6.0794,6.0732,6.0363,5.9692,5.9381,6.0426,6.0887,6.088,6.2449,6.264,6.2188,6.2618,6.2294,6.1264,6.1398,6.072,5.9216,5.9013,5.8012,5.6037,5.6041,5.5522,5.3891,5.406,5.3845,5.3476,5.3657,5.3281,5.216,5.1215,4.9997,4.8673,4.8,4.7653,4.7295,4.7613,4.787,4.7959,4.82,4.8391,4.8463,4.8831,4.89,4.8817,4.9611,5.0105,5.0239,5.0594,5.1089,5.1435,5.1358,5.1625,5.2292,5.3557,5.5027,5.6145,5.6566,5.6673,5.708,5.7235,5.6911,5.648,5.5817,5.5219,5.4675,5.4388,5.4136,5.4012,5.4041,5.4722,5.5462,5.526,5.5864,5.768,5.8696,5.9454,6.006,6.0846,6.0915,6.0966,6.1177,6.1181,6.1071,6.0978,6.0701,6.053,6.0098,5.9791,5.9791,5.9852,6.0037,6.0209,6.0578,6.064,6.0301,5.9821,5.9575,6.0794,6.0781,6.0899,6.0886,6.0948,6.0978,6.1163,6.104,6.1132,6.1132,6.1132,6.1071,6.1194,6.1009,6.1255,6.104,6.0948,6.1163,6.104,6.0978,6.0797,6.0437,6.0235,6.0973,6.1625,6.2121,6.373,6.3461,6.298,6.4287,6.3932,6.2256,6.1887,6.0978,5.938,5.8576,5.7344,5.6102,5.6171,5.5614,5.4299,5.4122,5.3949,5.3403,5.3074,5.2742,5.1873,5.0988,4.9963,4.8499,4.8809,4.8543,4.8273,4.8747,4.891,4.8776,4.8871,4.8939,4.8968,4.9392,4.9637,4.9552,5.0183,5.0716,5.0983,5.1301,5.1632,5.1914,5.1895,5.2193,5.2904,5.4593,5.5748,5.6652,5.814,5.8516,5.7757,5.8225,5.8397,5.6951,5.6394,5.6077,5.5608,5.5119,5.4744,5.5008,5.5118,5.5899,5.6513,5.6566,5.8036,6.0347,6.0894,6.1049,6.1504,6.1959,6.1634,6.1475,6.177,6.1827,6.155,6.1348,6.0824,6.0499,6.0437,6.0129,5.9791,5.9945,6.0098,6.0301,6.0517,6.0671,6.0671,6.0068,5.9667,6.0794,6.0855,6.1335,6.1581,6.1673,6.2135,6.235,6.2319,6.235,6.2258,6.235,6.235,6.2319,6.2333,6.2227,6.2104,6.1704,6.1981,6.2104,6.1519,6.1009,6.0823,6.0763,6.1206,6.1881,6.2673,6.3158,6.3197,6.3208,6.3266,6.3056,6.1944,6.1581,6.0625,5.8801,5.8349,5.71,5.55,5.5644,5.5542,5.4841,5.4872,5.478,5.4179,5.3605,5.3194,5.2741,5.1693,5.0569,4.9687,4.8926,4.8614,4.8654,4.86,4.8859,4.9269,4.9241,4.9308,4.9702,5.0074,5.0374,5.0529,5.0991,5.156,5.16,5.1914,5.2229,5.2445,5.2519,5.2763,5.3456,5.4666,5.5912,5.7038,5.8679,5.9581,5.878,5.9007,5.9084,5.8434,5.8128,5.7902,5.7416,5.7769,5.7247,5.6419,5.6558,5.7214,5.7702,5.8073,5.9874,6.223,6.2238,6.2163,6.2188,6.2381,6.2042,6.1919,6.2227,6.2381,6.2104,6.1981,6.1594,6.1225,6.0948,6.0578,6.0055,5.9809,5.9932,6.0178,6.0486,6.0732,6.0763,6.0222,6.0001,6.1735,6.1766,6.2104,6.2258,6.2319,6.2658,6.2812,6.2812,6.2812,6.2812,6.2812,6.2812,6.2812,6.2812,6.2781,6.2566,6.2412,6.2583,6.2583,6.2135,6.1638,6.1572,6.169,6.1345,6.1524,6.2296,6.2765,6.2725,6.255,6.268,6.2459,6.1503,6.1433,6.0428,5.8779,5.8472,5.7289,5.5819,5.5819,5.5757,5.4964,5.5014,5.5137,5.4627,5.3951,5.3382,5.2994,5.1804,5.0877,5.0188,4.9486,4.9102,4.9281,4.9309,4.9555,4.9843,5.0022,5.0156,5.0607,5.0825,5.103,5.13,5.1658,5.194,5.2146,5.2397,5.2696,5.2985,5.3185,5.3363,5.4039,5.5818,5.6833,5.7625,5.9719,6.0653,5.9962,6.0342,6.0535,5.9842,5.972,5.9669,5.9691,5.9827,5.9364,5.8313,5.8397,5.9076,6.0471,6.0941,6.1684,6.3065,6.3131,6.3086,6.2921,6.272,6.2381,6.235,6.2566,6.2658,6.2535,6.2504,6.2473,6.1889,6.1255,6.0886,6.0424,6.0147,5.9993,6.0393,6.0732,6.0948,6.0855,6.0393,6.0345,6.2812,6.2812,6.2904,6.2966,6.2966,6.3089,6.3212,6.3181,6.312,6.3304,6.315,6.312,6.3335,6.3181,6.3243,6.315,6.3089,6.2798,6.275,6.2873,6.2258,6.2344,6.2516,6.1949,6.1471,6.1549,6.2256,6.2295,6.2137,6.2239,6.2113,6.1313,6.1209,6.0401,5.9277,5.8751,5.7937,5.6435,5.6459,5.617,5.5149,5.4983,5.4952,5.4812,5.4135,5.3536,5.2935,5.1854,5.0873,5.053,5.0274,5.0202,5.0286,5.0385,5.0596,5.0637,5.0818,5.1062,5.1261,5.1412,5.1557,5.1895,5.2037,5.2306,5.2726,5.2934,5.3181,5.342,5.3646,5.3972,5.4714,5.6733,5.7943,5.8783,6.1076,6.1943,6.1437,6.2119,6.2064,6.1064,6.1234,6.1505,6.1361,6.1315,6.079,6.0428,6.0501,6.094,6.2241,6.2937,6.3145,6.3505,6.3521,6.3509,6.335,6.2904,6.2566,6.2566,6.2812,6.2812,6.2812,6.275,6.2566,6.1981,6.1409,6.1071,6.0763,6.0424,6.0455,6.0719,6.0965,6.1181,6.1009,6.0609,6.064,6.2812,6.2843,6.3383,6.3629,6.3722,6.4258,6.4487,6.4549,6.4426,6.4549,6.4487,6.4518,6.4457,6.4487,6.4549,6.4518,6.4149,6.355,6.3229,6.3458,6.2966,6.2893,6.2801,6.2531,6.2355,6.2454,6.2487,6.2231,6.2148,6.227,6.1826,6.1078,6.0907,6.0362,5.9676,5.9082,5.8479,5.7432,5.7136,5.6508,5.5881,5.5653,5.5582,5.5476,5.4707,5.406,5.3289,5.1942,5.0782,5.0556,5.0655,5.0873,5.1026,5.0969,5.1053,5.1223,5.1438,5.1609,5.1754,5.1765,5.2035,5.2457,5.2808,5.3068,5.3443,5.3709,5.3888,5.3861,5.4207,5.4627,5.5271,5.7517,5.9015,6.0136,6.1765,6.3345,6.3141,6.347,6.3761,6.2447,6.2851,6.3257,6.2963,6.2777,6.2544,6.222,6.2165,6.2339,6.3125,6.3216,6.2938,6.3335,6.3766,6.3732,6.3691,6.3137,6.272,6.2689,6.2812,6.2812,6.2812,6.2812,6.2535,6.2104,6.1735,6.1409,6.1071,6.0732,6.064,6.0794,6.1101,6.1427,6.1255,6.0978,6.0763,6.3889,6.3933,6.4228,6.4364,6.4412,6.4734,6.4901,6.4901,6.4901,6.4901,6.4901,6.4901,6.4901,6.4901,6.4901,6.4901,6.4641,6.4303,6.4074,6.4197,6.3674,6.3322,6.3243,6.3027,6.2843,6.2637,6.2327,6.2112,6.203,6.203,6.1588,6.1018,6.0794,6.0468,5.9914,5.9483,5.8929,5.8356,5.7956,5.7463,5.6847,5.6773,5.6585,5.6013,5.5552,5.4865,5.3768,5.27,5.1633,5.1314,5.1289,5.1468,5.1606,5.1811,5.1851,5.1905,5.188,5.2003,5.2205,5.2302,5.2546,5.3118,5.3595,5.4,5.4342,5.4722,5.4858,5.4903,5.4951,5.5407,5.5868,5.8141,5.971,6.0838,6.2794,6.4048,6.4304,6.4649,6.4329,6.3834,6.407,6.427,6.4248,6.4131,6.4211,6.4073,6.3864,6.3934,6.415,6.3799,6.3376,6.3501,6.3906,6.3752,6.366,6.3198,6.2843,6.2812,6.2812,6.2812,6.2812,6.2812,6.272,6.246,6.2104,6.1779,6.1409,6.1071,6.0948,6.0824,6.1071,6.1317,6.1427,6.1365,6.1132,6.4901,6.4901,6.4901,6.4901,6.4901,6.4901,6.4901,6.4901,6.4901,6.4901,6.4901,6.4901,6.4901,6.4901,6.4901,6.4901,6.4901,6.4871,6.484,6.4703,6.432,6.4043,6.3858,6.3581,6.3366,6.3424,6.3015,6.221,6.1818,6.1632,6.1325,6.1132,6.0948,6.0701,6.0301,5.9945,5.9514,5.9175,5.8818,5.851,5.814,5.7949,5.7689,5.6841,5.6456,5.5528,5.4419,5.3148,5.2319,5.1909,5.1868,5.2033,5.22,5.2758,5.304,5.2821,5.2409,5.2551,5.3003,5.313,5.3459,5.4178,5.4452,5.4765,5.5009,5.5328,5.5714,5.5936,5.5944,5.6096,5.6665,5.8592,6.005,6.1277,6.3091,6.4867,6.5056,6.5308,6.5523,6.5285,6.5288,6.5171,6.509,6.5107,6.5087,6.5424,6.5228,6.4965,6.5075,6.4685,6.4345,6.4094,6.4043,6.3735,6.352,6.3198,6.2904,6.2812,6.2812,6.2812,6.2812,6.2812,6.275,6.2737,6.246,6.2104,6.1735,6.1409,6.1163,6.104,6.1101,6.1379,6.1858,6.1827,6.155,6.4901,6.4901,6.4901,6.4901,6.4901,6.4901,6.4901,6.4901,6.4901,6.4901,6.4901,6.4901,6.4901,6.4901,6.4901,6.4901,6.4901,6.4901,6.4901,6.4871,6.4734,6.4641,6.4734,6.4734,6.4426,6.4303,6.4289,6.3397,6.2333,6.1519,6.1348,6.1532,6.1225,6.0965,6.1181,6.0393,5.9791,5.9575,5.9113,5.8787,5.8682,5.8682,5.8582,5.8065,5.7111,5.5938,5.5013,5.3725,5.2647,5.2091,5.2395,5.2748,5.3149,5.4153,5.4603,5.4433,5.4051,5.3782,5.4382,5.4341,5.4471,5.5041,5.536,5.5321,5.5593,5.571,5.601,5.6217,5.6292,5.6723,5.7446,5.8775,5.9976,6.1611,6.3558,6.4994,6.56,6.5951,6.6166,6.615,6.5996,6.5934,6.5847,6.5892,6.5968,6.6351,6.6566,6.6166,6.575,6.5257,6.484,6.4487,6.4228,6.3951,6.3643,6.3291,6.3045,6.2904,6.2966,6.2966,6.3058,6.315,6.3058,6.2997,6.2781,6.2552,6.2258,6.1889,6.1396,6.1335,6.1519,6.2012,6.2627,6.235,6.1735,6.5226,6.4901,6.4901,6.4901,6.4901,6.4901,6.4901,6.4901,6.4901,6.4901,6.4901,6.4901,6.4901,6.4963,6.4901,6.4901,6.4901,6.4963,6.4932,6.4963,6.4949,6.4932,6.4901,6.4901,6.4901,6.4795,6.4443,6.3845,6.2904,6.2658,6.2566,6.221,6.1748,6.1458,6.1858,6.0886,6.0455,6.0191,5.976,5.9403,5.936,5.9322,5.9144,5.8683,5.7779,5.6815,5.5635,5.4523,5.3472,5.306,5.3402,5.3867,5.4254,5.484,5.5266,5.5439,5.4971,5.4836,5.5103,5.5107,5.5317,5.5578,5.5845,5.6156,5.6532,5.6842,5.6913,5.7086,5.7098,5.7642,5.8788,6.0114,6.1651,6.3149,6.4496,6.5388,6.6289,6.6528,6.6751,6.672,6.6628,6.6443,6.6365,6.6413,6.6382,6.6536,6.6536,6.6136,6.5735,6.5288,6.4918,6.4641,6.4395,6.418,6.3889,6.3568,6.3304,6.3212,6.3489,6.352,6.3581,6.3581,6.3612,6.3643,6.3612,6.3304,6.2904,6.2473,6.2042,6.1981,6.1998,6.235,6.2596,6.1766,6.1335,6.5873,6.538,6.5212,6.5042,6.4932,6.5072,6.5165,6.5165,6.538,6.5442,6.538,6.5442,6.5442,6.5411,6.5472,6.5534,6.5442,6.5397,6.5411,6.538,6.5226,6.5195,6.5134,6.5086,6.4901,6.4932,6.4504,6.4166,6.4104,6.3951,6.3612,6.3058,6.2381,6.2258,6.2148,6.1779,6.1379,6.1317,6.0701,6.0393,6.0332,6.0129,5.9703,5.9178,5.8578,5.7844,5.6666,5.5666,5.4871,5.4576,5.4605,5.4931,5.5178,5.5577,5.5835,5.601,5.5854,5.609,5.6086,5.5968,5.5778,5.5988,5.6308,5.7011,5.8142,5.8451,5.8943,5.9169,5.8503,5.9321,6.0483,6.161,6.2643,6.4159,6.5792,6.651,6.7094,6.7246,6.726,6.7198,6.7028,6.6659,6.6628,6.6813,6.6843,6.6782,6.6505,6.6105,6.5674,6.5257,6.5011,6.4734,6.4641,6.4487,6.4351,6.4043,6.3704,6.3674,6.3951,6.4135,6.4228,6.4364,6.4457,6.4457,6.4351,6.4166,6.3827,6.3273,6.2737,6.2737,6.2675,6.2443,6.2227,6.1489,6.1181,6.6813,6.672,6.6119,6.5548,6.5011,6.5596,6.5828,6.5889,6.6443,6.6628,6.6566,6.669,6.6566,6.6628,6.6536,6.6566,6.669,6.6751,6.6597,6.6382,6.6166,6.5889,6.5719,6.5411,6.5055,6.4994,6.4826,6.4826,6.4778,6.4641,6.4289,6.3722,6.3058,6.3212,6.312,6.2689,6.2381,6.2258,6.1796,6.1563,6.1409,6.1132,6.0747,6.046,5.9646,5.8811,5.833,5.7104,5.6181,5.5728,5.567,5.5745,5.5889,5.6287,5.6493,5.6679,5.6984,5.7285,5.7401,5.6907,5.6838,5.7163,5.7672,5.8319,5.9813,5.9063,5.9819,6.1539,6.0584,6.1032,6.1935,6.2691,6.3715,6.5263,6.6767,6.7227,6.7683,6.7799,6.7814,6.7691,6.7445,6.712,6.6843,6.6997,6.6905,6.6843,6.6505,6.6105,6.5626,6.5226,6.5042,6.4871,6.4871,6.484,6.4918,6.4764,6.4734,6.4751,6.4905,6.498,6.5042,6.5134,6.5148,6.5055,6.4918,6.4857,6.4672,6.3951,6.3489,6.3475,6.3383,6.315,6.275,6.2196,6.1889,6.7274,6.6891,6.7045,6.6751,6.6166,6.6413,6.6505,6.6566,6.6782,6.6905,6.6936,6.6905,6.6905,6.6936,6.6905,6.6905,6.6905,6.6905,6.6936,6.6829,6.6628,6.6536,6.6382,6.6197,6.5951,6.5626,6.5503,6.5226,6.4901,6.5055,6.4826,6.432,6.3858,6.3612,6.355,6.3304,6.2966,6.2812,6.2596,6.2412,6.235,6.2227,6.2012,6.1941,6.0427,5.9499,5.8755,5.7349,5.6473,5.608,5.6151,5.6382,5.6561,5.6943,5.7257,5.7513,5.7932,5.8178,5.8461,5.8004,5.8116,5.9451,5.9858,6.0377,6.1615,6.0948,6.1242,6.2042,6.2449,6.2778,6.4321,6.4746,6.5366,6.6836,6.7687,6.8076,6.8192,6.8308,6.8228,6.8044,6.7859,6.7568,6.7336,6.7151,6.7028,6.6874,6.6474,6.6119,6.575,6.5442,6.5319,6.5257,6.5288,6.5195,6.5226,6.5503,6.5811,6.5811,6.5797,6.5797,6.5811,6.5626,6.5626,6.5534,6.538,6.5226,6.4949,6.4474,6.4135,6.3937,6.392,6.3872,6.3397,6.2812,6.2566,6.7921,6.7566,6.7997,6.7705,6.6966,6.7106,6.7213,6.7243,6.7459,6.749,6.7504,6.7504,6.749,6.7504,6.752,6.7566,6.7627,6.7596,6.7566,6.7459,6.7367,6.7243,6.7151,6.6905,6.6536,6.6273,6.618,6.5934,6.5657,6.5503,6.5565,6.5442,6.4997,6.4751,6.4074,6.3691,6.3427,6.3397,6.3181,6.312,6.3075,6.2829,6.272,6.2495,6.1132,6.0218,5.9553,5.8584,5.7626,5.718,5.7134,5.7472,5.753,5.7647,5.7993,5.8407,5.8658,5.8672,5.8954,5.9006,5.9264,6.0434,6.1074,6.2107,6.3183,6.3054,6.3219,6.4792,6.4563,6.4665,6.6478,6.6568,6.6763,6.7961,6.8687,6.9063,6.874,6.8705,6.8551,6.8366,6.8013,6.7459,6.7367,6.712,6.712,6.6966,6.6751,6.6474,6.6242,6.5996,6.5889,6.5842,6.5797,6.5688,6.5565,6.6211,6.6735,6.6474,6.6474,6.6597,6.6566,6.6351,6.6012,6.5766,6.5626,6.5503,6.5257,6.4918,6.4597,6.4289,6.4197,6.4057,6.3643,6.3075,6.3045,6.8842,6.8858,6.8842,6.812,6.7151,6.7644,6.7875,6.7951,6.8427,6.8688,6.8627,6.8688,6.8688,6.8688,6.8534,6.8534,6.8534,6.8627,6.8627,6.8458,6.8089,6.7921,6.7705,6.7428,6.7182,6.6936,6.6874,6.6813,6.6645,6.6505,6.6597,6.6628,6.6289,6.5951,6.498,6.4857,6.484,6.4734,6.4104,6.3858,6.3704,6.3335,6.3181,6.3003,6.1926,6.1013,6.0629,6.0032,5.9198,5.8704,5.8986,5.9282,5.9368,5.8681,5.8816,5.9353,5.9137,5.928,5.9785,5.9586,6.0241,6.1361,6.2219,6.3317,6.503,6.533,6.5311,6.6913,6.6808,6.6943,6.7683,6.8149,6.8495,6.8719,6.9416,6.9489,6.915,6.8904,6.8719,6.8627,6.775,6.6997,6.7028,6.7028,6.712,6.709,6.6936,6.6782,6.6628,6.6474,6.6351,6.632,6.6259,6.6289,6.6351,6.7182,6.7582,6.7291,6.7151,6.7274,6.7243,6.7059,6.6659,6.6166,6.6136,6.6259,6.5873,6.5425,6.5165,6.4843,6.4258,6.3981,6.3643,6.3414,6.3383,6.8904,6.8904,6.8904,6.8658,6.8274,6.8458,6.8551,6.8581,6.8812,6.8904,6.8904,6.8904,6.8904,6.8904,6.8904,6.8904,6.8904,6.8904,6.8904,6.8873,6.8612,6.8612,6.8427,6.8212,6.7935,6.7644,6.7551,6.7305,6.6843,6.7059,6.6966,6.6905,6.7059,6.6659,6.6197,6.5903,6.5565,6.5442,6.4949,6.4549,6.4518,6.4334,6.4337,6.4637,6.3196,6.2263,6.1897,6.1294,6.0548,6.0153,6.0504,6.08,6.0797,6.0153,6.0036,6.0105,5.9824,5.9877,6.0396,6.0687,6.1647,6.2794,6.3793,6.4981,6.735,6.6944,6.7622,6.8508,6.8651,6.8817,6.9238,6.9743,6.994,6.9556,6.9751,6.9458,6.9181,6.8996,6.8842,6.8812,6.8257,6.8089,6.8058,6.7812,6.7781,6.7658,6.7566,6.7213,6.7012,6.6843,6.672,6.672,6.672,6.6813,6.709,6.7767,6.8044,6.7797,6.7767,6.7904,6.7828,6.7705,6.7459,6.709,6.7059,6.7028,6.6488,6.5996,6.578,6.5428,6.4905,6.4474,6.4258,6.3981,6.366,6.8904,6.8904,6.8904,6.8904,6.8904,6.8904,6.8904,6.8904,6.8904,6.8904,6.8904,6.8904,6.8904,6.8904,6.8904,6.8904,6.8904,6.8904,6.8904,6.8904,6.8904,6.8842,6.8873,6.8904,6.8551,6.829,6.8197,6.7997,6.775,6.7613,6.7689,6.772,6.7582,6.7658,6.735,6.6843,6.6259,6.6136,6.5797,6.5657,6.5657,6.5643,6.5766,6.5631,6.4775,6.3637,6.2988,6.2198,6.1336,6.1308,6.1531,6.1997,6.2016,6.1743,6.1496,6.127,6.0643,6.08,6.133,6.1162,6.2325,6.4275,6.5121,6.6475,6.8242,6.8273,6.8772,6.9496,6.9982,7.0151,7.0321,7.0859,7.0521,7.0059,6.9905,6.9643,6.9243,6.9058,6.9058,6.9027,6.8873,6.8904,6.8904,6.8842,6.8627,6.8411,6.8196,6.7812,6.7473,6.7428,6.7397,6.7428,6.749,6.7689,6.7828,6.8105,6.829,6.8259,6.8304,6.8397,6.8458,6.8335,6.8167,6.7951,6.7705,6.7397,6.6966,6.6566,6.6382,6.6074,6.5643,6.5274,6.498,6.4549,6.4104,6.8904,6.8904,6.8904,6.8904,6.8904,6.8965,6.8965,6.8904,6.8904,6.8935,6.8965,6.9027,6.9058,6.8996,6.8996,6.8965,6.8904,6.8904,6.8904,6.8904,6.8904,6.8904,6.8904,6.8904,6.8797,6.8842,6.8781,6.8658,6.8812,6.8565,6.8596,6.8719,6.8565,6.8534,6.8181,6.772,6.709,6.6905,6.6659,6.6505,6.6443,6.6628,6.669,6.6486,6.5836,6.489,6.4161,6.345,6.2466,6.2187,6.2336,6.2969,6.3165,6.2856,6.2997,6.2595,6.1523,6.183,6.2274,6.1921,6.2649,6.4511,6.5508,6.6659,6.792,6.9108,6.9865,7.0338,7.0767,7.0859,7.1013,7.0767,7.049,7.0336,7.0259,6.9858,6.9366,6.9212,6.9304,6.9212,6.8965,6.8904,6.8904,6.8904,6.9058,6.8781,6.8565,6.8534,6.8319,6.838,6.8366,6.8397,6.8504,6.8688,6.8781,6.8612,6.8581,6.8551,6.8643,6.875,6.8842,6.8812,6.8551,6.8304,6.8074,6.7797,6.7596,6.7319,6.6966,6.6659,6.6351,6.5766,6.5411,6.498,6.4641,6.8904,6.8904,6.8904,6.8904,6.8965,6.9427,6.9366,6.8935,6.8904,6.9119,6.9597,6.9612,6.9612,6.9597,6.9612,6.932,6.9089,6.8904,6.8904,6.8965,6.9119,6.8965,6.8965,6.9027,6.8935,6.8935,6.8935,6.8965,6.8873,6.8904,6.8904,6.8873,6.8904,6.8904,6.8781,6.8489,6.8044,6.7613,6.7274,6.7151,6.7059,6.709,6.7274,6.7244,6.6752,6.6012,6.5692,6.4728,6.389,6.3858,6.4441,6.4863,6.3714,6.4092,6.4355,6.26,6.2157,6.2345,6.2977,6.3454,6.3982,6.4968,6.6468,6.7472,6.8555,6.9534,7.0661,7.1136,7.1521,7.1644,7.1706,7.149,7.1213,7.109,7.0905,7.0443,6.9951,6.9581,6.9612,6.915,6.8935,6.9089,6.9058,6.9181,6.9273,6.9027,6.8965,6.9058,6.8965,6.8996,6.8904,6.8904,6.8904,6.8904,6.8904,6.8781,6.8842,6.8873,6.8904,6.8904,6.8904,6.8842,6.8781,6.8643,6.8458,6.8458,6.8473,6.812,6.7627,6.7397,6.7059,6.6413,6.5842,6.5503,6.5148,6.9043,6.9243,6.8996,6.9058,6.9397,6.9997,7.0028,6.9735,6.9704,6.9951,7.0274,7.0305,7.0289,7.0305,7.0274,7.012,6.9782,6.9813,6.9813,6.9813,6.9597,6.9766,6.9704,6.9597,6.9581,6.9427,6.9243,6.9212,6.9058,6.8935,6.8904,6.8904,6.8904,6.8935,6.8873,6.8781,6.8658,6.8304,6.7997,6.7736,6.7658,6.7658,6.7997,6.805,6.7524,6.7411,6.7122,6.5986,6.5659,6.5331,6.585,6.5985,6.4962,6.5158,6.4535,6.296,6.2484,6.2945,6.3664,6.4419,6.4815,6.5838,6.778,6.8796,6.9507,7.0311,7.1215,7.189,7.2167,7.2429,7.2445,7.2445,7.2229,7.1998,7.1582,7.1151,7.0628,7.009,6.9612,6.9119,6.9089,6.9304,6.9427,6.955,6.972,6.9874,6.9936,6.9967,6.9628,6.9228,6.9058,6.8904,6.8904,6.8904,6.8935,6.8996,6.8935,6.8935,6.8904,6.8904,6.8904,6.8904,6.8873,6.8873,6.8842,6.8812,6.875,6.8627,6.8274,6.8027,6.7767,6.7274,6.6751,6.6351,6.5965,6.9427,6.9936,6.932,6.9489,7.0028,7.0705,7.1013,7.1075,7.1075,7.1044,7.1013,7.0982,7.0982,7.1013,7.0982,7.089,7.0613,7.0551,7.0521,7.0844,7.0613,7.0582,7.0613,7.0828,7.0336,7.009,6.9951,6.9828,6.9304,6.9304,6.9397,6.9058,6.9212,6.9335,6.9427,6.9397,6.9351,6.9289,6.9105,6.8965,6.8781,6.8842,6.8965,6.8967,6.8778,6.8557,6.8031,6.7536,6.7206,6.6584,6.6526,6.7107,6.6454,6.5624,6.4593,6.3941,6.3408,6.3799,6.4652,6.5516,6.6146,6.731,6.9063,6.9909,7.0524,7.1212,7.209,7.2414,7.266,7.2722,7.2752,7.2629,7.2445,7.2321,7.2044,7.1644,7.1213,7.0659,7.009,6.9735,6.9797,6.9936,7.0028,7.0151,7.0244,7.0613,7.0675,7.0629,7.0428,6.9813,6.9597,6.9366,6.9427,6.9489,6.9212,6.9212,6.9058,6.8996,6.8996,6.9119,6.9243,6.915,6.8965,6.8935,6.8904,6.8904,6.8842,6.8719,6.8658,6.8596,6.8335,6.8105,6.7705,6.7289,6.672,7.0521,7.0644,7.049,7.0521,7.0736,7.1429,7.2013,7.2475,7.2506,7.2167,7.1798,7.1736,7.1736,7.1736,7.1736,7.1552,7.1105,7.1198,7.0952,7.1013,7.1044,7.1198,7.0982,7.1167,7.089,7.0736,7.0613,7.049,7.0244,7.0274,7.0382,7.0367,7.0274,7.0213,7.0213,7.0213,7.0213,7.0151,7.0151,6.9735,6.9212,6.9458,6.9659,6.9589,6.9456,6.9671,6.9197,6.8589,6.8379,6.809,6.8529,6.8363,6.7558,6.6467,6.5365,6.4533,6.4775,6.5167,6.5719,6.6788,6.7873,6.8452,6.9709,7.0594,7.1437,7.227,7.2783,7.2922,7.2999,7.2999,7.2968,7.2814,7.266,7.2598,7.2506,7.2106,7.1736,7.1182,7.0613,7.0521,7.0551,7.0644,7.0705,7.0798,7.0859,7.089,7.0859,7.0859,7.0982,7.0675,7.0736,7.0566,7.0459,7.0336,6.9905,6.9628,6.9581,6.9335,6.9273,6.9397,6.9612,6.9643,6.9581,6.9089,6.8904,6.8965,6.8996,6.8873,6.8842,6.8842,6.8812,6.8489,6.852,6.8212,6.7596,7.1105,7.1398,7.169,7.1444,7.1136,7.1983,7.266,7.2968,7.2999,7.2783,7.2491,7.2445,7.2445,7.2445,7.2445,7.226,7.1783,7.1844,7.1967,7.189,7.1736,7.1906,7.1813,7.1736,7.1613,7.149,7.1013,7.0859,7.1013,7.0859,7.0828,7.0952,7.0952,7.0982,7.0952,7.0921,7.0952,7.0859,7.0952,7.0521,6.9797,7.012,7.0336,7.0249,7.0327,7.048,7.048,6.9923,6.9869,6.9564,6.952,6.8733,6.7878,6.697,6.5942,6.5371,6.5548,6.6353,6.6843,6.8021,6.9556,6.9966,7.0875,7.1968,7.2126,7.2829,7.2891,7.2999,7.2999,7.2999,7.2999,7.2876,7.2876,7.2814,7.2722,7.2506,7.2106,7.1629,7.109,7.0736,7.0952,7.1398,7.1552,7.1875,7.1937,7.2029,7.1875,7.1752,7.1752,7.1582,7.1629,7.1598,7.1383,7.1013,7.049,7.0305,7.0274,6.9967,6.9628,6.9936,7.0274,7.0274,7.0197,6.9704,6.9304,6.9181,6.915,6.9119,6.8935,6.8873,6.8904,6.8842,6.8904,6.8904,6.838,7.1429,7.2044,7.2706,7.226,7.1321,7.2414,7.2999,7.2999,7.2999,7.2999,7.2937,7.2937,7.2999,7.2999,7.2999,7.2999,7.2906,7.2629,7.2814,7.2845,7.2845,7.266,7.2691,7.2814,7.2475,7.2075,7.166,7.1475,7.1444,7.1444,7.1444,7.1198,7.1167,7.1198,7.1167,7.1198,7.1383,7.1444,7.1444,7.1336,7.1136,7.1044,7.1044,7.1044,7.0984,7.103,7.1306,7.1322,7.1271,7.1156,7.0573,6.9788,6.8986,6.8227,6.7198,6.6677,6.71,6.7358,6.7599,6.9291,7.0281,7.1136,7.2296,7.2765,7.2843,7.2968,7.2983,7.2999,7.2999,7.2999,7.2999,7.2999,7.2999,7.2999,7.2906,7.2845,7.246,7.2121,7.1675,7.1198,7.1582,7.2044,7.2321,7.2691,7.2845,7.2968,7.2999,7.2999,7.2876,7.2537,7.2383,7.226,7.2044,7.1598,7.1136,7.1013,7.0982,7.0582,7.0336,7.0675,7.0921,7.0967,7.0782,7.0244,6.9936,6.9813,6.9536,6.9427,6.9243,6.9058,6.8904,6.8935,6.8904,6.8904,6.8904,7.186,7.206,7.2722,7.2506,7.1952,7.266,7.2999,7.2999,7.2999,7.2999,7.2999,7.2999,7.2999,7.2999,7.2999,7.2999,7.2999,7.2999,7.2999,7.2999,7.2999,7.2999,7.2999,7.2999,7.2937,7.2691,7.2475,7.2598,7.2214,7.2352,7.2537,7.2429,7.2491,7.2506,7.2537,7.2491,7.2368,7.2321,7.2352,7.2352,7.2291,7.2106,7.1829,7.1691,7.1484,7.1917,7.2209,7.1817,7.205,7.2237,7.2235,7.1439,7.0705,6.9932,6.9114,6.8558,6.897,6.9022,6.9637,7.052,7.1311,7.1457,7.2249,7.2422,7.2625,7.2983,7.2999,7.2999,7.2999,7.2999,7.2999,7.2999,7.2999,7.2999,7.2937,7.2937,7.2752,7.2691,7.2506,7.2383,7.2475,7.2691,7.2722,7.2906,7.2906,7.2999,7.2999,7.2999,7.2999,7.2999,7.2999,7.2814,7.2598,7.2321,7.1921,7.1767,7.1675,7.1259,7.1044,7.129,7.1521,7.1613,7.1336,7.089,7.0705,7.0613,7.0305,6.9782,6.9659,6.9489,6.9089,6.8935,6.8935,6.8904,6.8904]},{"header":{"parameterUnit":"m.s-1","parameterCategory":1,"la1":31.0,"la2":29.5877,"lo1":-88.7671,"lo2":-86.6584,"dy":0.0162,"dx":0.0185,"nx":115,"ny":88,"refTime":"2026-03-27T00:00:00:Z","depth":0,"parameterNumber":3,"parameterNumberName":"V-component_of_WINDS"},"data":[0.0,0.0,0.0,0.0,0.0,0.0,0.0,0.0,0.0,0.0,0.0,0.0,0.0,0.0,0.0,0.0,0.0,0.0,0.0,0.0,0.0,0.0,0.0,0.0,0.0,0.0,0.0,0.0,0.0,0.0,0.0,0.0,0.0,0.0,0.0,0.0,0.0,0.0,0.0,0.0,0.0,0.0,0.0,0.0,0.0,0.0,0.0,0.0,0.0,0.0,0.0,0.0,0.0,0.0,0.0,0.0,0.0,0.0,0.0,0.0,0.0,0.0,0.0,0.0,0.0,0.0,0.0,0.0,0.0,0.0,0.0,0.0,0.0,0.0,0.0,0.0,0.0,0.0,0.0,0.0,0.0,0.0,0.0,0.0,0.0,0.0,0.0,0.0,0.0,0.0,0.0,0.0,0.0,0.0,0.0,0.0,0.0,0.0,0.0,0.0,0.0,0.0,0.0,0.0,0.0,0.0,0.0,0.0,0.0,0.0,0.0,0.0,0.0,0.0,0.0,0.0,0.0,0.0,0.0,0.0,0.0,0.0,0.0,0.0,0.0,0.0,0.0,0.0,0.0,0.0,0.0,0.0,0.0,0.0,0.0,0.0,0.0,0.0,0.0,0.0,0.0,0.0,0.0,0.0,0.0,0.0,0.0,0.0,0.0,0.0,0.0,0.0,0.0,0.0,0.0,0.0,0.0,0.0,0.0,0.0,0.0,0.0,0.0,0.0,0.0,0.0,0.0,0.0,0.0,0.0,0.0,0.0,0.0,0.0,0.0,0.0,0.0,0.0,0.0,0.0,0.0,0.0,0.0,0.0,0.0,0.0,0.0,0.0,0.0,0.0,0.0,0.0,0.0,0.0,0.0,0.0,0.0,0.0,0.0,0.0,0.0,0.0,0.0,0.0,0.0,0.0,0.0,0.0,0.0,0.0,0.0,0.0,0.0,0.0,0.0,0.0,0.0,0.0,0.0,0.0,0.0,0.0,0.0,0.0,0.0,0.0,0.0,0.0,0.0,0.0,0.0,0.0,0.0,0.0,0.0,0.0,0.0,0.0,0.0,0.0,0.0,0.0,0.0,0.0,0.0,0.0,0.0,0.0,0.0,0.0,0.0,0.0,0.0,0.0,0.0,0.0,0.0,0.0,0.0,0.0,0.0,0.0,0.0,0.0,0.0,0.0,0.0,0.0,0.0,0.0,0.0,0.0,0.0,0.0,0.0,0.0,0.0,0.0,0.0,0.0,0.0,0.0,0.0,0.0,0.0,0.0,0.0,0.0,0.0,0.0,0.0,0.0,0.0,0.0,0.0,0.0,0.0,0.0,0.0,0.0,0.0,0.0,0.0,0.0,0.0,0.0,0.0,0.0,0.0,0.0,0.0,0.0,0.0,0.0,0.0,0.0,0.0,0.0,0.0,0.0,0.0,0.0,0.0,0.0,0.0,0.0,0.0,0.0,0.0,0.0,0.0,0.0,0.0,0.0,0.0,0.0,0.0,0.0,0.0,0.0,0.0,0.0,0.0,0.0,0.0,0.0,0.0,0.0,0.0,0.0,0.0,0.0,0.0,0.0,0.0,0.0,0.0,0.0,0.0,0.0,0.0,0.0,0.0,0.0,0.0,0.0,0.0,0.0,0.0,0.0,0.0,0.0,0.0,0.0,0.0,0.0,0.0,0.0,0.0,0.0,0.0,0.0,0.0,0.0,0.0,0.0,0.0,0.0,0.0,0.0,0.0,0.0,0.0,0.0,0.0,0.0,0.0,0.0,0.0,0.0,0.0,0.0,0.0,0.0,0.0,0.0,0.0,0.0,0.0,0.0,0.0,0.0,0.0,0.0,0.0,0.0,0.0,0.0,0.0,0.0,0.0,0.0,0.0,0.0,0.0,0.0,0.0,0.0,0.0,0.0,0.0,0.0,0.0,0.0,0.0,0.0,0.0,0.0,0.0,0.0,0.0,0.0,0.0,0.0,0.0,0.0,0.0,0.0,0.0,0.0,0.0,0.0,0.0,0.0,0.0,0.0,0.0,0.0,0.0,0.0,0.0,0.0,0.0,0.0,0.0,0.0,0.0,0.0,0.0,0.0,0.0,0.0,0.0,0.0,0.0,0.0,0.0,0.0,0.0,0.0,0.0,0.0,0.0,0.0,0.0,0.0,0.0,0.0,0.0,0.0,0.0,0.0,0.0,0.0,0.0,0.0,0.0,0.0,0.0,0.0,0.0,0.0,0.0,0.0,0.0,0.0,0.0,0.0,0.0,0.0,0.0,0.0,0.0,0.0,0.0,0.0,0.0,0.0,0.0,0.0,0.0,0.0,0.0,0.0,0.0,0.0,0.0,0.0,0.0,0.0,0.0,0.0,0.0,0.0,0.0,0.0,0.0,0.0,0.0,0.0,0.0,0.0,0.0,0.0,0.0,0.0,0.0,0.0,0.0,0.0,0.0,0.0,0.0,0.0,0.0,0.0,0.0,0.0,0.0,0.0,0.0,0.0,0.0,0.0,0.0,0.0,0.0,0.0,0.0,0.0,0.0,0.0,0.0,0.0,0.0,0.0,0.0,0.0,0.0,0.0,0.0,0.0,0.0,0.0,0.0,0.0,0.0,0.0,0.0,0.0,0.0,0.0,0.0,0.0,0.0,0.0,0.0,0.0,0.0,0.0,0.0,0.0,0.0,0.0,0.0,0.0,0.0,0.0,0.0,0.0,0.0,0.0,0.0,0.0,0.0,0.0,0.0,0.0,0.0,0.0,0.0,0.0,0.0,0.0,0.0,0.0,0.0,0.0,0.0,0.0,0.0,0.0,0.0,0.0,0.0,0.0,0.0,0.0,0.0,0.0,0.0,0.0,0.0,0.0,0.0,0.0,0.0,0.0,0.0,0.0,0.0,0.0,0.0,0.0,0.0,0.0,0.0,0.0,0.0,0.0,0.0,0.0,0.0,0.0,0.0,0.0,0.0,0.0,0.0,0.0,0.0,0.0,0.0,0.0,0.0,0.0,0.0,0.0,0.0,0.0,0.0,0.0,0.0,0.0,0.0,0.0,0.0,0.0,0.0,0.0,0.0,0.0,0.0,0.0,0.0,0.0,0.0,0.0,0.0,0.0,0.0,0.0,0.0,0.0,0.0,0.0,0.0,0.0,0.0,0.0,0.0,0.0,0.0,0.0,0.0,0.0,0.0,0.0,0.0,0.0,0.0,0.0,0.0,0.0,0.0,0.0,0.0,0.0,0.0,0.0,0.0,0.0,0.0,0.0,0.0,0.0,0.0,0.0,0.0,0.0,0.0,0.0,0.0,0.0,0.0,0.0,0.0,0.0,0.0,0.0,0.0,0.0,0.0,0.0,0.0,0.0,0.0,0.0,0.0,0.0,0.0,0.0,0.0,0.0,0.0,0.0,0.0,0.0,0.0,0.0,0.0,0.0,0.0,0.0,0.0,0.0,0.0,0.0,0.0,0.0,0.0,0.0,0.0,0.0,0.0,0.0,0.0,0.0,0.0,0.0,0.0,0.0,0.0,0.0,0.0,0.0,0.0,0.0,0.0,0.0,0.0,0.0,0.0,0.0,0.0,0.0,0.0,0.0,0.0,0.0,0.0,0.0,0.0,0.0,0.0,0.0,0.0,0.0,0.0,0.0,0.0,0.0,0.0,0.0,0.0,0.0,0.0,0.0,0.0,0.0,0.0,0.0,0.0,0.0,0.0,0.0,0.0,0.0,0.0,0.0,0.0,0.0,0.0,0.0,0.0,0.0,0.0,0.0,0.0,0.0,0.0,0.0,0.0,0.0,0.0,0.0,0.0,0.0,0.0,0.0,0.0,0.0,0.0,0.0,0.0,0.0,0.0,0.0,0.0,0.0,0.0,0.0,0.0,0.0,0.0,0.0,0.0,0.0,0.0,0.0,0.0,0.0,0.0,0.0,0.0,0.0,0.0,0.0,0.0,0.0,0.0,0.0,0.0,0.0,0.0,0.0,0.0,0.0,0.0,0.0,0.0,0.0,0.0,0.0,0.0,0.0,0.0,0.0,0.0,0.0,0.0,0.0,0.0,0.0,0.0,0.0,0.0,0.0,0.0,0.0,0.0,0.0,0.0,0.0,0.0,0.0,0.0,0.0,0.0,0.0,0.0,0.0,0.0,0.0,0.0,0.0,0.0,0.0,0.0,0.0,0.0,0.0,0.0,0.0,0.0,0.0,0.0,0.0,0.0,0.0,0.0,0.0,0.0,0.0,0.0,0.0,0.0,0.0,0.0,0.0,0.0,0.0,0.0,0.0,0.0,0.0,2.7734,0.0,0.0,0.0,0.0,0.0,0.0,0.0,0.0,0.0,0.0,0.0,0.0,0.0,0.0,0.0,0.0,0.0,0.0,0.0,0.0,0.0,0.0,0.0,0.0,0.0,0.0,0.0,0.0,0.0,0.0,0.0,0.0,0.0,0.0,0.0,0.0,0.0,0.0,0.0,0.0,0.0,0.0,0.0,0.0,0.0,0.0,0.0,0.0,0.0,0.0,0.0,0.0,0.0,0.0,0.0,0.0,0.0,0.0,0.0,0.0,0.0,0.0,0.0,0.0,0.0,0.0,0.0,0.0,0.0,0.0,0.0,0.0,0.0,0.0,0.0,0.0,0.0,0.0,0.0,0.0,0.0,0.0,0.0,0.0,0.0,0.0,0.0,0.0,0.0,0.0,0.0,0.0,0.0,0.0,0.0,0.0,0.0,0.0,0.0,0.0,0.0,0.0,0.0,0.0,0.0,0.0,0.0,0.0,0.0,0.0,2.8788,2.8972,2.8385,2.7871,2.7463,0.0,0.0,0.0,0.0,0.0,0.0,0.0,0.0,0.0,0.0,0.0,0.0,0.0,0.0,0.0,0.0,0.0,0.0,0.0,0.0,0.0,0.0,0.0,0.0,0.0,0.0,0.0,0.0,0.0,0.0,0.0,0.0,0.0,0.0,0.0,0.0,0.0,0.0,0.0,0.0,0.0,0.0,0.0,0.0,0.0,0.0,0.0,0.0,0.0,0.0,0.0,0.0,0.0,0.0,0.0,0.0,0.0,0.0,0.0,0.0,0.0,0.0,0.0,0.0,0.0,0.0,0.0,0.0,0.0,0.0,0.0,0.0,0.0,0.0,0.0,0.0,0.0,0.0,0.0,0.0,0.0,0.0,0.0,0.0,0.0,0.0,0.0,0.0,0.0,0.0,0.0,0.0,0.0,0.0,0.0,0.0,0.0,0.0,0.0,0.0,0.0,0.0,0.0,0.0,0.0,0.0,0.0,0.0,0.0,0.0,0.0,0.0,2.8385,2.7757,2.7077,0.0,0.0,0.0,0.0,0.0,0.0,0.0,0.0,0.0,0.0,0.0,0.0,0.0,0.0,0.0,0.0,0.0,0.0,0.0,0.0,0.0,0.0,0.0,0.0,0.0,0.0,0.0,0.0,0.0,0.0,0.0,0.0,0.0,0.0,0.0,0.0,0.0,0.0,0.0,0.0,0.0,0.0,0.0,0.0,0.0,0.0,0.0,0.0,0.0,0.0,0.0,0.0,0.0,0.0,0.0,0.0,0.0,0.0,0.0,0.0,0.0,0.0,0.0,0.0,0.0,0.0,0.0,0.0,0.0,0.0,0.0,0.0,0.0,0.0,0.0,0.0,0.0,0.0,0.0,0.0,0.0,0.0,0.0,0.0,0.0,0.0,0.0,0.0,0.0,0.0,0.0,0.0,0.0,0.0,0.0,0.0,0.0,0.0,0.0,0.0,0.0,0.0,0.0,0.0,0.0,0.0,0.0,0.0,0.0,0.0,2.8586,2.899,2.8917,0.0,2.6765,0.0,0.0,0.0,0.0,0.0,0.0,0.0,0.0,0.0,0.0,0.0,0.0,0.0,0.0,0.0,0.0,0.0,0.0,0.0,0.0,0.0,0.0,0.0,0.0,0.0,0.0,0.0,0.0,0.0,0.0,0.0,0.0,0.0,0.0,0.0,0.0,0.0,0.0,0.0,0.0,0.0,0.0,0.0,0.0,0.0,0.0,0.0,0.0,0.0,0.0,0.0,0.0,0.0,0.0,0.0,0.0,0.0,0.0,0.0,0.0,0.0,0.0,0.0,0.0,0.0,0.0,0.0,0.0,0.0,0.0,0.0,0.0,0.0,0.0,0.0,0.0,0.0,0.0,0.0,0.0,0.0,0.0,0.0,0.0,0.0,0.0,0.0,0.0,0.0,0.0,0.0,0.0,0.0,0.0,0.0,0.0,0.0,0.0,0.0,0.0,0.0,0.0,0.0,0.0,0.0,0.0,0.0,0.0,0.0,0.0,0.0,2.899,2.8058,2.7155,0.0,0.0,0.0,0.0,0.0,0.0,0.0,0.0,0.0,0.0,0.0,0.0,0.0,0.0,0.0,0.0,0.0,0.0,0.0,0.0,0.0,0.0,0.0,0.0,0.0,0.0,0.0,0.0,0.0,0.0,0.0,0.0,0.0,0.0,0.0,0.0,0.0,0.0,0.0,0.0,0.0,0.0,0.0,0.0,0.0,0.0,0.0,0.0,0.0,0.0,0.0,0.0,0.0,0.0,0.0,0.0,0.0,0.0,0.0,0.0,0.0,0.0,0.0,0.0,0.0,0.0,0.0,0.0,0.0,0.0,0.0,0.0,0.0,0.0,0.0,0.0,0.0,0.0,0.0,0.0,0.0,0.0,0.0,0.0,0.0,0.0,0.0,0.0,0.0,0.0,0.0,0.0,0.0,0.0,0.0,0.0,0.0,0.0,0.0,0.0,0.0,0.0,0.0,0.0,0.0,0.0,0.0,0.0,0.0,0.0,2.8238,0.0,2.8586,2.7651,2.6696,2.5874,0.0,0.0,0.0,0.0,0.0,0.0,0.0,0.0,0.0,0.0,0.0,0.0,0.0,0.0,0.0,0.0,0.0,0.0,0.0,0.0,0.0,0.0,0.0,0.0,0.0,0.0,0.0,0.0,0.0,0.0,0.0,0.0,0.0,0.0,0.0,0.0,0.0,0.0,0.0,0.0,0.0,0.0,0.0,0.0,0.0,0.0,0.0,0.0,0.0,0.0,0.0,0.0,0.0,0.0,0.0,0.0,0.0,0.0,0.0,0.0,0.0,0.0,0.0,0.0,0.0,0.0,0.0,0.0,0.0,0.0,0.0,0.0,0.0,0.0,0.0,0.0,0.0,0.0,0.0,0.0,0.0,0.0,0.0,0.0,0.0,0.0,0.0,0.0,0.0,0.0,0.0,0.0,0.0,0.0,0.0,0.0,0.0,0.0,0.0,0.0,0.0,0.0,0.0,0.0,0.0,0.0,0.0,0.0,0.0,2.783,2.783,2.7885,2.816,2.7412,0.0,0.0,0.0,0.0,0.0,0.0,0.0,0.0,0.0,0.0,0.0,0.0,0.0,0.0,0.0,0.0,0.0,0.0,0.0,0.0,0.0,0.0,0.0,0.0,0.0,0.0,0.0,0.0,0.0,0.0,0.0,0.0,0.0,0.0,0.0,0.0,0.0,0.0,0.0,0.0,0.0,0.0,0.0,0.0,0.0,0.0,0.0,0.0,0.0,0.0,0.0,0.0,0.0,0.0,0.0,0.0,0.0,0.0,0.0,0.0,0.0,0.0,0.0,0.0,0.0,0.0,0.0,0.0,0.0,0.0,0.0,0.0,0.0,0.0,0.0,0.0,0.0,0.0,0.0,0.0,0.0,0.0,0.0,0.0,0.0,0.0,0.0,0.0,0.0,0.0,0.0,0.0,0.0,0.0,0.0,0.0,0.0,0.0,0.0,0.0,0.0,0.0,0.0,0.0,0.0,0.0,0.0,0.0,0.0,2.7394,2.7665,2.7936,2.8132,2.7334,2.6508,0.0,0.0,0.0,0.0,0.0,0.0,0.0,0.0,0.0,0.0,0.0,0.0,0.0,0.0,0.0,0.0,0.0,0.0,0.0,0.0,0.0,0.0,0.0,0.0,0.0,0.0,0.0,0.0,0.0,0.0,0.0,0.0,0.0,0.0,0.0,0.0,0.0,0.0,0.0,0.0,0.0,0.0,0.0,0.0,0.0,0.0,0.0,0.0,0.0,0.0,0.0,0.0,0.0,0.0,0.0,0.0,0.0,0.0,0.0,0.0,0.0,0.0,0.0,0.0,0.0,0.0,0.0,0.0,0.0,0.0,0.0,0.0,0.0,0.0,0.0,0.0,0.0,0.0,0.0,0.0,0.0,0.0,0.0,0.0,0.0,0.0,0.0,0.0,0.0,0.0,0.0,0.0,0.0,0.0,0.0,0.0,0.0,0.0,0.0,0.0,0.0,0.0,0.0,0.0,0.0,0.0,0.0,0.0,0.0,2.7206,0.0,2.8014,0.0,2.6953,2.6154,0.0,0.0,0.0,0.0,0.0,0.0,0.0,0.0,0.0,0.0,0.0,0.0,0.0,0.0,0.0,0.0,0.0,0.0,0.0,0.0,0.0,0.0,0.0,0.0,0.0,0.0,0.0,0.0,0.0,0.0,0.0,0.0,0.0,0.0,0.0,0.0,0.0,0.0,0.0,0.0,0.0,0.0,0.0,0.0,0.0,0.0,0.0,0.0,0.0,0.0,0.0,0.0,0.0,0.0,0.0,0.0,0.0,0.0,0.0,0.0,0.0,0.0,0.0,0.0,0.0,0.0,0.0,0.0,0.0,0.0,0.0,0.0,0.0,0.0,0.0,0.0,0.0,0.0,0.0,0.0,0.0,0.0,0.0,0.0,0.0,0.0,0.0,0.0,0.0,0.0,0.0,0.0,0.0,0.0,0.0,0.0,0.0,0.0,0.0,0.0,0.0,0.0,0.0,0.0,0.0,0.0,0.0,0.0,0.0,2.7174,2.7948,2.8018,2.7279,2.7174,2.6435,0.0,0.0,0.0,0.0,0.0,0.0,0.0,0.0,0.0,0.0,0.0,0.0,0.0,0.0,0.0,0.0,0.0,0.0,0.0,0.0,0.0,0.0,0.0,0.0,0.0,0.0,0.0,0.0,0.0,0.0,0.0,0.0,0.0,0.0,0.0,0.0,0.0,0.0,0.0,0.0,0.0,0.0,0.0,0.0,0.0,0.0,0.0,0.0,0.0,0.0,0.0,0.0,0.0,0.0,0.0,0.0,0.0,0.0,0.0,0.0,0.0,0.0,0.0,0.0,0.0,0.0,0.0,0.0,0.0,0.0,0.0,0.0,0.0,0.0,0.0,0.0,0.0,0.0,0.0,0.0,0.0,0.0,0.0,0.0,0.0,0.0,0.0,0.0,0.0,0.0,0.0,0.0,0.0,0.0,0.0,0.0,0.0,0.0,0.0,0.0,0.0,0.0,0.0,0.0,0.0,0.0,0.0,0.0,0.0,2.6807,2.7573,2.8142,2.8366,2.7096,2.627,0.0,0.0,0.0,0.0,0.0,0.0,0.0,0.0,0.0,0.0,0.0,0.0,0.0,0.0,0.0,0.0,0.0,0.0,0.0,0.0,0.0,0.0,0.0,0.0,0.0,0.0,0.0,0.0,0.0,0.0,0.0,0.0,0.0,0.0,0.0,0.0,0.0,0.0,0.0,0.0,0.0,0.0,0.0,0.0,0.0,0.0,0.0,0.0,0.0,0.0,0.0,0.0,0.0,0.0,0.0,0.0,0.0,0.0,0.0,0.0,0.0,0.0,0.0,0.0,0.0,0.0,0.0,0.0,0.0,0.0,0.0,0.0,0.0,0.0,0.0,0.0,0.0,0.0,0.0,0.0,0.0,0.0,0.0,0.0,0.0,0.0,0.0,0.0,0.0,0.0,0.0,0.0,0.0,0.0,0.0,0.0,0.0,0.0,0.0,0.0,0.0,0.0,0.0,0.0,0.0,0.0,0.0,0.0,0.0,2.7288,2.8069,2.8638,2.899,2.7334,2.643,2.6343,0.0,0.0,0.0,0.0,0.0,0.0,0.0,0.0,0.0,0.0,0.0,0.0,0.0,0.0,0.0,0.0,0.0,0.0,0.0,0.0,0.0,0.0,0.0,0.0,0.0,0.0,0.0,0.0,0.0,0.0,0.0,0.0,0.0,0.0,0.0,0.0,0.0,0.0,0.0,0.0,0.0,0.0,0.0,0.0,0.0,0.0,0.0,0.0,0.0,0.0,0.0,0.0,0.0,0.0,0.0,0.0,0.0,0.0,0.0,0.0,0.0,0.0,0.0,0.0,0.0,0.0,0.0,0.0,0.0,0.0,0.0,0.0,0.0,0.0,0.0,0.0,0.0,0.0,0.0,0.0,0.0,0.0,0.0,0.0,0.0,0.0,0.0,0.0,0.0,0.0,0.0,0.0,0.0,0.0,0.0,0.0,0.0,0.0,0.0,0.0,0.0,0.0,0.0,0.0,0.0,0.0,0.0,0.0,2.8495,2.9299,2.9537,2.9155,2.7926,2.6894,0.0,0.0,0.0,0.0,0.0,0.0,0.0,0.0,0.0,0.0,0.0,0.0,0.0,0.0,0.0,0.0,0.0,0.0,0.0,0.0,0.0,0.0,0.0,0.0,0.0,0.0,0.0,0.0,0.0,0.0,0.0,0.0,0.0,0.0,0.0,0.0,0.0,0.0,0.0,0.0,0.0,0.0,0.0,0.0,0.0,0.0,0.0,0.0,0.0,0.0,0.0,0.0,0.0,0.0,0.0,0.0,0.0,0.0,0.0,0.0,0.0,0.0,0.0,0.0,0.0,0.0,0.0,0.0,0.0,0.0,0.0,0.0,0.0,0.0,0.0,0.0,0.0,0.0,0.0,0.0,0.0,0.0,0.0,0.0,0.0,0.0,0.0,0.0,0.0,0.0,0.0,0.0,0.0,0.0,0.0,0.0,0.0,0.0,0.0,0.0,0.0,0.0,0.0,0.0,0.0,0.0,0.0,0.0,0.0,2.9672,3.0513,3.0877,3.0733,2.9012,2.7938,0.0,0.0,0.0,0.0,0.0,0.0,0.0,0.0,0.0,0.0,0.0,0.0,0.0,0.0,0.0,0.0,0.0,0.0,0.0,0.0,0.0,0.0,0.0,0.0,0.0,0.0,0.0,0.0,0.0,0.0,0.0,0.0,0.0,0.0,0.0,0.0,0.0,0.0,0.0,0.0,0.0,0.0,0.0,0.0,0.0,0.0,0.0,0.0,0.0,0.0,0.0,0.0,0.0,0.0,0.0,0.0,0.0,0.0,0.0,0.0,0.0,0.0,0.0,0.0,0.0,0.0,0.0,0.0,0.0,0.0,0.0,0.0,0.0,0.0,0.0,0.0,0.0,0.0,0.0,0.0,0.0,0.0,0.0,0.0,0.0,0.0,0.0,0.0,0.0,0.0,0.0,0.0,0.0,0.0,0.0,0.0,0.0,0.0,0.0,0.0,0.0,0.0,0.0,0.0,0.0,0.0,0.0,0.0,2.859,3.0406,3.1231,3.1726,3.1907,2.9944,2.8549,0.0,0.0,0.0,0.0,0.0,0.0,0.0,0.0,0.0,0.0,0.0,0.0,0.0,0.0,0.0,0.0,0.0,0.0,0.0,0.0,0.0,0.0,0.0,0.0,0.0,0.0,0.0,0.0,0.0,0.0,0.0,0.0,0.0,0.0,0.0,0.0,0.0,0.0,0.0,0.0,0.0,0.0,0.0,0.0,0.0,0.0,0.0,0.0,0.0,0.0,0.0,0.0,0.0,0.0,0.0,0.0,0.0,0.0,0.0,0.0,0.0,0.0,0.0,0.0,0.0,0.0,0.0,0.0,0.0,0.0,0.0,0.0,0.0,0.0,0.0,0.0,0.0,0.0,0.0,0.0,0.0,0.0,0.0,0.0,0.0,0.0,0.0,0.0,0.0,0.0,0.0,0.0,0.0,0.0,0.0,0.0,0.0,0.0,0.0,0.0,0.0,0.0,0.0,0.0,0.0,0.0,0.0,0.0,2.921,3.0809,3.1616,3.2166,3.2476,3.0691,2.8972,0.0,0.0,0.0,0.0,0.0,0.0,0.0,0.0,0.0,0.0,0.0,0.0,0.0,0.0,0.0,0.0,0.0,0.0,0.0,0.0,0.0,0.0,0.0,0.0,0.0,0.0,0.0,0.0,0.0,0.0,0.0,0.0,0.0,0.0,0.0,0.0,0.0,0.0,0.0,0.0,0.0,0.0,0.0,0.0,0.0,0.0,0.0,0.0,0.0,0.0,0.0,0.0,0.0,0.0,0.0,0.0,0.0,0.0,0.0,0.0,0.0,0.0,0.0,0.0,0.0,0.0,0.0,0.0,0.0,0.0,0.0,0.0,0.0,0.0,0.0,0.0,0.0,0.0,0.0,0.0,0.0,0.0,0.0,0.0,0.0,0.0,0.0,0.0,0.0,0.0,0.0,0.0,0.0,0.0,0.0,0.0,0.0,0.0,0.0,0.0,0.0,0.0,0.0,0.0,0.0,0.0,0.0,0.0,2.9339,3.121,3.1744,3.2056,3.2111,3.1043,2.98,0.0,0.0,0.0,0.0,0.0,0.0,0.0,0.0,0.0,0.0,0.0,0.0,0.0,0.0,0.0,0.0,0.0,0.0,0.0,0.0,0.0,0.0,0.0,0.0,0.0,0.0,0.0,0.0,0.0,0.0,0.0,0.0,0.0,0.0,0.0,0.0,0.0,0.0,0.0,0.0,0.0,0.0,0.0,0.0,0.0,0.0,0.0,0.0,3.718,0.0,0.0,0.0,0.0,0.0,0.0,0.0,0.0,0.0,0.0,0.0,0.0,0.0,0.0,0.0,0.0,0.0,0.0,0.0,0.0,0.0,0.0,0.0,0.0,0.0,0.0,0.0,0.0,0.0,0.0,0.0,0.0,0.0,0.0,0.0,0.0,0.0,0.0,0.0,0.0,0.0,0.0,0.0,0.0,0.0,0.0,0.0,0.0,0.0,0.0,0.0,0.0,0.0,0.0,0.0,0.0,0.0,0.0,0.0,2.9761,3.1339,3.1598,3.1799,3.1981,3.1344,3.0166,0.0,0.0,0.0,0.0,0.0,0.0,0.0,0.0,0.0,0.0,0.0,0.0,0.0,0.0,0.0,0.0,0.0,0.0,0.0,0.0,0.0,0.0,0.0,0.0,0.0,0.0,0.0,0.0,0.0,0.0,0.0,0.0,0.0,0.0,0.0,0.0,0.0,0.0,0.0,0.0,0.0,0.0,0.0,0.0,0.0,0.0,0.0,0.0,0.0,0.0,0.0,0.0,0.0,0.0,0.0,0.0,0.0,0.0,0.0,0.0,0.0,0.0,0.0,0.0,0.0,0.0,0.0,0.0,0.0,0.0,0.0,0.0,0.0,0.0,0.0,0.0,0.0,0.0,0.0,0.0,0.0,0.0,0.0,0.0,0.0,0.0,0.0,0.0,0.0,0.0,0.0,0.0,0.0,0.0,0.0,0.0,0.0,0.0,0.0,0.0,0.0,0.0,0.0,0.0,0.0,0.0,0.0,2.8766,3.007,3.1336,3.141,3.1559,3.1891,3.1506,3.0334,0.0,0.0,0.0,0.0,0.0,0.0,0.0,0.0,0.0,0.0,0.0,0.0,0.0,0.0,0.0,0.0,0.0,0.0,0.0,0.0,0.0,0.0,0.0,0.0,0.0,0.0,0.0,0.0,0.0,0.0,0.0,0.0,0.0,0.0,0.0,0.0,0.0,0.0,0.0,3.4571,3.5856,0.0,0.0,0.0,0.0,0.0,0.0,0.0,0.0,3.7589,0.0,0.0,0.0,0.0,0.0,0.0,0.0,0.0,0.0,0.0,0.0,0.0,0.0,0.0,0.0,0.0,0.0,0.0,0.0,0.0,0.0,0.0,0.0,0.0,0.0,0.0,0.0,0.0,0.0,0.0,0.0,0.0,0.0,0.0,0.0,0.0,0.0,0.0,0.0,0.0,0.0,0.0,0.0,0.0,0.0,0.0,0.0,0.0,0.0,0.0,0.0,0.0,0.0,0.0,0.0,0.0,2.8674,2.8641,2.9489,3.1339,3.141,3.143,3.1501,3.1267,3.0321,2.8644,0.0,0.0,0.0,0.0,0.0,0.0,0.0,0.0,0.0,0.0,0.0,0.0,0.0,0.0,0.0,0.0,0.0,0.0,0.0,0.0,0.0,0.0,0.0,0.0,0.0,0.0,0.0,0.0,0.0,0.0,0.0,0.0,0.0,0.0,0.0,0.0,0.0,0.0,0.0,3.7974,3.8644,0.0,0.0,0.0,0.0,0.0,0.0,0.0,0.0,3.7709,0.0,0.0,0.0,0.0,0.0,0.0,0.0,0.0,0.0,0.0,0.0,0.0,0.0,0.0,0.0,0.0,0.0,0.0,0.0,0.0,0.0,0.0,0.0,0.0,0.0,0.0,0.0,0.0,0.0,0.0,0.0,0.0,0.0,0.0,0.0,0.0,0.0,0.0,0.0,0.0,0.0,0.0,0.0,0.0,0.0,0.0,0.0,0.0,0.0,0.0,0.0,0.0,0.0,0.0,0.0,2.8307,2.9008,3.0002,3.1355,3.141,3.141,3.1391,3.0841,2.993,0.0,0.0,0.0,0.0,0.0,0.0,0.0,0.0,0.0,0.0,0.0,0.0,0.0,0.0,0.0,0.0,0.0,0.0,0.0,0.0,0.0,0.0,0.0,0.0,0.0,0.0,0.0,0.0,0.0,0.0,0.0,0.0,0.0,0.0,0.0,0.0,0.0,0.0,0.0,0.0,3.8228,3.8767,3.986,0.0,0.0,0.0,0.0,0.0,0.0,3.7709,3.7469,0.0,0.0,0.0,0.0,0.0,0.0,0.0,0.0,0.0,0.0,0.0,0.0,0.0,0.0,0.0,0.0,0.0,0.0,0.0,0.0,0.0,0.0,0.0,0.0,0.0,0.0,0.0,0.0,0.0,0.0,0.0,0.0,0.0,0.0,0.0,0.0,0.0,0.0,0.0,0.0,0.0,0.0,0.0,0.0,0.0,0.0,0.0,0.0,0.0,0.0,0.0,0.0,0.0,0.0,0.0,2.7793,2.9229,3.0424,3.1355,3.141,3.141,3.1391,3.0513,2.9561,0.0,0.0,0.0,0.0,0.0,0.0,0.0,0.0,0.0,0.0,0.0,0.0,0.0,0.0,0.0,0.0,0.0,0.0,0.0,0.0,0.0,0.0,0.0,0.0,0.0,0.0,0.0,0.0,0.0,0.0,0.0,0.0,0.0,0.0,0.0,0.0,0.0,0.0,0.0,0.0,0.0,3.9166,4.0104,3.9238,0.0,0.0,0.0,0.0,3.8252,3.8228,0.0,0.0,0.0,0.0,0.0,0.0,0.0,0.0,0.0,0.0,0.0,0.0,0.0,0.0,0.0,0.0,0.0,0.0,0.0,0.0,0.0,0.0,0.0,0.0,0.0,0.0,0.0,0.0,0.0,0.0,0.0,0.0,0.0,0.0,0.0,0.0,0.0,0.0,0.0,0.0,0.0,0.0,0.0,0.0,0.0,0.0,0.0,0.0,0.0,0.0,0.0,0.0,0.0,0.0,0.0,0.0,2.7771,2.8693,2.9886,3.1318,3.141,3.141,3.1391,3.0547,2.9624,0.0,0.0,0.0,0.0,0.0,0.0,0.0,0.0,0.0,0.0,0.0,0.0,0.0,0.0,0.0,0.0,0.0,0.0,0.0,0.0,0.0,0.0,0.0,0.0,0.0,0.0,0.0,0.0,0.0,0.0,0.0,0.0,0.0,0.0,0.0,0.0,0.0,0.0,0.0,0.0,0.0,4.109,3.986,3.996,3.9777,0.0,0.0,3.9345,3.9417,4.0561,0.0,0.0,0.0,0.0,0.0,0.0,0.0,0.0,0.0,0.0,0.0,0.0,0.0,0.0,0.0,0.0,0.0,0.0,0.0,0.0,0.0,0.0,0.0,0.0,0.0,0.0,0.0,0.0,0.0,0.0,0.0,0.0,0.0,0.0,0.0,0.0,0.0,0.0,0.0,0.0,0.0,0.0,0.0,0.0,0.0,0.0,0.0,0.0,0.0,0.0,0.0,0.0,0.0,0.0,0.0,2.6655,2.7807,2.9045,3.0128,3.1027,3.13,3.13,3.1063,3.0109,2.9283,0.0,0.0,0.0,0.0,0.0,0.0,0.0,0.0,0.0,0.0,0.0,0.0,0.0,0.0,0.0,0.0,0.0,0.0,0.0,0.0,0.0,0.0,0.0,0.0,0.0,0.0,0.0,0.0,0.0,0.0,0.0,0.0,0.0,0.0,0.0,0.0,0.0,0.0,0.0,0.0,0.0,0.0,4.0513,4.0691,0.0,0.0,0.0,4.0028,4.0042,0.0,0.0,0.0,0.0,0.0,0.0,0.0,0.0,0.0,0.0,0.0,0.0,0.0,0.0,0.0,0.0,0.0,0.0,0.0,0.0,0.0,0.0,0.0,0.0,0.0,0.0,0.0,0.0,0.0,0.0,0.0,0.0,0.0,0.0,0.0,0.0,0.0,0.0,0.0,0.0,0.0,0.0,0.0,0.0,0.0,0.0,0.0,0.0,0.0,0.0,0.0,0.0,0.0,0.0,0.0,0.0,0.0,2.7812,2.9394,3.0387,3.0772,3.1192,3.121,3.0788,2.9912,0.0,0.0,0.0,0.0,0.0,0.0,0.0,0.0,0.0,0.0,0.0,0.0,0.0,0.0,0.0,0.0,0.0,0.0,0.0,0.0,0.0,0.0,0.0,0.0,0.0,0.0,0.0,0.0,0.0,0.0,0.0,0.0,0.0,0.0,0.0,0.0,0.0,0.0,0.0,0.0,0.0,0.0,4.0234,4.0922,4.1451,4.1803,0.0,0.0,4.0802,4.0802,4.1581,4.1268,0.0,0.0,0.0,0.0,0.0,0.0,0.0,0.0,0.0,0.0,0.0,0.0,0.0,0.0,0.0,0.0,0.0,0.0,0.0,0.0,0.0,0.0,0.0,0.0,0.0,0.0,0.0,0.0,0.0,0.0,0.0,0.0,0.0,0.0,0.0,0.0,0.0,0.0,0.0,0.0,0.0,0.0,0.0,0.0,0.0,0.0,0.0,0.0,0.0,0.0,0.0,0.0,0.0,0.0,0.0,2.7812,2.9394,3.0387,3.0806,3.1208,3.121,3.0806,3.0318,2.9579,0.0,0.0,0.0,0.0,0.0,0.0,0.0,0.0,0.0,0.0,0.0,0.0,0.0,0.0,0.0,0.0,0.0,0.0,0.0,0.0,0.0,0.0,0.0,0.0,0.0,0.0,0.0,0.0,0.0,0.0,0.0,0.0,0.0,0.0,0.0,0.0,0.0,0.0,0.0,0.0,0.0,4.0908,4.0513,4.2164,4.3415,0.0,0.0,4.1899,4.1899,4.3538,4.3451,3.9403,0.0,0.0,0.0,0.0,0.0,0.0,0.0,0.0,0.0,0.0,0.0,0.0,0.0,0.0,0.0,0.0,0.0,0.0,0.0,0.0,0.0,0.0,0.0,0.0,0.0,0.0,0.0,0.0,0.0,0.0,0.0,0.0,0.0,0.0,0.0,0.0,0.0,0.0,0.0,0.0,0.0,0.0,0.0,0.0,0.0,0.0,0.0,0.0,0.0,0.0,0.0,0.0,0.0,2.699,2.7793,2.936,3.0387,3.0806,3.1176,3.121,3.0806,3.0509,2.9797,0.0,0.0,0.0,0.0,0.0,0.0,0.0,0.0,0.0,0.0,0.0,0.0,0.0,0.0,0.0,0.0,0.0,0.0,0.0,0.0,0.0,0.0,0.0,0.0,0.0,0.0,0.0,0.0,3.1575,3.1949,3.2165,0.0,0.0,0.0,0.0,0.0,0.0,0.0,0.0,0.0,0.0,4.1008,4.174,4.3096,0.0,0.0,4.337,4.2823,4.2525,4.3159,4.2582,3.9331,3.8586,0.0,0.0,0.0,0.0,0.0,0.0,0.0,0.0,0.0,0.0,0.0,0.0,0.0,0.0,0.0,0.0,0.0,0.0,0.0,0.0,0.0,0.0,0.0,0.0,0.0,0.0,0.0,0.0,0.0,0.0,0.0,0.0,0.0,0.0,0.0,0.0,0.0,0.0,0.0,0.0,0.0,0.0,0.0,0.0,0.0,0.0,0.0,0.0,0.0,0.0,0.0,0.0,2.699,2.7807,2.9394,3.0387,3.0806,3.1176,3.1155,3.0641,3.0672,3.0033,0.0,0.0,0.0,0.0,0.0,0.0,0.0,0.0,0.0,0.0,0.0,0.0,0.0,0.0,0.0,0.0,0.0,0.0,0.0,0.0,0.0,0.0,0.0,0.0,0.0,0.0,0.0,0.0,3.2165,3.2442,3.2285,0.0,0.0,0.0,0.0,0.0,0.0,0.0,0.0,0.0,0.0,4.1163,4.2612,4.3529,4.4003,4.3875,4.3249,4.2702,4.2356,4.2467,4.1779,3.9427,0.0,0.0,0.0,0.0,0.0,0.0,0.0,0.0,0.0,0.0,0.0,0.0,0.0,0.0,0.0,0.0,0.0,0.0,0.0,0.0,0.0,0.0,0.0,0.0,0.0,0.0,0.0,2.5701,0.0,0.0,2.5669,0.0,0.0,0.0,0.0,0.0,0.0,0.0,0.0,0.0,0.0,0.0,0.0,0.0,0.0,0.0,0.0,0.0,0.0,0.0,0.0,0.0,0.0,0.0,2.7807,2.9394,3.0387,3.0806,3.1192,3.1027,3.0277,3.0772,3.0302,2.8625,0.0,0.0,0.0,0.0,0.0,0.0,0.0,0.0,0.0,0.0,0.0,0.0,0.0,0.0,0.0,0.0,0.0,0.0,0.0,0.0,0.0,0.0,0.0,0.0,0.0,0.0,3.1754,3.2165,3.2285,0.0,0.0,0.0,0.0,0.0,0.0,0.0,0.0,0.0,0.0,3.9479,4.1586,4.2621,4.3207,4.3385,4.2958,4.1981,4.1268,4.1283,4.1682,4.1466,0.0,0.0,0.0,0.0,0.0,0.0,0.0,0.0,0.0,0.0,0.0,0.0,0.0,0.0,0.0,0.0,0.0,0.0,0.0,0.0,0.0,0.0,0.0,0.0,0.0,0.0,0.0,2.7324,2.6657,0.0,0.0,0.0,0.0,0.0,0.0,0.0,0.0,0.0,0.0,0.0,2.9897,3.1303,0.0,0.0,0.0,0.0,0.0,0.0,0.0,0.0,0.0,0.0,0.0,0.0,2.699,2.783,2.936,3.0531,3.1189,3.1063,3.088,3.0589,3.0491,2.9703,2.812,0.0,0.0,0.0,0.0,0.0,0.0,0.0,0.0,0.0,0.0,0.0,0.0,0.0,0.0,0.0,0.0,0.0,0.0,0.0,0.0,0.0,0.0,0.0,0.0,0.0,3.2285,0.0,0.0,0.0,0.0,0.0,0.0,0.0,0.0,0.0,0.0,0.0,3.5604,3.7012,3.9214,4.1066,4.2116,4.2976,4.3562,0.0,0.0,0.0,0.0,0.0,0.0,0.0,0.0,0.0,0.0,0.0,0.0,0.0,0.0,4.2174,3.8528,3.8079,3.834,3.8438,0.0,0.0,0.0,0.0,0.0,0.0,0.0,0.0,0.0,0.0,0.0,0.0,0.0,0.0,2.9434,0.0,2.9522,0.0,0.0,0.0,0.0,0.0,0.0,0.0,0.0,3.2029,3.2593,3.2534,3.3895,3.4229,0.0,3.209,3.0262,0.0,0.0,0.0,0.0,0.0,0.0,0.0,0.0,2.7013,2.7628,2.9173,3.0311,3.0935,3.0717,3.0531,3.0366,3.0023,2.931,2.8223,2.7338,2.668,0.0,0.0,0.0,0.0,0.0,0.0,0.0,0.0,0.0,0.0,0.0,0.0,0.0,0.0,0.0,0.0,0.0,0.0,0.0,0.0,0.0,0.0,0.0,3.2418,0.0,0.0,0.0,0.0,0.0,0.0,0.0,0.0,0.0,3.3861,3.5184,3.6686,3.8131,3.9839,4.1211,4.1884,0.0,0.0,0.0,0.0,0.0,0.0,0.0,4.054,4.0172,4.0621,4.1291,4.2079,4.366,4.4762,4.4501,0.0,0.0,4.1581,4.1224,4.1595,4.1878,4.241,4.3007,4.372,4.4779,4.576,0.0,0.0,0.0,0.0,0.0,0.0,0.0,0.0,3.204,3.1992,0.0,3.2005,0.0,0.0,0.0,0.0,0.0,3.1746,0.0,0.0,3.5141,3.5807,3.5504,3.5589,3.5589,3.5438,3.3492,3.2183,3.1536,2.9126,0.0,0.0,0.0,0.0,0.0,0.0,2.7103,2.7307,2.8803,2.9813,3.0204,3.0185,2.9999,2.9638,2.9448,2.9217,2.8935,2.8184,2.7607,2.73,2.6425,0.0,0.0,0.0,0.0,0.0,0.0,0.0,0.0,0.0,0.0,0.0,0.0,0.0,0.0,0.0,0.0,0.0,0.0,0.0,0.0,3.2491,0.0,0.0,0.0,0.0,0.0,0.0,0.0,0.0,0.0,0.0,3.5039,3.6302,3.8011,4.0018,0.0,0.0,0.0,0.0,4.226,4.0778,4.0513,4.0355,3.985,4.0623,4.1622,4.2453,0.0,0.0,4.4643,4.491,4.5288,4.5466,4.6515,4.692,4.628,4.5992,4.5915,4.5775,4.5529,4.5586,4.6097,4.6866,4.7634,3.265,0.0,0.0,0.0,0.0,3.3084,3.3486,3.4436,3.4939,3.4471,3.3387,3.4234,0.0,0.0,0.0,0.0,0.0,0.0,3.5086,3.5963,3.6945,3.7483,3.7739,3.8976,3.9324,3.8916,3.7449,3.6179,3.4903,3.2529,2.9816,2.6868,0.0,0.0,0.0,0.0,2.7302,2.7934,2.9035,2.9813,3.017,2.9926,2.9698,2.9547,2.9644,2.9679,2.9538,2.9219,2.8933,2.8706,2.8392,0.0,0.0,0.0,0.0,0.0,0.0,0.0,0.0,0.0,0.0,0.0,0.0,0.0,0.0,0.0,0.0,0.0,0.0,0.0,3.1863,3.225,3.2417,0.0,0.0,0.0,0.0,0.0,0.0,0.0,0.0,0.0,3.7576,3.8033,3.8561,0.0,0.0,4.073,4.0331,4.173,4.2636,4.2188,4.239,0.0,0.0,4.2744,4.3344,4.3202,4.536,4.7413,4.8286,4.8831,4.9214,4.9268,4.9748,5.0065,4.983,4.894,4.8242,4.815,4.8366,4.8664,4.8911,4.9858,5.0726,3.6202,3.5859,3.4233,3.4374,3.5644,3.5434,3.5993,3.7083,3.7533,3.7124,3.621,3.694,3.6154,3.4294,3.3879,0.0,0.0,0.0,3.7213,3.8363,3.8751,3.9202,3.9695,4.0688,4.1028,4.0649,3.9283,3.7779,3.6195,3.3912,3.1186,2.8126,0.0,0.0,2.6769,2.7492,2.7953,2.8228,2.9223,2.9727,2.9724,2.9485,2.9453,2.966,2.9819,2.9999,3.0229,2.9973,3.0101,3.07,3.0093,2.9897,0.0,0.0,0.0,0.0,0.0,0.0,0.0,0.0,0.0,0.0,0.0,3.0251,0.0,0.0,0.0,0.0,3.1082,3.1756,3.2297,3.2622,0.0,0.0,0.0,0.0,0.0,0.0,0.0,3.6173,3.7376,3.8479,3.9307,3.9801,4.0066,4.0066,4.098,4.1451,4.0946,0.0,4.3328,4.3111,4.3159,4.3334,4.3671,4.4398,4.5152,4.5885,4.7898,4.969,5.0395,5.0947,5.1266,5.1279,5.1403,5.1555,5.1555,5.0776,5.0181,5.0181,5.0459,5.0682,5.0709,5.1655,5.235,3.9847,4.0616,3.6912,3.6277,3.7632,3.7646,3.8483,3.9836,3.9812,3.9764,3.9715,3.9681,3.908,3.8072,3.7084,0.0,3.8179,3.8203,3.8994,4.0451,4.0465,4.073,4.1201,4.1211,4.1211,4.1158,3.9562,3.7878,3.612,3.4082,3.1959,2.9878,2.9319,2.8672,2.8024,2.8661,2.8775,2.8295,2.9279,2.956,2.9049,2.9049,2.9346,2.9922,2.9936,3.023,3.085,3.0449,3.105,3.2781,3.1481,3.1253,3.2464,0.0,0.0,0.0,0.0,0.0,0.0,0.0,0.0,0.0,0.0,0.0,0.0,0.0,0.0,0.0,3.2039,0.0,3.3424,3.3555,0.0,0.0,0.0,3.5989,3.7152,3.7605,3.8054,3.8602,0.0,0.0,4.0465,4.1451,4.2116,4.2067,4.288,4.3337,4.2876,4.3721,4.4244,4.3658,4.3304,4.3583,4.4992,4.5905,4.7287,4.9566,5.0911,5.1377,5.1417,5.1582,5.1759,5.1759,5.18,5.1787,5.18,5.1717,5.18,5.1717,5.1717,5.1787,5.1844,5.2338,5.2794,4.1453,4.223,4.1286,4.1108,4.1461,4.1461,4.1689,4.1981,4.161,4.1225,4.0802,4.0393,3.985,3.92,3.8946,3.92,3.9839,3.9826,4.0272,4.0994,4.1018,4.1066,4.1187,4.1211,4.1211,4.1158,4.0755,3.9479,3.7377,3.5936,3.4118,3.2013,3.0923,2.9679,2.8265,2.8501,2.8731,2.8883,2.9011,2.9162,2.9372,2.9583,2.9878,3.0274,3.0274,3.0465,3.0879,3.0449,3.1206,3.3255,3.2019,3.1952,3.3528,3.1408,0.0,0.0,0.0,0.0,0.0,0.0,0.0,0.0,0.0,3.0443,2.9378,0.0,3.1069,0.0,3.3418,3.4683,3.482,3.574,0.0,0.0,3.7697,3.8097,3.9559,3.984,4.0007,4.0298,4.1205,4.1772,4.1634,4.251,4.3,4.2669,4.3135,4.3337,4.2934,4.4371,4.5181,4.4388,4.4708,4.5421,4.6332,4.8298,5.0271,5.2108,5.2223,5.2003,5.1734,5.1732,5.18,5.18,5.18,5.18,5.18,5.18,5.18,5.18,5.18,5.1941,5.2377,5.2981,5.3471,4.3039,4.3481,4.3481,4.3457,4.3433,4.2982,4.2789,4.278,4.2477,4.2188,4.186,4.1331,4.0826,4.0331,4.0306,4.0475,4.0754,4.0754,4.0922,4.1187,4.1211,4.1211,4.1211,4.1211,4.1211,4.1211,4.1211,3.9857,3.7387,3.6426,3.4709,3.2206,3.1293,3.0312,2.9219,2.9422,2.961,2.968,2.9303,2.9354,2.9873,2.9789,2.9783,2.9914,3.0045,3.0031,2.9826,2.9681,3.0578,3.2558,3.1692,3.1912,3.3528,3.1887,3.0457,0.0,0.0,0.0,0.0,0.0,0.0,0.0,0.0,0.0,0.0,0.0,3.2206,3.3344,3.4883,3.6165,3.7053,3.78,3.8785,4.0133,4.0458,4.1058,4.2328,4.2536,4.2619,4.2725,4.3109,4.3202,4.2755,4.3346,4.3778,4.3505,4.3914,4.4115,4.401,4.5245,4.595,4.5197,4.589,4.7073,4.8283,5.0309,5.194,5.2556,5.2394,5.2001,5.1816,5.18,5.18,5.18,5.18,5.18,5.18,5.2053,5.2208,5.2236,5.2447,5.2644,5.2686,5.3108,5.34,4.4316,4.4316,4.4316,4.4316,4.4228,4.3376,4.2982,4.2982,4.291,4.2862,4.278,4.2308,4.1788,4.1307,4.1307,4.1259,4.1211,4.1211,4.1211,4.1211,4.1211,4.1211,4.1211,4.1211,4.1211,4.1211,4.1211,3.9651,3.6736,3.6224,3.4487,3.1578,3.1094,3.0718,3.0332,3.0698,3.0713,3.0344,2.984,2.9859,3.0377,2.9873,2.9553,2.9441,2.9628,2.9385,2.86,2.8853,2.9848,3.1558,3.1271,3.1759,3.3348,3.2369,3.1249,0.0,2.9687,0.0,0.0,0.0,0.0,0.0,0.0,0.0,0.0,3.2953,3.4226,3.5845,3.6703,3.7901,3.9599,3.9993,4.0776,4.2275,4.3284,4.4192,4.5027,4.5148,4.513,4.5107,4.4726,4.4209,4.359,4.3955,4.4285,4.4172,4.4628,4.4989,4.5157,4.5894,4.6351,4.5966,4.6978,4.8562,5.0432,5.1983,5.2802,5.2546,5.2141,5.18,5.166,5.166,5.1688,5.1688,5.1828,5.1941,5.1913,5.2405,5.2798,5.2826,5.3234,5.3473,5.315,5.3035,5.2854,4.4316,4.4316,4.4316,4.4316,4.4276,4.4084,4.4003,4.3979,4.3577,4.3159,4.2804,4.2693,4.2371,4.1875,4.1851,4.1596,4.1211,4.1211,4.1211,4.1211,4.1211,4.1211,4.1211,4.1211,4.1211,4.1211,4.1211,3.9651,3.6713,3.6224,3.4451,3.1548,3.1079,3.084,3.0776,0.0,0.0,0.0,3.0131,3.0274,3.0392,3.0304,3.0166,3.0029,2.9764,0.0,2.8877,2.9387,3.0483,3.2123,3.2154,0.0,0.0,0.0,0.0,0.0,0.0,0.0,0.0,0.0,0.0,0.0,3.439,3.4388,3.4085,3.6099,3.7583,3.7956,4.0059,4.1467,4.1593,4.3291,4.4571,4.5149,4.5603,4.6106,4.6703,4.6002,4.5473,4.5621,4.4807,4.4028,4.3669,4.3955,4.4148,4.3835,4.4484,4.5061,4.5085,4.5669,4.603,4.6086,4.8043,5.012,5.1707,5.2926,5.3549,5.3388,5.2476,5.1688,5.1224,5.1111,5.1111,5.1167,5.1857,5.2517,5.2517,5.3065,5.3473,5.3501,5.3599,5.381,5.4133,5.3395,5.278,4.4316,0.0,4.4316,4.4316,0.0,4.4316,4.4316,4.4261,4.4003,4.361,4.3135,4.3159,4.2847,4.238,4.238,4.2116,4.1596,4.161,4.1451,4.1211,4.1211,4.1211,4.1211,4.1211,4.1211,4.1211,4.1211,3.9753,3.7064,3.6319,3.4593,3.1866,3.1211,3.0913,3.0913,3.0913,3.0723,3.033,3.0378,3.048,3.0611,3.048,3.0156,2.9662,0.0,0.0,0.0,0.0,0.0,0.0,0.0,0.0,0.0,0.0,0.0,3.2104,3.218,3.2351,3.2676,3.3594,3.4836,3.6358,3.777,3.8113,3.7096,3.8597,3.9879,4.0586,4.218,4.3397,4.3946,4.5292,4.6331,4.6788,4.7088,4.7341,4.7427,4.7223,4.6934,4.6644,4.5919,4.5211,4.4699,4.4361,4.4211,4.3955,4.4324,4.4709,4.4843,4.5816,4.6848,4.7883,4.9008,5.0494,5.1747,5.2628,5.298,5.2392,5.2025,5.1576,5.0999,5.1167,5.1351,5.1407,5.2096,5.2686,5.277,5.3234,5.3782,5.3964,5.3382,5.3009,5.3491,5.3101,5.2344,4.4316,4.4316,4.4316,4.4316,4.4316,4.4316,4.4316,4.4316,0.0,0.0,0.0,4.3619,4.3328,4.2828,4.2886,4.2573,4.2005,4.1981,4.1764,4.1331,4.1235,4.1211,4.1211,4.1211,4.1211,4.1187,4.0956,3.9621,3.731,3.6251,3.4568,3.2317,3.1401,3.0972,3.0913,3.0913,3.0913,3.0879,3.0567,3.0553,3.0879,3.0567,3.0017,2.9212,2.9367,2.8853,2.765,2.8852,2.987,3.0529,3.1596,3.2559,3.3346,3.3344,3.3354,3.3504,3.4251,3.4994,3.5676,3.6593,3.7733,3.9152,4.0968,4.1496,4.0241,4.085,4.1813,4.3093,4.3721,4.4624,4.5931,4.6597,4.7167,4.7658,4.7956,4.8048,4.7958,4.8089,4.8036,4.7809,4.6917,4.6265,4.5824,4.4915,4.4369,4.4517,4.444,4.4501,4.4907,4.6164,4.7666,4.9218,4.99,5.0605,5.1756,5.2253,5.2044,5.1619,5.1576,5.1435,5.1139,5.1308,5.166,5.1744,5.2362,5.2897,5.3051,5.3543,5.3922,5.4197,5.2985,5.1782,5.1785,5.1811,5.1175,4.4316,4.4316,4.4316,4.4316,4.4316,4.4316,4.4316,4.4316,4.4316,4.4252,4.4196,4.418,4.3673,4.2813,4.3232,4.288,4.2005,4.1981,4.1971,4.186,4.1403,4.1211,4.1211,4.1211,4.1211,4.11,4.0054,3.8729,3.7273,3.5685,3.3972,3.2346,3.1695,3.125,3.0932,3.0913,3.0913,3.0913,3.0567,3.0553,3.0879,3.0567,3.0118,2.9553,2.9191,2.9032,2.9042,3.0087,3.1157,3.2193,3.3171,3.3767,3.3862,3.3536,3.3585,3.4217,3.5254,3.6261,3.7246,3.8874,4.052,4.2066,4.3105,4.327,4.246,4.3081,4.3855,4.4626,4.5146,4.5814,4.6599,4.7197,4.76,4.7711,4.7956,4.828,4.8679,4.7907,4.7731,4.8638,4.6691,4.5638,4.6125,4.519,4.4739,4.5245,4.4858,4.484,4.619,4.6717,4.7267,4.8597,5.0064,5.1438,5.2441,5.2757,5.2462,5.2475,5.1604,5.1098,5.0942,5.1055,5.1351,5.1744,5.2756,5.3571,5.4076,5.4386,5.3938,5.3235,5.2099,5.1026,4.929,4.8794,4.8648,4.4316,4.4316,4.4316,4.4316,4.4316,4.4316,4.4316,4.4316,4.4316,4.4316,4.4316,4.4316,4.4051,4.3658,4.3835,4.3538,4.2823,4.2808,4.2534,4.1995,4.174,4.1475,4.1211,4.1211,4.1211,4.1124,3.9849,3.8551,3.7228,3.5553,3.3953,3.2572,3.1836,3.1411,3.1216,3.0996,3.0913,3.0898,3.0747,3.0747,3.0879,3.0747,3.0451,2.9936,2.9492,2.951,2.9989,3.0828,3.1799,3.2869,3.3871,3.4426,3.4438,3.4651,3.5052,3.5761,3.7131,3.8436,3.955,4.132,4.2677,4.3404,4.4235,4.4553,4.4219,4.4486,4.4793,4.498,4.5914,4.6597,4.6819,4.7478,4.7918,4.7903,4.8017,4.8361,4.8845,4.8675,4.8705,4.9447,4.8276,4.7396,4.7743,4.666,4.5753,4.5838,4.5158,4.5353,4.6748,4.7633,4.8442,4.9469,5.0677,5.1569,5.2169,5.2239,5.2082,5.18,5.1534,5.1238,5.1055,5.1111,5.1632,5.2194,5.3093,5.354,5.3634,5.3512,5.2941,5.182,5.0184,4.8719,4.7652,4.6936,4.6709,4.4316,4.4316,4.4316,4.4316,4.4316,4.4316,4.4316,4.4316,4.4316,4.4316,4.4316,4.4316,4.4228,4.4148,4.4228,4.4003,4.3538,4.349,4.3057,4.2365,4.2236,4.1899,4.1442,4.1379,4.1345,4.1024,3.9562,3.8246,3.7168,3.5354,3.3886,3.2827,3.2051,3.1645,3.1645,3.1362,3.1187,3.1187,3.1187,3.1094,3.0913,3.0913,3.0678,3.0229,2.9911,3.0186,3.1089,3.1632,3.2533,3.3834,3.4704,3.5233,3.5454,3.6,3.6766,3.7697,3.908,4.0492,4.1833,4.3259,4.4152,4.4303,4.4881,4.5284,4.5485,4.5605,4.5589,4.5567,4.6398,4.6973,4.7171,4.7597,4.8073,4.8252,4.8292,4.8632,4.9227,4.956,4.9928,5.0392,4.9782,4.9131,4.9045,4.8193,4.7197,4.6567,4.6316,4.6669,4.7474,4.8787,4.9884,5.0703,5.1526,5.1986,5.1725,5.1889,5.1801,5.1224,5.1491,5.1604,5.1491,5.1744,5.2086,5.2575,5.3034,5.3084,5.2535,5.2102,5.1458,5.0209,4.8472,4.6909,4.642,4.5835,4.5404,4.4316,4.4316,4.4316,4.4316,4.4316,4.4316,4.4316,4.4316,4.4316,4.4316,4.4316,4.4316,4.4051,4.3667,4.4084,4.4027,4.3538,4.349,4.3442,4.3289,4.2919,4.2428,4.1932,4.1908,4.1682,4.0903,3.8722,3.7474,3.7045,3.4742,3.3289,3.2808,3.2339,3.214,3.212,3.2101,3.2061,3.2081,3.2081,3.169,3.0952,3.0913,3.0664,3.0229,3.0185,3.0983,3.2673,3.2843,3.3881,3.5874,3.6142,3.6546,3.7208,3.7419,3.8231,3.992,4.0745,4.1872,4.3535,4.4134,4.4619,4.5112,4.5061,4.538,4.6118,4.6479,4.6765,4.6864,4.6661,4.6995,4.7813,4.7864,4.8131,4.8718,4.8897,4.9283,5.0022,5.029,5.0569,5.1223,5.0252,4.9545,4.9729,4.8885,4.8194,4.8379,4.8885,4.9408,4.9703,5.0334,5.0934,5.1625,5.2459,5.2699,5.2352,5.2435,5.2265,5.1828,5.1772,5.1997,5.2306,5.2462,5.2645,5.2567,5.2695,5.2523,5.1591,5.0793,4.9729,4.8528,4.7138,4.5903,4.4984,4.4834,4.5133,4.4316,4.4316,4.4316,4.4316,4.4316,4.4316,4.4316,4.4316,4.4316,4.4316,4.4316,4.4316,4.4196,4.3964,4.4204,4.418,4.3964,4.3964,4.3802,4.3514,4.3289,4.2928,4.2477,4.2125,4.15,4.0387,3.8298,3.6915,3.5971,3.4293,3.3304,3.3129,3.2734,3.2554,3.2535,3.2316,3.2198,3.2198,3.2198,3.2022,3.1675,3.1401,3.1505,3.1934,3.155,3.228,3.4124,3.4196,3.4784,3.6271,3.6411,3.6741,3.7568,3.8162,3.9231,4.0837,4.2164,4.3448,4.4689,4.4848,4.5116,4.5563,4.6016,4.6376,4.6578,4.7037,4.7438,4.764,4.7526,4.759,4.7852,4.8226,4.8546,4.8813,4.9225,4.9814,5.0317,5.0564,5.0937,5.1456,5.1045,5.0642,5.0641,5.0027,4.9839,5.034,5.0756,5.0752,5.0907,5.1722,5.2299,5.2459,5.3284,5.3317,5.2421,5.242,5.2503,5.2405,5.2349,5.2545,5.2995,5.2883,5.2672,5.2546,5.2412,5.1782,5.0484,4.9973,4.9096,4.7422,4.5897,4.4878,4.4393,4.4484,4.4613,4.4316,4.4316,4.4316,4.4468,4.4709,4.4589,4.4613,4.4724,4.4733,4.4733,4.4748,4.4589,4.4517,4.4493,4.4372,4.4316,4.4316,4.4316,4.41,4.3739,4.373,4.3457,4.2967,4.2606,4.1626,4.012,3.8517,3.678,3.5111,3.3973,3.3386,3.3344,3.309,3.2969,3.2914,3.2672,3.2531,3.255,3.2515,3.2535,3.2522,3.2418,3.2673,3.319,3.2887,3.3599,3.5487,3.5326,3.5694,3.6779,3.7049,3.7535,3.8342,3.9331,4.055,4.1968,4.3499,4.4586,4.5164,4.5433,4.5725,4.6067,4.6731,4.7101,4.7212,4.7501,4.7813,4.807,4.8236,4.8203,4.7948,4.8527,4.8932,4.9013,4.9756,5.0345,5.0665,5.0979,5.1282,5.1621,5.1514,5.1598,5.1683,5.1591,5.178,5.2353,5.2155,5.1835,5.2077,5.2875,5.3274,5.3133,5.3721,5.3458,5.2462,5.2434,5.2686,5.2714,5.2644,5.2729,5.3204,5.2755,5.1736,5.1088,5.1454,5.0749,4.8781,4.8206,4.8017,4.6123,4.4884,4.4378,4.4316,4.434,4.434,4.4316,4.434,4.4324,4.4877,4.5758,4.5277,4.5349,4.571,4.5782,4.5806,4.5686,4.5277,4.5085,4.5021,4.4565,4.4324,4.4316,4.4316,4.4276,4.4244,4.4244,4.3979,4.349,4.3427,4.2418,4.0479,3.8929,3.6887,3.4285,3.3716,3.3386,3.3402,3.3422,3.3386,3.3398,3.3344,3.3344,3.3265,3.3265,3.3352,3.3466,3.4136,3.4146,3.3699,3.399,3.4947,3.6086,3.6185,3.669,3.7875,3.8551,3.9355,4.021,4.1238,4.2444,4.3725,4.4705,4.514,4.5152,4.5769,4.6381,4.6718,4.6872,4.7184,4.7785,4.7798,4.7895,4.8083,4.8576,4.8647,4.8351,4.883,4.9333,4.9823,5.0453,5.095,5.1264,5.1511,5.1608,5.1555,5.1693,5.2041,5.2574,5.3427,5.3684,5.397,5.418,5.425,5.4017,5.369,5.3629,5.3702,5.3512,5.2897,5.3064,5.3135,5.2911,5.2883,5.2953,5.2575,5.2332,5.1871,5.0564,4.9496,4.941,4.856,4.6733,4.5821,4.561,4.4853,4.4637,4.4324,4.4484,4.4364,4.4316,4.5309,4.5285,4.4949,4.5229,4.5846,4.5686,4.5734,4.5902,4.5902,4.5902,4.5878,4.5702,4.5629,4.5565,4.5045,4.4628,4.434,4.4316,4.4316,4.4316,4.4316,4.4196,4.3911,4.2806,4.1429,3.9846,3.7912,3.5854,3.3993,3.4007,3.4101,3.3926,3.4121,3.4121,3.3887,3.3828,3.3711,3.3406,3.3386,3.3796,3.4623,3.5453,3.6022,3.6514,3.6549,3.714,3.8337,3.8034,3.8071,3.8489,3.896,3.9647,4.0679,4.2318,4.3748,4.4697,4.4973,4.542,4.6236,4.6494,4.6851,4.7334,4.7544,4.7638,4.7824,4.7918,4.8147,4.8604,4.8658,4.8813,4.932,4.9677,4.9992,5.027,5.0842,5.1193,5.1417,5.1637,5.1746,5.1734,5.2041,5.263,5.3178,5.3963,5.455,5.4928,5.5106,5.4976,5.474,5.4562,5.4549,5.441,5.416,5.395,5.4033,5.4033,5.3865,5.3637,5.3436,5.2817,5.243,5.1141,4.9831,4.8461,4.799,4.7437,4.6044,4.5493,4.4973,4.5157,4.4877,4.4685,4.4772,4.4589,4.442,4.6014,4.6062,4.559,4.5798,4.6351,4.6231,4.6238,4.6399,4.6423,4.6423,4.6383,4.6255,4.6158,4.607,4.5605,4.5181,4.4781,4.4493,4.4316,4.4316,4.4316,4.4316,4.4113,4.2996,4.1437,3.9515,3.6872,3.4932,3.3983,3.4124,3.4121,3.3887,3.4313,3.4293,3.3981,3.4137,3.402,3.3586,3.3915,3.4653,3.5463,3.6733,3.7761,3.8534,3.8792,3.9071,3.9592,3.909,3.9037,3.9447,3.9714,4.0606,4.2258,4.3758,4.4925,4.5533,4.5648,4.6023,4.6892,4.715,4.7357,4.7683,4.7928,4.8076,4.809,4.8274,4.8673,4.9109,4.941,4.9677,5.0149,5.0548,5.0679,5.0595,5.0794,5.0906,5.0892,5.0698,5.0669,5.0859,5.1772,5.2636,5.3338,5.4168,5.4873,5.5438,5.551,5.5314,5.5046,5.499,5.5215,5.4906,5.4681,5.4639,5.4534,5.4316,5.4182,5.3967,5.3039,5.2573,5.1712,5.0343,4.8968,4.7639,4.6828,4.6387,4.5887,4.534,4.5349,4.559,4.5469,4.5181,4.5045,4.4805,4.4589,4.6231,4.6591,4.6134,4.6471,4.7216,4.688,4.7016,4.7329,4.7401,4.7312,4.7233,4.692,4.6711,4.6591,4.6134,4.5894,4.5686,4.4877,4.446,4.4396,4.4324,4.4316,4.4285,4.3934,4.2329,3.9774,3.6461,3.4786,3.4528,3.4007,3.3675,3.3578,3.4039,3.4101,3.3464,3.4277,3.4329,3.4061,3.5058,3.5759,3.5793,3.782,3.9059,3.9399,4.0375,4.052,3.9729,3.9187,3.9534,4.0695,4.1095,4.2601,4.4747,4.5576,4.597,4.6274,4.6776,4.6976,4.6978,4.7592,4.7806,4.7829,4.7997,4.8354,4.8708,4.8902,4.9221,4.9851,5.0342,5.0803,5.0862,5.0985,5.1056,5.0908,5.0561,5.021,4.9957,4.9004,4.846,4.9517,5.1174,5.2221,5.2872,5.4013,5.506,5.5395,5.5496,5.5468,5.5355,5.5102,5.499,5.5158,5.4842,5.4469,5.4484,5.4456,5.4302,5.3981,5.2763,5.1819,5.0651,4.9357,4.7933,4.6665,4.6231,4.5819,4.5714,4.5277,4.5405,4.5614,4.5541,4.559,4.5333,4.5093,4.4709,4.6759,4.7161,4.6663,4.6832,4.7449,4.7329,4.7353,4.7497,4.7497,4.7497,4.7473,4.7329,4.7257,4.7136,4.6704,4.6447,4.6383,4.571,4.5205,4.4869,4.4493,4.4324,4.4169,4.3357,4.1308,3.8518,3.6506,3.5117,3.4489,3.459,3.4512,3.4137,3.4626,3.4726,3.4297,3.486,3.5123,3.5283,3.5725,3.6589,3.7864,3.8773,3.9636,4.0513,4.1,4.1018,4.0705,4.0186,4.0415,4.1436,4.1892,4.3239,4.5263,4.5826,4.6194,4.6795,4.6705,4.7042,4.762,4.7753,4.7933,4.8027,4.8269,4.8499,4.875,4.9141,4.9629,5.0173,5.048,5.0758,5.1218,5.0602,5.0643,5.1425,5.0961,5.0502,5.0555,5.0574,5.098,5.1492,5.2487,5.3206,5.3635,5.4533,5.5087,5.5437,5.551,5.551,5.5468,5.5327,5.5243,5.5425,5.4717,5.3869,5.363,5.3135,5.2624,5.2451,5.1654,5.1041,4.9871,4.8516,4.7081,4.6206,4.5757,4.5517,4.5397,4.5493,4.571,4.5878,4.6022,4.5926,4.5686,4.5357,4.5037,4.7209,4.7449,4.7136,4.7185,4.7473,4.7497,4.7497,4.7497,4.7497,4.7497,4.7497,4.7497,4.7497,4.7425,4.7161,4.7016,4.6928,4.6447,4.6014,4.559,4.4917,4.4628,4.426,4.2425,4.0293,3.7942,3.6571,3.5527,3.4665,3.5231,3.5192,3.4587,3.5056,3.5075,3.4707,3.5597,3.6217,3.6272,3.739,3.8519,3.9399,3.9973,4.0557,4.112,4.1211,4.1211,4.1215,4.1134,4.1573,4.251,4.3502,4.4956,4.6394,4.6559,4.6811,4.7281,4.7308,4.74,4.803,4.8165,4.8241,4.8453,4.8748,4.9116,4.9379,4.9784,5.0122,5.0774,5.0954,5.1246,5.1778,5.1265,5.1152,5.2128,5.0431,4.9731,4.9888,5.0379,5.0895,5.149,5.2597,5.3375,5.3892,5.456,5.51,5.5408,5.551,5.551,5.551,5.551,5.5349,5.4982,5.4159,5.3399,5.2712,5.1865,5.0896,5.0618,5.0282,5.0006,4.9402,4.799,4.6577,4.6191,4.5782,4.5758,4.5662,4.6014,4.6255,4.6399,4.6471,4.6495,4.631,4.5782,4.539,4.7497,4.7497,4.7497,4.7473,4.7497,4.7497,4.7497,4.7497,4.7497,4.7497,4.7497,4.7497,4.7497,4.7497,4.7425,4.7401,4.7401,4.7,4.6735,4.6423,4.5734,4.5189,4.465,4.2007,3.9833,3.8349,3.6755,3.5795,3.5273,3.5644,3.5547,3.4785,3.5078,3.5096,3.4983,3.6449,3.7104,3.7211,3.9626,4.0647,4.0252,4.1304,4.1715,4.1331,4.1379,4.1355,4.1287,4.2142,4.3073,4.4044,4.5647,4.6863,4.7553,4.7699,4.7717,4.807,4.8111,4.8157,4.832,4.8692,4.8986,4.9094,4.9336,4.9896,5.0461,5.0495,5.0831,5.1608,5.1775,5.2082,5.2532,5.2239,5.2306,5.232,5.0005,4.8292,4.7733,4.8607,4.9878,5.0764,5.1959,5.3226,5.373,5.4541,5.5028,5.5393,5.5539,5.5524,5.5636,5.5518,5.4904,5.4321,5.3751,5.2576,5.1779,5.0321,4.945,4.9305,4.9079,4.9013,4.889,4.7678,4.6856,4.6447,4.5998,4.5974,4.6046,4.6375,4.6543,4.6567,4.6735,4.7024,4.6783,4.6206,4.5814,4.7497,4.7497,4.7497,4.7497,4.7497,4.7497,4.7497,4.7497,4.7497,4.7497,4.7497,4.7497,4.7497,4.7497,4.7497,4.7497,4.7449,4.7353,4.7288,4.7185,4.6615,4.5782,4.4682,4.2195,4.0361,3.933,3.7206,3.5801,3.543,3.5644,3.5385,3.4746,3.5348,3.5749,3.6131,3.7047,3.7949,3.8873,4.0089,4.1226,4.1558,4.2105,4.2293,4.1899,4.2116,4.1928,4.1557,4.3338,4.4759,4.5422,4.6716,4.7637,4.7987,4.79,4.8054,4.8583,4.8589,4.8785,4.9292,4.9386,4.9484,4.9711,4.9844,5.0073,5.0496,5.0916,5.1445,5.2058,5.2337,5.2742,5.3122,5.2552,5.1886,5.102,5.0006,4.9329,4.9343,4.9971,5.09,5.1916,5.3017,5.3794,5.4346,5.476,5.5142,5.5449,5.558,5.5603,5.5752,5.5607,5.5033,5.4262,5.349,5.1988,5.0582,4.9049,4.8141,4.8051,4.7985,4.8059,4.7994,4.7576,4.7281,4.7136,4.6543,4.6335,4.6423,4.6615,4.6687,4.6735,4.704,4.7281,4.6968,4.6471,4.6255,4.7497,4.7497,4.7497,4.7497,4.7497,4.7497,4.7497,4.7497,4.7497,4.7497,4.7497,4.7497,4.7497,4.7497,4.7497,4.7497,4.7497,4.7497,4.7497,4.7449,4.7161,4.6114,4.4392,4.2213,4.0708,3.9512,3.7592,3.6348,3.5881,3.6152,3.6397,3.6606,3.6687,3.7278,3.8272,3.9083,3.9591,4.0434,4.1421,4.2244,4.2057,4.2284,4.2116,4.1827,4.2039,4.2074,4.2782,4.4447,4.5813,4.6824,4.7791,4.8466,4.8815,4.8505,4.8581,4.915,4.8969,4.9109,4.964,4.9827,5.0033,5.0332,5.0485,5.0876,5.1291,5.1654,5.2045,5.2799,5.3037,5.343,5.3709,5.3005,5.2047,5.1419,5.0487,5.025,5.0556,5.0498,5.1215,5.2267,5.32,5.3821,5.4318,5.4715,5.5239,5.5687,5.5931,5.5868,5.5796,5.5501,5.4837,5.3787,5.2793,5.1342,5.0146,4.8753,4.8102,4.7847,4.7958,4.7827,4.7714,4.7642,4.7425,4.7264,4.6928,4.6687,4.6687,4.6735,4.688,4.704,4.7329,4.7377,4.7112,4.6711,4.6519,4.7497,4.7514,4.7553,4.7569,4.7617,4.7642,4.7786,4.769,4.7762,4.7762,4.7762,4.7714,4.781,4.7666,4.7858,4.769,4.7617,4.7786,4.769,4.7642,4.7366,4.6427,4.475,4.3066,4.108,3.9314,3.7962,3.7265,3.7005,3.7632,3.8461,3.8878,3.9024,3.9505,4.0288,4.1517,4.1758,4.1537,4.281,4.3086,4.2423,4.2332,4.2173,4.1793,4.1958,4.2996,4.4402,4.5709,4.677,4.8341,4.8915,4.9344,4.9771,4.9362,4.9366,4.9553,4.9514,4.9557,4.9803,5.0371,5.0732,5.1089,5.1346,5.1863,5.2421,5.2547,5.2771,5.3641,5.3768,5.4077,5.4367,5.3678,5.299,5.2311,5.0652,5.0337,5.1324,5.0614,5.0235,5.2158,5.2703,5.3041,5.37,5.4313,5.5133,5.5915,5.6027,5.5746,5.5626,5.5405,5.4149,5.2459,5.1522,5.0606,4.9556,4.8544,4.8262,4.8084,4.8341,4.8332,4.8115,4.793,4.7521,4.724,4.7192,4.6952,4.6687,4.6807,4.6928,4.7112,4.7281,4.7401,4.7401,4.6904,4.6591,4.7497,4.7545,4.7947,4.8139,4.8211,4.8572,4.8741,4.8717,4.8741,4.8669,4.8741,4.8741,4.8717,4.87,4.8644,4.8548,4.8236,4.8452,4.8548,4.8091,4.7666,4.7333,4.6258,4.475,4.2306,4.0119,3.9203,3.8917,3.89,3.9103,3.9881,4.1024,4.1147,4.1375,4.1942,4.2369,4.242,4.2466,4.3303,4.337,4.2871,4.2895,4.2823,4.2449,4.3047,4.429,4.5847,4.7316,4.8515,4.9363,4.9734,4.9876,4.9836,4.9835,4.9964,5.0164,5.041,5.0672,5.116,5.1234,5.1542,5.2154,5.2031,5.2239,5.3346,5.3204,5.3498,5.416,5.4414,5.4667,5.5084,5.4161,5.3553,5.2986,5.146,5.0775,5.2348,5.0844,5.0213,5.1443,5.2081,5.2623,5.4012,5.3577,5.4474,5.5777,5.5914,5.5523,5.5298,5.5079,5.3645,5.1813,5.1191,5.0479,4.9577,4.8765,4.85,4.8404,4.8644,4.8765,4.8548,4.8452,4.8122,4.7834,4.7617,4.7329,4.692,4.6728,4.6824,4.7016,4.7257,4.7449,4.7473,4.7024,4.6799,4.826,4.8284,4.8548,4.8669,4.8717,4.8981,4.9102,4.9102,4.9102,4.9102,4.9102,4.9102,4.9102,4.9102,4.9078,4.8909,4.8789,4.895,4.895,4.8572,4.813,4.7513,4.691,4.6201,4.4444,4.2044,4.1126,4.0831,4.0669,4.09,4.166,4.299,4.3091,4.3427,4.3893,4.3912,4.3663,4.3268,4.3586,4.3538,4.2967,4.303,4.3126,4.3016,4.3738,4.4917,4.6449,4.7887,4.9265,5.0298,5.0771,5.0763,5.0589,5.0617,5.0704,5.0859,5.0847,5.1318,5.1751,5.1975,5.2212,5.3093,5.2855,5.3289,5.3851,5.3934,5.4242,5.4778,5.5074,5.5228,5.5715,5.3933,5.3434,5.3502,5.1514,5.0837,5.2009,5.0661,4.9818,5.1251,5.1572,5.187,5.2319,5.2756,5.3569,5.4825,5.4964,5.4579,5.3973,5.3679,5.3004,5.1785,5.1208,5.0518,4.9658,4.9029,4.8765,4.8741,4.8909,4.8981,4.8885,4.8861,4.8837,4.838,4.7858,4.7569,4.7209,4.6992,4.6872,4.7185,4.7449,4.7617,4.7545,4.7185,4.712,4.9102,4.9102,4.9174,4.9222,4.9222,4.9318,4.9414,4.939,4.9342,4.9487,4.9366,4.9342,4.9511,4.939,4.9438,4.9366,4.9318,4.9119,4.9053,4.915,4.8669,4.792,4.7243,4.7214,4.6876,4.5207,4.3618,4.2739,4.2556,4.2751,4.3618,4.4802,4.5009,4.5181,4.582,4.5798,4.5062,4.4067,4.4036,4.3835,4.3111,4.3006,4.2982,4.3161,4.4378,4.5522,4.6988,4.8407,4.9829,5.1279,5.1749,5.1872,5.1846,5.175,5.1543,5.1557,5.1544,5.1961,5.2477,5.2603,5.2953,5.3768,5.3739,5.4076,5.454,5.4665,5.4861,5.5227,5.5552,5.5889,5.6258,5.4221,5.3503,5.3512,5.1306,5.0441,5.1239,5.0472,5.054,5.1381,5.1239,5.1096,5.1574,5.2051,5.2902,5.361,5.3704,5.362,5.3013,5.249,5.1995,5.1368,5.0725,5.0489,4.9745,4.9174,4.8909,4.8909,4.9102,4.9102,4.9102,4.9053,4.8909,4.8452,4.7978,4.7714,4.7473,4.7209,4.7233,4.7466,4.7658,4.7827,4.7666,4.7353,4.7377,4.9102,4.9126,4.9576,4.9769,4.9841,5.0232,5.0383,5.0431,5.0335,5.0431,5.0383,5.0407,5.0359,5.0383,5.0431,5.0407,5.0119,4.9679,4.9456,4.9607,4.9222,4.8615,4.8543,4.8444,4.8417,4.7841,4.6106,4.48,4.4715,4.488,4.5489,4.6682,4.6841,4.6843,4.6389,4.6134,4.5638,4.482,4.4565,4.41,4.3634,4.3481,4.3572,4.3832,4.5525,4.689,4.7824,4.9453,5.0809,5.1418,5.2141,5.2365,5.2379,5.2435,5.2407,5.2296,5.2687,5.3065,5.336,5.3458,5.3795,5.4202,5.4297,5.4535,5.5041,5.5164,5.5317,5.5562,5.6042,5.6506,5.7078,5.4701,5.3605,5.3233,5.1942,5.0444,5.1445,5.1225,5.0548,5.1306,5.081,5.0429,5.1044,5.152,5.2046,5.2615,5.2801,5.2716,5.2326,5.1909,5.1508,5.0832,5.01,5.0017,4.9817,4.9383,4.9029,4.9005,4.9102,4.9102,4.9102,4.9102,4.8885,4.8548,4.826,4.7978,4.7714,4.7449,4.7377,4.7497,4.7738,4.8019,4.7858,4.7642,4.7473,4.9944,4.995,5.0208,5.0287,5.0353,5.0576,5.0678,5.0678,5.0678,5.0678,5.0678,5.0678,5.0678,5.0678,5.0678,5.0678,5.0503,5.0239,5.0088,5.0184,4.9775,4.9528,4.9438,4.927,4.9126,4.869,4.7556,4.6805,4.6849,4.6849,4.7045,4.7272,4.7497,4.7216,4.6783,4.6447,4.6014,4.5541,4.5229,4.4845,4.4364,4.4331,4.4508,4.5536,4.695,4.8461,4.9676,5.0864,5.2057,5.2589,5.2995,5.3094,5.3178,5.336,5.343,5.305,5.3402,5.388,5.4119,5.4189,5.4442,5.4976,5.5167,5.5372,5.5693,5.5868,5.6007,5.6237,5.6409,5.7001,5.7696,5.5234,5.4177,5.3854,5.2051,5.1003,5.1121,5.0937,5.1027,5.1146,5.085,5.0723,5.0877,5.1212,5.1362,5.1597,5.1918,5.1831,5.1688,5.1376,5.1092,5.0624,4.9985,4.9865,4.9793,4.9432,4.9126,4.9102,4.9102,4.9102,4.9102,4.9102,4.9029,4.8854,4.8548,4.8267,4.7978,4.7714,4.7617,4.7521,4.7714,4.7906,4.8019,4.7971,4.7762,5.0678,5.0678,5.0678,5.0678,5.0678,5.0678,5.0678,5.0678,5.0678,5.0678,5.0678,5.0678,5.0678,5.0678,5.0678,5.0678,5.0678,5.0654,5.063,5.0551,5.028,5.0064,4.992,4.9703,4.9535,4.9524,4.9095,4.8603,4.8026,4.7882,4.7832,4.7762,4.7617,4.7425,4.7112,4.6807,4.6471,4.6206,4.5902,4.5662,4.5373,4.53,4.5632,4.6622,4.8058,4.9479,5.0525,5.186,5.2806,5.3373,5.374,5.3852,5.3907,5.4454,5.4507,5.3957,5.3976,5.4329,5.4707,5.5018,5.5298,5.5798,5.6294,5.6371,5.6407,5.6641,5.6974,5.7139,5.7241,5.7584,5.801,5.612,5.4905,5.4243,5.2793,5.1165,5.1114,5.111,5.1278,5.1265,5.1008,5.1031,5.1198,5.124,5.1454,5.1721,5.203,5.1733,5.1532,5.108,5.0754,5.0442,5.0064,4.9823,4.9655,4.9432,4.9174,4.9102,4.9102,4.9102,4.9102,4.9102,4.9053,4.9071,4.8854,4.8548,4.826,4.7978,4.7786,4.769,4.7738,4.7954,4.8356,4.8332,4.8115,5.0678,5.0678,5.0678,5.0678,5.0678,5.0678,5.0678,5.0678,5.0678,5.0678,5.0678,5.0678,5.0678,5.0678,5.0678,5.0678,5.0678,5.0678,5.0678,5.0654,5.0576,5.0503,5.0576,5.0576,5.0335,5.0239,5.0256,4.9559,4.87,4.8091,4.793,4.8074,4.7834,4.7658,4.7827,4.7185,4.6687,4.6519,4.6158,4.5878,4.5822,4.5822,4.595,4.6602,4.7948,4.9489,5.0631,5.2052,5.3196,5.3795,5.4316,5.4355,5.4292,5.5167,5.5656,5.5604,5.5485,5.542,5.5763,5.5966,5.6222,5.6594,5.7046,5.7193,5.7255,5.725,5.7558,5.8119,5.8101,5.8227,5.8394,5.7224,5.6021,5.4749,5.3391,5.2134,5.1686,5.1555,5.1724,5.1682,5.1562,5.1513,5.1561,5.1567,5.1598,5.1868,5.2037,5.1724,5.1369,5.0984,5.063,5.0383,5.0208,4.9992,4.9751,4.9504,4.9311,4.9174,4.9222,4.9222,4.9294,4.9366,4.9294,4.9246,4.9078,4.8926,4.8669,4.838,4.7995,4.7947,4.8091,4.8476,4.8957,4.8741,4.826,5.096,5.0678,5.0678,5.0678,5.0678,5.0678,5.0678,5.0678,5.0678,5.0678,5.0678,5.0678,5.0678,5.0726,5.0678,5.0678,5.0678,5.0726,5.0702,5.0726,5.0744,5.0702,5.0678,5.0678,5.0678,5.0624,5.0377,4.9937,4.9174,4.8981,4.8909,4.8603,4.8243,4.8043,4.8356,4.7569,4.7233,4.7,4.6663,4.6359,4.6351,4.6399,4.6625,4.7204,4.8913,5.0266,5.1569,5.2912,5.4029,5.4706,5.5299,5.5447,5.5451,5.608,5.6701,5.6477,5.6553,5.6629,5.6751,5.691,5.7033,5.727,5.7609,5.7961,5.8032,5.8001,5.8041,5.8473,5.8516,5.8529,5.8214,5.7015,5.5816,5.4653,5.367,5.2891,5.22,5.2212,5.2181,5.2157,5.2085,5.194,5.185,5.1916,5.1892,5.2013,5.2013,5.17,5.1387,5.1008,5.072,5.0503,5.0311,5.0143,4.9944,4.972,4.9487,4.9414,4.9631,4.9655,4.9703,4.9703,4.9727,4.9751,4.9727,4.9487,4.9174,4.8837,4.85,4.8452,4.8493,4.8741,4.8933,4.8284,4.7947,5.1465,5.1081,5.0978,5.0816,5.0702,5.084,5.0912,5.0912,5.1081,5.1129,5.1081,5.1129,5.1129,5.1105,5.1153,5.1201,5.1129,5.1122,5.1105,5.1081,5.096,5.0936,5.0888,5.0822,5.0678,5.0702,5.0425,5.016,5.0112,4.9992,4.9727,4.9294,4.8765,4.8669,4.8555,4.8267,4.7954,4.7906,4.7425,4.7185,4.7136,4.6952,4.7304,4.8269,4.9783,5.1402,5.2698,5.4257,5.5171,5.5628,5.6146,5.6265,5.6241,5.6834,5.7347,5.734,5.7492,5.7862,5.792,5.7925,5.7729,5.7851,5.8086,5.8492,5.8364,5.8387,5.8113,5.805,5.8887,5.8453,5.7647,5.6672,5.588,5.4797,5.3695,5.3053,5.2567,5.2627,5.2608,5.256,5.2397,5.2109,5.2085,5.2229,5.2253,5.2205,5.1989,5.1676,5.1339,5.0984,5.0792,5.0576,5.0503,5.0383,5.0304,5.0064,4.9799,4.9775,4.9992,5.0136,5.0208,5.0287,5.0359,5.0359,5.0304,5.016,4.9895,4.9462,4.9071,4.9071,4.9022,4.8813,4.8644,4.8067,4.7827,5.2229,5.2157,5.1658,5.1183,5.0792,5.1249,5.1459,5.1507,5.194,5.2085,5.2037,5.2133,5.2037,5.2085,5.2013,5.2037,5.2133,5.2181,5.2061,5.1892,5.1724,5.1507,5.1345,5.1105,5.0798,5.075,5.0648,5.0648,5.0582,5.0503,5.0256,4.9841,4.9294,4.9414,4.9342,4.9005,4.8765,4.8669,4.8308,4.8098,4.7978,4.7762,4.7621,4.8173,4.991,5.1605,5.209,5.4398,5.5906,5.6247,5.6743,5.6944,5.6966,5.756,5.796,5.8215,5.8464,5.8933,5.9311,5.8865,5.8442,5.8616,5.8719,5.8574,5.795,5.8935,5.856,5.7323,5.8219,5.8203,5.7472,5.682,5.5907,5.4823,5.3856,5.3595,5.3208,5.306,5.3041,5.2945,5.2753,5.247,5.2253,5.2373,5.2301,5.2253,5.1989,5.1676,5.1273,5.096,5.0816,5.0654,5.0654,5.063,5.072,5.06,5.0576,5.0617,5.0738,5.0768,5.0816,5.0888,5.087,5.0798,5.072,5.0672,5.0527,4.9992,4.9631,4.9648,4.9576,4.9366,4.9053,4.862,4.838,5.259,5.232,5.244,5.2181,5.1724,5.1916,5.1989,5.2037,5.2205,5.2301,5.2325,5.2301,5.2301,5.2325,5.2301,5.2301,5.2301,5.2301,5.2325,5.2271,5.2085,5.2013,5.1892,5.1748,5.1555,5.1273,5.1177,5.096,5.0678,5.0798,5.0648,5.028,4.992,4.9727,4.9679,4.9487,4.9222,4.9102,4.8933,4.8789,4.8741,4.8644,4.8476,4.8693,5.062,5.2065,5.2961,5.499,5.6166,5.6943,5.7421,5.7468,5.762,5.8231,5.8743,5.9039,5.9339,5.9918,6.0406,5.9869,5.9269,5.871,5.8631,5.821,5.73,5.8122,5.7926,5.7414,5.7318,5.7305,5.6222,5.5912,5.5428,5.4516,5.4021,5.3908,5.3698,5.3488,5.3336,5.3191,5.3047,5.2849,5.2638,5.2494,5.2397,5.2277,5.1964,5.1658,5.1369,5.1129,5.1032,5.0984,5.1008,5.0936,5.096,5.1177,5.1417,5.1417,5.1435,5.1435,5.1417,5.1273,5.1273,5.1201,5.1081,5.096,5.0744,5.0401,5.0136,5.0009,4.9968,4.9902,4.9559,4.9102,4.8909,5.3095,5.2788,5.3125,5.2927,5.2349,5.2488,5.2542,5.2566,5.2734,5.2758,5.274,5.274,5.2758,5.274,5.2782,5.2788,5.2836,5.2812,5.2788,5.2734,5.2662,5.2566,5.2494,5.2301,5.2013,5.1778,5.1706,5.1513,5.1297,5.1177,5.1225,5.1129,5.081,5.0617,5.0088,4.9817,4.9583,4.9559,4.939,4.9342,4.9335,4.9143,4.9029,4.9378,5.1239,5.2607,5.3534,5.505,5.6444,5.7117,5.7604,5.7818,5.8256,5.8854,5.9499,5.9858,6.0214,6.069,6.1015,6.0638,5.9783,5.8936,5.8498,5.7631,5.6859,5.7118,5.711,5.5859,5.6124,5.6244,5.5197,5.5149,5.5036,5.4241,5.427,5.4171,5.3887,5.3678,5.3558,5.3413,5.3167,5.2734,5.2662,5.247,5.247,5.2349,5.2181,5.1964,5.1754,5.1562,5.1507,5.1441,5.1435,5.1321,5.1225,5.173,5.2139,5.1964,5.1964,5.2061,5.2037,5.1868,5.1604,5.1411,5.1273,5.1177,5.0984,5.072,5.0497,5.0256,5.0184,5.0046,4.9751,4.9335,4.9311,5.3755,5.3798,5.3755,5.3221,5.2494,5.2879,5.309,5.3119,5.3461,5.3635,5.3587,5.3635,5.3635,5.3635,5.3515,5.3515,5.3515,5.3587,5.3587,5.3485,5.3197,5.3095,5.2927,5.271,5.2518,5.2325,5.2277,5.2229,5.2127,5.1989,5.2061,5.2085,5.182,5.1555,5.0768,5.0672,5.063,5.0576,5.0112,4.992,4.9799,4.9511,4.939,5.0059,5.1933,5.3419,5.4382,5.5675,5.7011,5.7688,5.7399,5.7655,5.8405,5.926,5.995,6.0464,6.0838,6.1352,6.1842,6.1,6.0077,5.8933,5.837,5.7293,5.6002,5.6013,5.6214,5.4853,5.5656,5.5738,5.5207,5.4756,5.4575,5.4417,5.4417,5.426,5.3996,5.3803,5.3659,5.3587,5.2932,5.2373,5.2397,5.2397,5.247,5.2446,5.2325,5.2205,5.2085,5.1964,5.1868,5.1844,5.1796,5.182,5.1868,5.2518,5.2831,5.2632,5.2494,5.259,5.2566,5.2422,5.2109,5.1724,5.17,5.1796,5.1465,5.1087,5.0912,5.0689,5.0232,5.0016,4.9751,4.96,4.9576,5.3803,5.3803,5.3803,5.3611,5.3341,5.3485,5.3558,5.3582,5.3731,5.3803,5.3803,5.3803,5.3803,5.3803,5.3803,5.3803,5.3803,5.3803,5.3803,5.3779,5.3606,5.3606,5.3461,5.3293,5.3077,5.2879,5.2806,5.2614,5.2253,5.2422,5.2349,5.2301,5.2422,5.2109,5.1748,5.1489,5.1225,5.1129,5.0744,5.0431,5.0407,5.0263,5.0322,5.0699,5.2911,5.4423,5.5367,5.6784,5.7805,5.8216,5.7794,5.7823,5.8392,5.9112,5.984,6.0764,6.1478,6.197,6.2338,6.189,6.0712,5.9297,5.8105,5.6893,5.4874,5.543,5.4973,5.4433,5.5067,5.5047,5.4706,5.5012,5.4951,5.4618,5.4496,5.4236,5.402,5.3875,5.3755,5.3731,5.3299,5.3197,5.3173,5.298,5.2956,5.286,5.2788,5.2542,5.2355,5.2253,5.2157,5.2157,5.2157,5.2229,5.2446,5.2975,5.3191,5.2999,5.2975,5.3053,5.3023,5.2927,5.2734,5.2446,5.2422,5.2397,5.1946,5.1562,5.1393,5.1146,5.0738,5.0401,5.0232,5.0016,4.9793,5.3803,5.3803,5.3803,5.3803,5.3803,5.3803,5.3803,5.3803,5.3803,5.3803,5.3803,5.3803,5.3803,5.3803,5.3803,5.3803,5.3803,5.3803,5.3803,5.3803,5.3803,5.3755,5.3779,5.3803,5.3558,5.3384,5.3312,5.3125,5.2932,5.2855,5.2884,5.2908,5.2831,5.286,5.262,5.2253,5.1796,5.17,5.1435,5.1297,5.1297,5.1315,5.1411,5.2088,5.3456,5.4985,5.6374,5.759,5.862,5.8593,5.8359,5.8035,5.8243,5.8816,5.9581,6.0704,6.1879,6.2108,6.1969,6.2409,6.0913,5.8736,5.8091,5.6837,5.5077,5.5225,5.5041,5.4694,5.4707,5.4808,5.4972,5.5361,5.5097,5.4736,5.4616,5.438,5.4068,5.3924,5.3924,5.39,5.3779,5.3803,5.3803,5.3755,5.3587,5.3419,5.325,5.298,5.2716,5.271,5.2686,5.271,5.2758,5.2884,5.3023,5.324,5.3384,5.336,5.3365,5.3437,5.3485,5.3389,5.3288,5.3119,5.2927,5.2686,5.2349,5.2037,5.1892,5.1652,5.1315,5.1026,5.0768,5.0431,5.0112,5.3803,5.3803,5.3803,5.3803,5.3803,5.3851,5.3851,5.3803,5.3803,5.3827,5.3851,5.39,5.3924,5.3875,5.3875,5.3851,5.3803,5.3803,5.3803,5.3803,5.3803,5.3803,5.3803,5.3803,5.375,5.3755,5.3707,5.3611,5.3731,5.3539,5.3563,5.3659,5.3539,5.3515,5.3269,5.2908,5.2446,5.2301,5.2109,5.1989,5.194,5.2085,5.2133,5.2708,5.3641,5.4903,5.599,5.6912,5.7933,5.8118,5.7844,5.7733,5.8039,5.8775,5.9424,6.0579,6.2164,6.2134,6.18,6.2429,6.1531,5.9634,5.8244,5.7342,5.6395,5.5434,5.5046,5.514,5.5289,5.5361,5.5482,5.5289,5.5073,5.4952,5.4861,5.4549,5.4164,5.4044,5.4116,5.4044,5.3851,5.3803,5.3803,5.3803,5.3924,5.3707,5.3539,5.3515,5.3347,5.3395,5.3413,5.3437,5.3491,5.3635,5.3707,5.3606,5.3582,5.3558,5.363,5.3683,5.3755,5.3731,5.3558,5.3365,5.3215,5.2999,5.2812,5.2596,5.2349,5.2109,5.1868,5.1411,5.1105,5.0768,5.0503,5.3803,5.3803,5.3803,5.3803,5.3851,5.4212,5.4164,5.3827,5.3803,5.3972,5.4375,5.4356,5.4356,5.4375,5.4356,5.4159,5.3948,5.3803,5.3803,5.3851,5.3972,5.3851,5.3851,5.39,5.3827,5.3827,5.3827,5.3851,5.3779,5.3803,5.3803,5.3779,5.3803,5.3803,5.3707,5.351,5.3191,5.2855,5.259,5.2494,5.2422,5.2446,5.259,5.3071,5.3814,5.4963,5.5889,5.7298,5.8289,5.8323,5.7737,5.7734,5.9058,5.8762,5.8938,6.2192,6.3458,6.3929,6.3252,6.2663,6.1955,6.0749,5.9162,5.7595,5.667,5.5963,5.5362,5.5578,5.5847,5.5943,5.5991,5.5823,5.5606,5.551,5.5366,5.5005,5.4621,5.4332,5.4356,5.3996,5.3827,5.3948,5.3924,5.402,5.4092,5.39,5.3851,5.3924,5.3851,5.3875,5.3803,5.3803,5.3803,5.3803,5.3803,5.3707,5.3755,5.3779,5.3803,5.3803,5.3803,5.3755,5.3707,5.363,5.3485,5.3485,5.3467,5.3221,5.2836,5.2686,5.2422,5.1916,5.1441,5.1177,5.087,5.3942,5.4068,5.3875,5.3924,5.4188,5.4688,5.4712,5.4452,5.4428,5.4621,5.4904,5.4928,5.4885,5.4928,5.4904,5.4784,5.452,5.4544,5.4544,5.4544,5.4375,5.4477,5.4428,5.4375,5.4332,5.4212,5.4068,5.4044,5.3924,5.3827,5.3803,5.3803,5.3803,5.3827,5.3779,5.3707,5.3611,5.3365,5.3125,5.2951,5.286,5.286,5.3125,5.3436,5.4224,5.4985,5.5949,5.7582,5.825,5.8792,5.8387,5.8765,5.9952,5.9739,6.0411,6.3269,6.4176,6.4053,6.3283,6.2515,6.2216,6.1362,5.9507,5.8208,5.7234,5.6556,5.6236,5.6135,5.6352,5.6524,5.6568,5.6568,5.64,5.6188,5.5895,5.5558,5.515,5.476,5.4356,5.3972,5.3948,5.4116,5.4212,5.4308,5.4471,5.4592,5.464,5.4664,5.4399,5.4087,5.3924,5.3803,5.3803,5.3803,5.3827,5.3875,5.3827,5.3827,5.3803,5.3803,5.3803,5.3803,5.3779,5.3779,5.3755,5.3731,5.3683,5.3587,5.3341,5.3149,5.2975,5.259,5.2181,5.1868,5.1537,5.4212,5.464,5.4159,5.426,5.4712,5.5241,5.5482,5.553,5.553,5.5506,5.5482,5.5458,5.5458,5.5482,5.5458,5.5385,5.5169,5.5121,5.5097,5.5381,5.5169,5.5145,5.5169,5.5337,5.4952,5.476,5.4621,5.4525,5.4116,5.4116,5.4188,5.3924,5.4044,5.414,5.4212,5.4188,5.4183,5.4135,5.3991,5.3851,5.3707,5.3755,5.3851,5.3913,5.4281,5.4747,5.5646,5.6733,5.7845,5.8973,5.9508,5.9502,6.023,6.1363,6.2615,6.3558,6.4419,6.4253,6.3395,6.2444,6.1547,6.0506,5.892,5.8401,5.7781,5.6994,5.6577,5.6544,5.6736,5.6784,5.6808,5.6712,5.6568,5.6472,5.6256,5.5943,5.5606,5.5174,5.476,5.4452,5.4501,5.464,5.4712,5.4808,5.488,5.5169,5.5217,5.5212,5.5025,5.4544,5.4375,5.4164,5.4212,5.426,5.4044,5.4044,5.3924,5.3875,5.3875,5.3972,5.4068,5.3996,5.3851,5.3827,5.3803,5.3803,5.3755,5.3659,5.3611,5.3563,5.3389,5.324,5.2927,5.2572,5.2157,5.5097,5.5193,5.5073,5.5097,5.5265,5.5775,5.6231,5.6592,5.6616,5.6352,5.6063,5.6015,5.6015,5.6015,5.6015,5.5871,5.5554,5.5626,5.5433,5.5482,5.5506,5.5626,5.5458,5.5602,5.5385,5.5265,5.5169,5.5073,5.488,5.4904,5.4957,5.4977,5.4904,5.4856,5.4856,5.4856,5.4856,5.4808,5.4808,5.4452,5.4044,5.4236,5.4423,5.4829,5.5248,5.5543,5.6379,5.7362,5.7855,5.8315,5.7918,5.8355,5.9345,6.1374,6.3053,6.4182,6.4493,6.4319,6.3811,6.252,6.1281,6.0928,5.9966,5.9105,5.8269,5.7358,5.6896,5.6973,5.7001,5.7001,5.6977,5.6857,5.6736,5.6688,5.6616,5.6304,5.6015,5.5582,5.5169,5.5097,5.5121,5.5193,5.5241,5.5313,5.5361,5.5385,5.5361,5.5361,5.5458,5.5217,5.5265,5.5102,5.5049,5.4952,5.4616,5.4399,5.4332,5.414,5.4092,5.4188,5.4356,5.438,5.4332,5.3948,5.3803,5.3851,5.3875,5.3779,5.3755,5.3755,5.3731,5.351,5.3534,5.3293,5.2812,5.5554,5.5751,5.6011,5.5818,5.5578,5.6207,5.6736,5.6977,5.7001,5.6833,5.6572,5.6568,5.6568,5.6568,5.6568,5.6424,5.6083,5.6131,5.6227,5.6135,5.6015,5.6179,5.6107,5.6015,5.5919,5.5823,5.5482,5.5361,5.5482,5.5361,5.5337,5.5433,5.5433,5.5458,5.5433,5.5409,5.5433,5.5361,5.5433,5.5097,5.4501,5.4784,5.4952,5.5442,5.5659,5.5969,5.622,5.7034,5.7532,5.8145,5.8561,5.9781,6.0984,6.2382,6.3749,6.4557,6.4767,6.4392,6.3883,6.2569,6.0798,6.0386,5.9438,5.7986,5.779,5.6964,5.6949,5.7001,5.7001,5.7001,5.7001,5.6905,5.6905,5.6857,5.6784,5.6616,5.6304,5.5899,5.551,5.5265,5.5433,5.5751,5.5871,5.6155,5.6203,5.6275,5.6155,5.6059,5.6059,5.5895,5.5963,5.5938,5.577,5.5482,5.5073,5.4928,5.4904,5.4664,5.4399,5.464,5.4904,5.4904,5.4813,5.4428,5.4116,5.402,5.3996,5.3972,5.3827,5.3779,5.3803,5.3755,5.3803,5.3803,5.3395,5.5775,5.6256,5.6741,5.6424,5.5722,5.6544,5.7001,5.7001,5.7001,5.7001,5.6953,5.6953,5.7001,5.7001,5.7001,5.7001,5.6929,5.6712,5.6857,5.6881,5.6881,5.6736,5.676,5.6857,5.6592,5.628,5.5987,5.5842,5.5818,5.5818,5.5818,5.5626,5.5602,5.5626,5.5602,5.5626,5.577,5.5818,5.5818,5.5703,5.5578,5.5506,5.5506,5.5506,5.5709,5.5713,5.5867,5.6352,5.7169,5.7685,5.8825,5.9935,6.1033,6.1939,6.311,6.383,6.3329,6.3226,6.2968,6.1101,5.9959,5.9065,5.7765,5.7235,5.72,5.7041,5.7021,5.7001,5.7001,5.7001,5.7001,5.7001,5.7001,5.7001,5.6929,5.6881,5.6548,5.6284,5.5967,5.5626,5.5895,5.6256,5.6472,5.676,5.6881,5.6977,5.7001,5.7001,5.6905,5.664,5.652,5.6424,5.6256,5.5938,5.5578,5.5482,5.5458,5.5145,5.4952,5.5217,5.5409,5.5414,5.527,5.488,5.464,5.4544,5.4327,5.4212,5.4068,5.3924,5.3803,5.3827,5.3803,5.3803,5.3803,5.6111,5.6236,5.6784,5.6616,5.6183,5.6736,5.7001,5.7001,5.7001,5.7001,5.7001,5.7001,5.7001,5.7001,5.7001,5.7001,5.7001,5.7001,5.7001,5.7001,5.7001,5.7001,5.7001,5.7001,5.6953,5.676,5.6592,5.6688,5.6419,5.6496,5.664,5.6588,5.6636,5.6616,5.664,5.6636,5.654,5.6472,5.6496,5.6496,5.6448,5.6304,5.6087,5.6516,5.7404,5.7237,5.7309,5.78,5.7697,5.7588,5.7716,5.8759,5.9823,6.0724,6.1653,6.2445,6.1931,6.1639,6.1003,5.9799,5.8915,5.8676,5.7824,5.7607,5.7414,5.7021,5.7001,5.7001,5.7001,5.7001,5.7001,5.7001,5.7001,5.7001,5.6953,5.6953,5.6808,5.676,5.6616,5.652,5.6592,5.676,5.6784,5.6929,5.6929,5.7001,5.7001,5.7001,5.7001,5.7001,5.7001,5.6857,5.6688,5.6472,5.6159,5.6039,5.5967,5.5674,5.5506,5.5698,5.5847,5.5919,5.5703,5.5385,5.5241,5.5169,5.4928,5.452,5.4423,5.426,5.3948,5.3827,5.3827,5.3803,5.3803]}]]